.

MPMG - Transparência

Contracheque - Verbas indenizatórias e outras remunerações temporárias - Tabela III (Resolução nº 200/2019) - Pós Resolução CNMP 200/2019

Período: 2020 - Novembro

Ordem Matrícula Nome Cargo Lotação Verbas Indenizatórias *1 Outras Remunerações Temporárias *2 Data de Referência
Auxílio Alimentação Auxílio Creche Auxílio Saúde Auxílio Transporte Estagiário Indenizações Indenizações e Diligênias Adicionais de Periculosidade e Insalubridade Gratificações Outras Remunerações
1 498900 ABDON MARCIO BARBOSA DA SILVA OFICIAL DO MP ABRE CAMPO - COMARCA; ABRE CAMPO-PJ-01PJ 1.100,00 0,00 450,00 0,00 0,00 308,76 0,00 0,00 613,04 30/11/2020
2 293600 ABELARDO GUIMARAES CASTRO PROMOT.ENTRANC.ESPECIAL BELO HORIZONTE - COMARCA; BH-02PJ FAMILIA-GAB 035PJ 1.100,00 0,00 2.601,04 0,00 3.368,91 0,00 0,00 0,00 1.029,39 30/11/2020
3 99200 ADALBERTO DE PAULA CHRISTO LEITE PROMOT.ENTRANC.ESPECIAL SÃO JOÃO DEL REI - COMARCA; SAO JOAO DEL REI-PJ-02PJ 1.100,00 0,00 2.345,20 0,00 5.614,85 0,00 0,00 0,00 1.235,26 30/11/2020
4 177800 ADALBERTO MENEZES FARIA SAMORA OFICIAL DO MP BELO HORIZONTE - COMARCA; DIR ESTRUTURA E PROCESSOS ORGANIZACIONAIS 1.100,00 0,00 450,00 0,00 0,00 0,00 0,00 0,00 1.937,32 30/11/2020
5 306400 ADALBERTO MOREIRA GONCALVES ANALISTA DO MP BELO HORIZONTE - COMARCA; BH-24PJ JUIZO REG BARREIRO-SECRETARIA 1.100,00 0,00 450,00 0,00 0,00 0,00 0,00 0,00 1.991,82 30/11/2020
6 1150100 ADAO ABADE DE BARROS JUNIOR ESTAGIARIO OLIVEIRA; OLIVEIRA-PJ-01PJ 0,00 0,00 0,00 126,00 0,00 0,00 0,00 0,00 0,00 30/11/2020
7 100400 ADELAIDE CRISTINA DE CARVALHO MACHADO PROCURADOR DE JUSTICA BELO HORIZONTE - COMARCA; GABINETE DE PROCURADOR DE JUSTIÇA - SALA 708 1.100,00 0,00 980,72 0,00 3.546,22 0,00 0,00 0,00 1.083,57 30/11/2020
8 96500 ADELIA LAGE DE OLIVEIRA PROCURADOR DE JUSTICA BELO HORIZONTE - COMARCA; GABINETE DE PROCURADOR DE JUSTIÇA - SALA 403 1.100,00 0,00 1.279,20 0,00 5.910,37 0,00 0,00 0,00 1.300,28 30/11/2020
9 1121100 ADELIA NATALI CHURATA URBANO ESTAGIARIO BETIM; BETIM-PJ-04PJ 0,00 0,00 0,00 117,00 0,00 0,00 0,00 0,00 0,00 30/11/2020
10 49200 ADEMAR PEREIRA PROMOTOR 2A ENTRANCIA MACHADO - COMARCA; MACHADO-PJ-01PJ 1.100,00 0,00 2.984,80 0,00 5.334,11 0,00 0,00 0,00 1.173,50 30/11/2020
11 179300 ADENISE AUXILIADORA SOUZA SAD OFICIAL DO MP BARBACENA - COMARCA; BARBACENA-PJ-06PJ 1.100,00 0,00 450,00 0,00 0,00 0,00 0,00 0,00 1.830,84 30/11/2020
12 272200 ADILSON BATISTA ORNELAS OFICIAL DO MP LAVRAS - COMARCA; LAVRAS-PJ-SECRETARIA 1.100,00 0,00 450,00 0,00 0,00 0,00 0,00 0,00 596,54 30/11/2020
13 143000 ADILSON DE OLIVEIRA NASCIMENTO PROCURADOR DE JUSTICA BELO HORIZONTE - COMARCA; GABINETE DE PROCURADOR DE JUSTIÇA - SALA 614 1.100,00 0,00 2.728,96 0,00 3.546,22 0,00 0,00 0,00 1.083,57 30/11/2020
14 380100 ADILSON GONCALVES DE MELO JUNIOR ANALISTA DO MP ARAXÁ - COMARCA; ARAXA-PJ-05PJ 1.100,00 769,39 450,00 0,00 0,00 0,00 0,00 0,00 1.226,80 30/11/2020
15 148800 ADILSON JANUARIO OFICIAL DO MP BELO HORIZONTE - COMARCA; BH-22PJ PES COM DEF E IDOSOS-SECRETARIA 1.100,00 0,00 450,00 0,00 0,00 0,00 0,00 0,00 2.738,50 30/11/2020
16 322601 ADMILSON SILVEIRA ANALISTA DO MP SAO JOAO DO PARAISO COMARCA; SAO JOAO DO PARAISO-PJ-UNPJ 1.100,00 0,00 450,00 0,00 0,00 0,00 0,00 0,00 914,74 30/11/2020
17 1067600 ADNEIA CARVALHO NUNES ESTAGIARIO JANUARIA; JANUARIA-PJ-01PJ 0,00 0,00 0,00 189,00 0,00 0,00 0,00 0,00 0,00 30/11/2020
18 333700 ADRIANA ABRITTA TEIXEIRA OFICIAL DO MP BELO HORIZONTE - COMARCA; DIRET DE PESSOAL DO MINISTERIO PUBLICO - DPMP 1.100,00 0,00 450,00 0,00 0,00 0,00 0,00 0,00 1.183,40 30/11/2020
19 468500 ADRIANA APARECIDA FIRMINO ANALISTA DO MP CARATINGA - COMARCA; CARATINGA-PJ-04PJ 1.100,00 769,39 450,00 0,00 0,00 0,00 0,00 0,00 1.311,58 30/11/2020
20 326100 ADRIANA AUGUSTA AMARAL BELO OFICIAL DO MP BARBACENA - COMARCA; BARBACENA-PJ-08PJ 1.100,00 0,00 450,00 0,00 0,00 0,00 0,00 0,00 1.177,83 30/11/2020
21 363000 ADRIANA CARVALHO PEREIRA E SILVA COSTA PROMOTOR 2A ENTRANCIA ALÉM PARAÍBA - COMARCA; ALEM PARAIBA-PJ-02PJ 1.100,00 0,00 2.494,44 0,00 3.200,47 0,00 0,00 0,00 977,92 30/11/2020
22 605700 ADRIANA COSTA LIRA ASSESSOR/OFICIAL BELO HORIZONTE - COMARCA; COORD ESTADUAL DE DEFESA DA EDUCACAO 1.100,00 0,00 450,00 0,00 0,00 0,00 0,00 0,00 834,83 30/11/2020
23 541100 ADRIANA CRISTINA DE OLIVEIRA OFICIAL DO MP GUAPÉ - COMARCA; GUAPE-PJ-UNPJ 1.100,00 769,39 450,00 0,00 0,00 0,00 0,00 0,00 489,81 30/11/2020
24 254800 ADRIANA DAS GRACAS FERNANDES ANALISTA DO MP UBERABA - COMARCA; UBERABA-PJ-07PJ 1.100,00 0,00 450,00 0,00 0,00 0,00 0,00 0,00 2.771,10 30/11/2020
25 217400 ADRIANA DE CARVALHO CATAO BRAGA ASSESSOR BELO HORIZONTE - COMARCA; DIV FISCAL ADM CONT TERCEIRIZACAO 1.100,00 0,00 450,00 0,00 0,00 0,00 0,00 0,00 942,22 30/11/2020
26 1190100 ADRIANA DE VASCONCELOS QUEIROZ ESTAGIARIO IBIRITE; IBIRITE-PJ-06PJ 0,00 0,00 0,00 36,00 0,00 0,00 0,00 0,00 0,00 30/11/2020
27 434600 ADRIANA FERREIRA DA SILVA ANALISTA DO MP BELO HORIZONTE - COMARCA; BH-14PJ DEFESA CONSUMIDOR-GAB 112PJ 1.100,00 0,00 450,00 0,00 0,00 0,00 0,00 0,00 1.225,82 30/11/2020
28 499800 ADRIANA FERREIRA TIAGO OFICIAL DO MP SALINAS - COMARCA; SALINAS-PJ-02PJ 1.100,00 0,00 450,00 0,00 0,00 0,00 0,00 0,00 937,79 30/11/2020
29 543400 ADRIANA GUIMARAES NUNES DE PAULA ANALISTA DO MP PATROCÍNIO - COMARCA; PATROCINIO-PJ-01PJ 1.100,00 0,00 450,00 0,00 0,00 0,00 0,00 0,00 929,97 30/11/2020
30 471500 ADRIANA HORTA DE CARVALHO RODRIGUES DE SOUSA ANALISTA DO MP BELO HORIZONTE - COMARCA; GRUPO ESP PROM JUST DEF PROB ADM PAT PUB 1.100,00 0,00 450,00 0,00 0,00 0,00 0,00 0,00 973,76 30/11/2020
31 314300 ADRIANA JULIA DE SOUZA PROMOT.ENTRANC.ESPECIAL BELO HORIZONTE - COMARCA; BH-26 CRIME CONT CRIAN ADOL-GAB 169PJ 1.100,00 0,00 2.558,40 0,00 34.812,08 0,00 0,00 0,00 823,51 30/11/2020
32 1148500 ADRIANA LACERDA SOARES ESTAGIARIO RAUL SOARES; RAUL SOARES-PJ-UNPJ 0,00 0,00 0,00 198,00 0,00 0,00 0,00 0,00 120,50 30/11/2020
33 1042600 ADRIANA LELLIS DOS SANTOS RESENDE ESTAGIARIO BELO HORIZONTE; CAO-FUNDACOES 0,00 0,00 0,00 72,00 0,00 0,00 0,00 0,00 0,00 30/11/2020
34 86400 ADRIANA MOREIRA CALDEIRA BRANT OFICIAL DO MP BELO HORIZONTE - COMARCA; BH-21PJ TUTELA FUNDACOES-SECRETARIA 1.100,00 0,00 450,00 0,00 0,00 0,00 0,00 0,00 2.209,85 30/11/2020
35 480700 ADRIANA MOREIRA DE AVELLAR CEZILIO OFICIAL DO MP BELO HORIZONTE - COMARCA; BH-18PJ VIOLENCIA DOMESTICA-SECRETARIA 1.100,00 0,00 450,00 0,00 0,00 0,00 0,00 0,00 587,21 30/11/2020
36 326000 ADRIANA PEREIRA CARNEIRO RESENDE OFICIAL DO MP BELO HORIZONTE - COMARCA; BH-25PJ DEFESA DA EDUCACAO-SECRETARIA 1.100,00 0,00 450,00 0,00 0,00 0,00 0,00 0,00 1.047,42 30/11/2020
37 502200 ADRIANA PETRUCCI DAVINA OFICIAL DO MP PATROCÍNIO - COMARCA; PATROCINIO-PJ-01PJ 1.100,00 769,39 450,00 0,00 0,00 0,00 0,00 0,00 718,40 30/11/2020
38 685200 ADRIANA PRATES DOS SANTOS PROMOTOR SUBSTITUTO TEÓFILO OTONI - COMARCA; TEOFILO OTONI-PJ-05PJ 1.100,00 0,00 596,96 0,00 0,00 0,00 0,00 0,00 0,00 30/11/2020
39 201900 ADRIANA REIS PIMENTA OFICIAL DO MP TEÓFILO OTONI - COMARCA; TEOFILO OTONI-PJ-03PJ 1.100,00 0,00 450,00 0,00 0,00 0,00 0,00 0,00 1.929,01 30/11/2020
40 278700 ADRIANA RODRIGUES PINTO COELHO AMARAL ANALISTA DO MP BELO HORIZONTE - COMARCA; CGMP-ASSESSORIA JURIDICA 1.100,00 0,00 450,00 0,00 0,00 0,00 0,00 0,00 2.020,24 30/11/2020
41 468000 ADRIANA SANTOS DE SANTANA MOREIRA ANALISTA DO MP ARAÇUAÍ - COMARCA; ARACUAI-PJ-02PJ 1.100,00 0,00 450,00 0,00 0,00 0,00 0,00 0,00 1.317,28 30/11/2020
42 290900 ADRIANA TORRES BECK PROMOT.ENTRANC.ESPECIAL BELO HORIZONTE - COMARCA; BH-23PJ DEF DIR CRIAN ADOL 1.100,00 0,00 3.070,08 0,00 0,00 0,00 0,00 0,00 0,00 30/11/2020
43 194700 ADRIANA TSUKIDE OFICIAL DO MP UBERABA - COMARCA; COORD REG BACIAS PARANAIBA BAIXO RIO GRANDE 1.100,00 0,00 450,00 0,00 5.797,94 0,00 0,00 0,00 2.381,86 30/11/2020
44 291500 ADRIANA VITAL DO VALLE PROMOT.ENTRANC.ESPECIAL SÃO JOÃO DEL REI - COMARCA; SAO JOAO DEL REI-PJ-06PJ 1.100,00 0,00 2.217,28 0,00 3.368,91 0,00 0,00 0,00 1.029,39 30/11/2020
45 1088700 ADRIANE SILVA ESTAGIARIO BETIM; BETIM-PJ-05PJ 0,00 0,00 0,00 36,00 0,00 0,00 0,00 0,00 0,00 30/11/2020
46 212900 ADRIANO ARANTES BOZOLA PROMOT.ENTRANC.ESPECIAL UBERLÂNDIA - COMARCA; UBERLANDIA-PJ-21PJ 1.100,00 0,00 2.694,64 0,00 5.614,85 0,00 0,00 0,00 1.235,26 30/11/2020
47 174200 ADRIANO BOTELHO ESTRELA PROMOT.ENTRANC.ESPECIAL BELO HORIZONTE - COMARCA; BH-12PJ JUIZO CRIMINAL-GAB 095PJ 1.100,00 0,00 1.918,80 0,00 5.614,85 0,00 0,00 0,00 1.235,26 30/11/2020
48 465500 ADRIANO CASSIANO MATOS ANALISTA DO MP ARAXÁ - COMARCA; ARAXA-PJ-02PJ 1.100,00 0,00 450,00 0,00 0,00 0,00 0,00 0,00 985,78 30/11/2020
49 500500 ADRIANO DE ALMEIDA SILVA OFICIAL DO MP UBERABA - COMARCA; UBERABA-PJ-12PJ 1.100,00 769,39 450,00 0,00 0,00 0,00 0,00 0,00 1.127,27 30/11/2020
50 187200 ADRIANO DE FREITAS MARON OFICIAL DO MP PONTE NOVA - COMARCA; PONTE NOVA-PJ-03PJ 1.100,00 0,00 450,00 0,00 0,00 0,00 0,00 0,00 3.052,38 30/11/2020
51 344000 ADRIANO DUTRA GOMES DE FARIA PROMOT.ENTRANC.ESPECIAL VESPASIANO - COMARCA; VESPASIANO-PJ-04PJ 1.100,00 0,00 2.345,20 0,00 3.368,91 0,00 0,00 0,00 1.029,39 30/11/2020
52 477900 ADRIANO FERREIRA DE ALMEIDA OFICIAL DO MP TAIOBEIRAS - COMARCA; TAIOBEIRAS-PJ-UNPJ 1.100,00 0,00 450,00 0,00 0,00 0,00 0,00 0,00 807,57 30/11/2020
53 658300 ADRIANO NEPOMUCENO DE CARVALHO TENENTE CORONEL BELO HORIZONTE - COMARCA; GAECO - SECRETARIA 1.100,00 0,00 0,00 0,00 0,00 0,00 0,00 0,00 0,00 30/11/2020
54 269101 ADRIANO PEREIRA SILVA ANALISTA DO MP UBERABA - COMARCA; UBERABA-PJ-02PJ 1.100,00 769,39 450,00 0,00 0,00 0,00 0,00 0,00 1.110,51 30/11/2020
55 414200 ADRIANO RODRIGUES FERNANDES ANALISTA DO MP CARANDAÍ - COMARCA; CARANDAI-PJ-UNPJ 1.100,00 0,00 450,00 0,00 0,00 0,00 0,00 0,00 1.068,59 30/11/2020
56 1042000 ADRIANO SOARES LOES ESTAGIARIO UBERABA; UBERABA-PJ-01PJ 0,00 0,00 0,00 171,00 1.004,17 0,00 0,00 0,00 0,00 30/11/2020
57 536700 ADRIELLE COSTA MARIA MOURAO FIGUEIREDO OFICIAL DO MP SERRO - COMARCA; SERRO-PJ-SECRETARIA 1.100,00 769,39 450,00 0,00 0,00 0,00 0,00 0,00 541,07 30/11/2020
58 514300 ADRIENE DAMASCENO BRAGA ANALISTA DO MP ALFENAS - COMARCA; ALFENAS-PJ-03PJ 1.100,00 769,39 450,00 0,00 0,00 0,00 0,00 0,00 1.576,10 30/11/2020
59 254600 ADRIENE DOMINGUES COSTA ANALISTA DO MP BELO HORIZONTE - COMARCA; SUPERINTENDENCIA GESTÃO DE PESSOAS 0,00 0,00 0,00 0,00 0,00 0,00 0,00 0,00 1.805,66 30/11/2020
60 252001 ADRIENE GOMES BARRETO ANALISTA DO MP BELO HORIZONTE - COMARCA; BH-19PJ SAUDE-SECRETARIA 047PJ 1.100,00 0,00 450,00 0,00 0,00 0,00 0,00 0,00 1.722,28 30/11/2020
61 84100 ADROALDO JUNQUEIRA AYRES NETO PROMOT.ENTRANC.ESPECIAL UBERABA - COMARCA; UBERABA-PJ-12PJ 1.100,00 0,00 3.112,72 0,00 0,00 0,00 0,00 0,00 0,00 30/11/2020
62 1167400 ADSON GUSTAVO DE OLIVEIRA ESTAGIARIO BELO HORIZONTE; PROC. JUSTICA CRIMINAL 0,00 0,00 0,00 189,00 0,00 0,00 0,00 0,00 0,00 30/11/2020
63 162700 AECIO RABELO PROMOTOR 2A ENTRANCIA LAVRAS - COMARCA; LAVRAS-PJ-04PJ 1.100,00 0,00 2.387,84 0,00 5.334,11 0,00 0,00 0,00 1.173,50 30/11/2020
64 645000 AFONSO CELSO GUIMARAES JUNIOR OFICIAL DO MP PIRAPORA - COMARCA; PIRAPORA-PJ-01PJ 1.100,00 0,00 450,00 0,00 0,00 0,00 0,00 0,00 407,29 30/11/2020
65 97600 AFONSO HENRIQUE DE MIRANDA TEIXEIRA PROCURADOR DE JUSTICA BELO HORIZONTE - COMARCA; CAO-CONFLITOS AGRARIOS 1.100,00 0,00 3.261,96 0,00 5.910,37 0,00 0,00 0,00 1.300,28 30/11/2020
66 610000 AGENOR ANDRADE LEAO PROMOT.ENTRANC.ESPECIAL TEÓFILO OTONI - COMARCA; COORD REG PJ DEF EDU DIR CRIAN ADOL JEQUI MUC 1.100,00 0,00 1.921,50 0,00 5.614,85 0,00 0,00 0,00 1.235,26 30/11/2020
67 302500 AGENOR JOSE DA SILVA JUNIOR ANALISTA DO MP JUIZ DE FORA - COMARCA; JUIZ DE FORA-PJ-14PJ 1.100,00 0,00 450,00 0,00 0,00 0,00 0,00 0,00 1.793,06 30/11/2020
68 344100 AGNALDO LUCAS COTRIM PROMOT.ENTRANC.ESPECIAL POUSO ALEGRE - COMARCA; POUSO ALEGRE-PJ-02PJ 1.100,00 0,00 2.259,92 0,00 3.368,91 0,00 0,00 0,00 1.029,39 30/11/2020
69 67400 AIDA FERNANDES LISBOA MARINHO PROCURADOR DE JUSTICA BELO HORIZONTE - COMARCA; GABINETE DE PROCURADOR DE JUSTIÇA - SALA 604 1.100,00 0,00 2.856,88 0,00 5.910,37 0,00 0,00 0,00 1.300,28 30/11/2020
70 1160200 AIESKA TALITA QUEIROZ MOTA ESTAGIARIO PIRAPORA; PIRAPORA-PJ-01PJ 0,00 0,00 0,00 189,00 0,00 0,00 0,00 0,00 0,00 30/11/2020
71 1194700 AILA QUINTAO MAYR ESTAGIARIO BELO HORIZONTE; BH-26 CRIME CONT CRIAN ADOL 0,00 0,00 0,00 126,00 0,00 0,00 0,00 0,00 0,00 30/11/2020
72 357500 AILSON WAGNER DE ALENCAR SILVA OFICIAL DO MP BELO HORIZONTE - COMARCA; BH-12PJ JUIZO CRIMINAL-SECRETARIA 1.100,00 0,00 450,00 0,00 0,00 0,00 0,00 0,00 1.257,27 30/11/2020
73 366400 AILTON ALEXSSANDRO ALVES OFICIAL DO MP PARÁ DE MINAS - COMARCA; PARA DE MINAS-PJ-05PJ 1.100,00 0,00 450,00 0,00 0,00 0,00 0,00 0,00 1.004,64 30/11/2020
74 318900 AILTON DE CASTRO RIBEIRO JUNIOR OFICIAL DO MP ITAJUBA - COMARCA; ITAJUBA-PJ-01PJ 1.100,00 769,39 450,00 0,00 0,00 0,00 0,00 0,00 1.155,83 30/11/2020
75 533100 AIMARA DE BRITTO DIAS LEITE PROMOTOR SUBSTITUTO SANTA LUZIA - COMARCA; SANTA LUZIA-PJ-SECRETARIA 1.100,00 0,00 1.492,40 0,00 0,00 0,00 0,00 0,00 92,90 30/11/2020
76 439100 AIRTON BATISTA COSTA NETO NEPOMUCENO PROMOTOR 2A ENTRANCIA ITUIUTABA - COMARCA; ITUIUTABA-PJ-04PJ 1.100,00 0,00 2.645,40 0,00 10.668,22 0,00 0,00 0,00 977,92 30/11/2020
77 341600 ALAM BAENA BERTOLLA DOS SANTOS PROMOTOR 2A ENTRANCIA ARAGUARI - COMARCA; ARAGUARI-PJ-05PJ 1.100,00 0,00 2.558,40 0,00 3.200,47 0,00 0,00 0,00 977,92 30/11/2020
78 175700 ALAN CARRIJO RAMOS PROMOTOR 1A ENTRANCIA PRATÁPOLIS - COMARCA; PRATAPOLIS-PJ-UNPJ 1.100,00 0,00 3.040,44 0,00 3.040,44 0,00 0,00 0,00 929,03 30/11/2020
79 1099500 ALAN GOMES BARBOSA JUNIOR ESTAGIARIO JOAO PINHEIRO; JOAO PINHEIRO-PJ-02PJ 0,00 0,00 0,00 117,00 0,00 0,00 0,00 0,00 0,00 30/11/2020
80 464400 ALAN MONTEIRO GASPAR ANALISTA DO MP SETE LAGOAS - COMARCA; SETE LAGOAS-PJ-08PJ 1.100,00 0,00 450,00 0,00 0,00 0,00 0,00 0,00 1.520,33 30/11/2020
81 1195800 ALAN PATRICK BORGES OLIVEIRA ESTAGIARIO UBERLANDIA; UBERLANDIA-PJ-02PJ 0,00 0,00 0,00 90,00 0,00 0,00 0,00 0,00 0,00 30/11/2020
82 670200 ALANA ARAUJO AGUIAR ASSESSOR BELO HORIZONTE - COMARCA; ASSESS EXECUTIVA DO CONSELHO SUPERIOR DO MP 1.100,00 0,00 450,00 0,00 0,00 0,00 0,00 0,00 49,27 30/11/2020
83 492000 ALANA DE CASTRO FREITAS OFICIAL DO MP ITUMIRIM - COMARCA; ITUMIRIM-PJ-SECRETARIA 1.100,00 0,00 450,00 0,00 0,00 0,00 0,00 0,00 584,20 30/11/2020
84 1200300 ALANA KATHERINE FERREIRA DA SILVA ESTAGIARIO GOVERNADOR VALADARES; COORD REG DO MA DA BACIA DO RIO DOCE 0,00 0,00 0,00 45,00 0,00 0,00 0,00 0,00 0,00 30/11/2020
85 306700 ALANA MARCIA DE OLIVEIRA OFICIAL DO MP BELO HORIZONTE - COMARCA; DIRETORIA DE ADMINISTRACAO FINANCEIRA 1.100,00 0,00 450,00 0,00 0,00 0,00 0,00 0,00 1.189,49 30/11/2020
86 324500 ALANMAR COUTINHO COSTA OFICIAL DO MP LEOPOLDINA - COMARCA; LEOPOLDINA-PJ-02PJ 1.100,00 0,00 450,00 0,00 0,00 0,00 0,00 0,00 1.116,92 30/11/2020
87 1124700 ALANNA CARDOSO LINHARES RIBEIRO AMORIM ESTAGIARIO 0,00 0,00 0,00 27,00 0,00 0,00 0,00 0,00 0,00 30/11/2020
88 170800 ALBERTO BOGLIOLO SIRIHAL PROMOT.ENTRANC.ESPECIAL BELO HORIZONTE - COMARCA; BH-05PJ JUIZO SUCESSÕES-GAB CARGO 045PJ 1.100,00 0,00 2.588,04 0,00 5.614,85 0,00 0,00 0,00 1.235,26 30/11/2020
89 1160400 ALBERTO DOS ANJOS GODEFROID ESTAGIARIO OURO PRETO; OURO PRETO-PJ-01PJ
90 407300 ALBERTO LUIZ SOARES DE OLIVEIRA ANALISTA DO MP BELO HORIZONTE - COMARCA; DIRETORIA DE PROJETOS DE EDIFICACOES 1.100,00 0,00 450,00 0,00 0,00 0,00 0,00 0,00 2.049,64 30/11/2020
91 118200 ALBERTO PEREIRA DA COSTA OFICIAL DO MP DORES DO INDAIÁ - COMARCA; DORES DO INDAIA-PJ-UNPJ 1.100,00 0,00 450,00 0,00 0,00 0,00 0,00 0,00 2.700,77 30/11/2020
92 1084700 ALBERTO RISI NETO ESTAGIARIO RIBEIRAO DAS NEVES; RIBEIRAO DAS NEVES-PJ-12PJ
93 72000 ALBINO VITORIO BERNARDO PROCURADOR DE JUSTICA BELO HORIZONTE - COMARCA; GABINETE DE PROCURADOR DE JUSTIÇA - SALA 710 1.100,00 0,00 2.153,32 0,00 5.910,37 0,00 0,00 0,00 1.300,28 30/11/2020
94 660700 ALCIDEZIO JOSE DE OLIVEIRA BISPO JUNIOR PROMOT.ENTRANC.ESPECIAL CARATINGA - COMARCA; CARATINGA-PJ-05PJ 1.100,00 0,00 1.876,16 0,00 5.614,85 0,00 0,00 0,00 1.235,26 30/11/2020
95 282400 ALCILENE MARISE DE ARAUJO ANALISTA DO MP BELO HORIZONTE - COMARCA; BH-23PJ INF-FISC MED SOC FEC 1.100,00 0,00 450,00 0,00 0,00 0,00 0,00 0,00 2.009,58 30/11/2020
96 112600 ALCIONE DA MOTA JARDIM OFICIAL DO MP BELO HORIZONTE - COMARCA; CAO-CRIANCAS E ADOLESCENTES-SECRETARIA 1.100,00 0,00 450,00 0,00 0,00 0,00 0,00 0,00 1.682,31 30/11/2020
97 396400 ALCIONE DE FREITAS E SILVA ANALISTA DO MP BELO HORIZONTE - COMARCA; ASSESS JUR DO CONS SUPERIOR DO MINISTERIO PUB 1.100,00 0,00 450,00 0,00 0,00 0,00 0,00 0,00 1.656,99 30/11/2020
98 657400 ALCIONE MARIA FERREIRA ASSESSOR BELO HORIZONTE - COMARCA; PROC JUST RECURSOS ESP E EXTRAORD CRIMINAIS 1.100,00 0,00 450,00 0,00 0,00 0,00 0,00 0,00 924,32 30/11/2020
99 161600 ALCIONE NERY SOUZA ASSESSOR BELO HORIZONTE - COMARCA; BH-18PJ DIREITOS HUMANOS-SECRETARIA 1.100,00 0,00 450,00 0,00 0,00 0,00 0,00 0,00 1.033,21 30/11/2020
100 92000 ALCIR ARANTES PROMOT.ENTRANC.ESPECIAL UBERABA - COMARCA; UBERABA-PJ-03PJ 1.100,00 0,00 2.558,40 0,00 5.614,85 0,00 0,00 0,00 1.235,26 30/11/2020
101 376000 ALDA GOMES LANA OFICIAL DO MP BELO HORIZONTE - COMARCA; BH-18PJ VIOLENCIA DOMESTICA-SECRETARIA 1.100,00 0,00 450,00 0,00 0,00 0,00 0,00 0,00 1.576,03 30/11/2020
102 148000 ALDA MARTINS SIMOES OFICIAL DO MP BELO HORIZONTE - COMARCA; BH-23PJ CIVEL- FISC ENT AB POL 1.100,00 0,00 450,00 0,00 0,00 0,00 0,00 0,00 2.178,90 30/11/2020
103 89200 ALDECIR RESENDE BOLLESI DE PLA E SANT'ANNA PROMOT.ENTRANC.ESPECIAL CONTAGEM - COMARCA; CONTAGEM-PJ-08PJ 1.100,00 0,00 2.153,32 0,00 0,00 0,00 0,00 0,00 0,00 30/11/2020
104 457700 ALDERICO DE CARVALHO JUNIOR PROMOTOR 2A ENTRANCIA NOVA SERRANA - COMARCA; NOVA SERRANA-PJ-03PJ 1.100,00 0,00 2.932,16 0,00 0,00 0,00 0,00 0,00 0,00 30/11/2020
105 318400 ALDO CREPALDI JUNIOR OFICIAL DO MP BELO HORIZONTE - COMARCA; DIVISAO DE MATERIAIS 1.100,00 0,00 450,00 0,00 0,00 0,00 0,00 0,00 1.101,87 30/11/2020
106 604500 ALENIZE APARECIDA RODRIGUES HENRIQUE OFICIAL DO MP RIO NOVO - COMARCA; RIO NOVO-PJ-UNPJ 1.100,00 0,00 450,00 0,00 0,00 0,00 0,00 0,00 555,53 30/11/2020
107 1057900 ALESSA ARAUJO FONSECA ESTAGIARIO BOTELHOS; BOTELHOS-PJ-UNPJ 0,00 0,00 0,00 180,00 0,00 0,00 0,00 0,00 0,00 30/11/2020
108 197900 ALESSA DE SOUSA E SILVA OFICIAL DO MP OLIVEIRA - COMARCA; OLIVEIRA-PJ-02PJ 1.100,00 0,00 450,00 0,00 0,00 108,00 0,00 0,00 1.938,49 30/11/2020
109 428500 ALESSANDRA ALVES DINIZ OFICIAL DO MP BELO HORIZONTE - COMARCA; CENTRAL DE APOIO TECNICO-SECRETARIA 1.100,00 0,00 450,00 0,00 0,00 0,00 0,00 0,00 799,17 30/11/2020
110 286801 ALESSANDRA BOTELHO JUNQUEIRA DE MENEZES ANALISTA DO MP PASSOS - COMARCA; PASSOS-PJ-05PJ 1.100,00 1.231,02 450,00 0,00 0,00 0,00 0,00 0,00 3.569,92 30/11/2020
111 1069900 ALESSANDRA CAROLINE PELEGRINO ESTAGIARIO BRASOPOLIS; BRASOPOLIS-PJ-UNPJ 0,00 0,00 0,00 180,00 0,00 0,00 0,00 0,00 0,00 30/11/2020
112 307000 ALESSANDRA CRISTINA SANTOS MENDES ANALISTA DO MP BELO HORIZONTE - COMARCA; BH-18PJ VIOLENCIA DOMESTICA-SECRETARIA 1.100,00 0,00 450,00 0,00 0,00 0,00 0,00 0,00 1.297,15 30/11/2020
113 989400 ALESSANDRA DE CARVALHO PAULA ESTAGIARIO POCOS DE CALDAS; POCOS DE CALDAS-PJ-07PJ 0,00 0,00 0,00 180,00 0,00 0,00 0,00 0,00 0,00 30/11/2020
114 264400 ALESSANDRA DE SOUZA SANTOS ANALISTA DO MP BELO HORIZONTE - COMARCA; OUVIDORIA DO MPMG 1.100,00 0,00 450,00 0,00 0,00 0,00 0,00 0,00 2.181,04 30/11/2020
115 441500 ALESSANDRA DRUMMOND DE FIGUEIREDO ROSSI ANALISTA DO MP BELO HORIZONTE - COMARCA; DIRETORIA DE PROJETOS DE EDIFICACOES 1.100,00 0,00 450,00 0,00 0,00 0,00 0,00 0,00 1.075,23 30/11/2020
116 524000 ALESSANDRA LUCIOLI DE BARROS GUERRA ANALISTA DO MP BELO HORIZONTE - COMARCA; BH-19PJ SAUDE--SECRETARIA 1.100,00 0,00 450,00 0,00 0,00 0,00 0,00 0,00 1.107,36 30/11/2020
117 479900 ALESSANDRA MARA ANDRADE DE FARIA OFICIAL DO MP UBERABA - COMARCA; UBERABA-PJ-09PJ 1.100,00 0,00 450,00 0,00 0,00 0,00 0,00 0,00 813,50 30/11/2020
118 226700 ALESSANDRA MARA VASCONCELOS REZENDE OFICIAL DO MP CONSELHEIRO LAFAIETE - COMARCA; CONSELHEIRO LAFAIETE-PJ-07PJ 1.100,00 0,00 450,00 0,00 0,00 0,00 0,00 0,00 1.312,59 30/11/2020
119 112100 ALESSANDRA MARCIA FERREIRA OFICIAL DO MP BELO HORIZONTE - COMARCA; BELO HORIZONTE- SECRETARIA DAS PROMOTORIAS 1.100,00 0,00 450,00 0,00 0,00 0,00 0,00 0,00 1.327,91 30/11/2020
120 196500 ALESSANDRA MARIA RIBEIRO LUCIANO OFICIAL DO MP RIO PARANAÍBA - COMARCA; RIO PARANAIBA-PJ-UNPJ 1.100,00 0,00 450,00 0,00 0,00 0,00 0,00 0,00 1.864,93 30/11/2020
121 91400 ALESSANDRA MENDES VASCONCELOS DE SOUZA OFICIAL DO MP BELO HORIZONTE - COMARCA; BH-23PJ INF-FISC MED SOC AB 1.100,00 0,00 450,00 0,00 0,00 0,00 0,00 0,00 2.806,08 30/11/2020
122 290500 ALESSANDRA PINTO CASSIANO PROMOTOR 2A ENTRANCIA BOA ESPERANÇA - COMARCA; BOA ESPERANCA-PJ-02PJ 1.100,00 0,00 1.279,20 0,00 3.200,47 0,00 0,00 0,00 977,92 30/11/2020
123 651700 ALESSANDRA PROFIRIO SOUZA OFICIAL DO MP NOVA ERA - COMARCA; NOVA ERA-PJ-UNPJ 1.100,00 0,00 450,00 0,00 0,00 0,00 0,00 0,00 354,84 30/11/2020
124 384900 ALESSANDRA RODRIGUES ANALISTA DO MP VISCONDE DO RIO BRANCO - COMARCA; VISCONDE DO RIO BRANCO-PJ-03PJ 1.100,00 1.538,78 450,00 0,00 0,00 0,00 0,00 0,00 1.521,92 30/11/2020
125 390000 ALESSANDRA SPADANO MASSARA VASCONCELOS OFICIAL DO MP BETIM - COMARCA; BETIM-PJ-10PJ 1.100,00 0,00 450,00 0,00 0,00 0,00 0,00 0,00 863,87 30/11/2020
126 426500 ALESSANDRO CAMPOS DE PAIVA ANALISTA DO MP BELO HORIZONTE - COMARCA; DIR CRIACAO E MIDIAS 1.100,00 0,00 450,00 0,00 0,00 0,00 0,00 0,00 1.329,63 30/11/2020
127 623400 ALESSANDRO DE OLIVEIRA REZENDE ANALISTA DO MP BELO HORIZONTE - COMARCA; DIRET DE INFORMACAO E CONHECIMENTO-DINC/CEAF 1.100,00 0,00 450,00 0,00 0,00 0,00 0,00 0,00 728,26 30/11/2020
128 174100 ALESSANDRO GARCIA SILVA PROMOT.ENTRANC.ESPECIAL DIVINÓPOLIS - COMARCA; DIVINOPOLIS-PJ-12PJ 1.100,00 0,00 2.387,84 0,00 3.368,91 0,00 0,00 0,00 1.029,39 30/11/2020
129 308201 ALESSANDRO RAMOS MACHADO PROMOTOR 2A ENTRANCIA ALFENAS - COMARCA; ALFENAS-PJ-04PJ 1.100,00 0,00 2.558,40 0,00 3.200,47 0,00 0,00 0,00 977,92 30/11/2020
130 665700 ALESSANDRO ROGERIO DIAS DE OLIVEIRA PROMOTOR 2A ENTRANCIA JANUÁRIA - COMARCA; JANUARIA-PJ-02PJ 1.100,00 0,00 1.410,52 0,00 0,00 0,00 0,00 0,00 0,00 30/11/2020
131 420600 ALESSANDRO SILVA OFICIAL DO MP VISCONDE DO RIO BRANCO - COMARCA; VISCONDE DO RIO BRANCO-PJ-02PJ 1.100,00 0,00 450,00 0,00 0,00 0,00 0,00 0,00 1.061,97 30/11/2020
132 171100 ALESSIA ALVES DE ALVARENGA SANTA BARBARA PROMOT.ENTRANC.ESPECIAL CONSELHEIRO LAFAIETE - COMARCA; CONSELHEIRO LAFAIETE-PJ-06PJ 1.100,00 0,00 3.368,91 0,00 5.614,85 0,00 0,00 0,00 1.235,26 30/11/2020
133 57800 ALESSIO GUIMARAES PROCURADOR DE JUSTICA BELO HORIZONTE - COMARCA; GABINETE DE PROCURADOR DE JUSTIÇA - SALA 508 1.100,00 0,00 2.911,80 0,00 3.546,22 0,00 0,00 0,00 1.083,57 30/11/2020
134 375301 ALETHEIA PATRICIA ASSIS MORAIS MOREIRA ANALISTA DO MP ITABIRA - COMARCA; ITABIRA-PJ-02PJ 1.100,00 1.538,78 450,00 0,00 0,00 0,00 0,00 0,00 1.001,42 30/11/2020
135 949200 ALEX ALVES DA SILVA ESTAGIARIO ABRE CAMPO; ABRE CAMPO-PJ-01PJ 0,00 0,00 0,00 99,00 0,00 0,00 0,00 0,00 0,00 30/11/2020
136 382300 ALEX CARVALHO LIMA ANALISTA DO MP UBERLÂNDIA - COMARCA; UBERLANDIA-PJ-14PJ 1.100,00 0,00 450,00 0,00 0,00 0,00 0,00 0,00 1.531,60 30/11/2020
137 195201 ALEX DE CASTRO PEREIRA ANALISTA DO MP UBERABA - COMARCA; UBERABA-PJ-09PJ 1.100,00 0,00 450,00 0,00 0,00 0,00 0,00 0,00 2.081,45 30/11/2020
138 358900 ALEX DE PAULA LANZA ASSESSOR BELO HORIZONTE - COMARCA; DIR CONTEUDO JORNALISTICO 1.100,00 769,39 450,00 0,00 0,00 0,00 0,00 0,00 888,08 30/11/2020
139 171400 ALEX FERNANDES SANTIAGO PROMOT.ENTRANC.ESPECIAL JUIZ DE FORA - COMARCA; JUIZ DE FORA-PJ-08PJ 1.100,00 0,00 1.726,92 0,00 40.426,93 0,00 0,00 0,00 1.029,39 30/11/2020
140 685300 ALEX RAFAEL BITTENCOURT PROMOTOR SUBSTITUTO RIO POMBA - COMARCA; RIO POMBA-PJ-UNPJ 1.100,00 0,00 746,20 0,00 0,00 0,00 0,00 0,00 0,00 30/11/2020
141 178400 ALEX RODRIGO SALDANHA GUIMARAES OFICIAL DO MP BELO HORIZONTE - COMARCA; DIRETORIA DE SISTEMAS DE INFORMACAO 1.100,00 0,00 450,00 0,00 0,00 0,00 0,00 0,00 706,89 30/11/2020
142 314100 ALEX SOARES NACIF PROMOT.ENTRANC.ESPECIAL CONTAGEM - COMARCA; CONTAGEM-PJ-15PJ 1.100,00 0,00 895,44 0,00 0,00 0,00 0,00 0,00 0,00 30/11/2020
143 413500 ALEX VILELA OLIVEIRA ANALISTA DO MP GOVERNADOR VALADARES - COMARCA; COORD REG PJ DEF EDU DIR CRIANCA ADOL RIODOCE 1.100,00 0,00 450,00 0,00 0,00 0,00 0,00 0,00 1.489,88 30/11/2020
144 264300 ALEXANDRA FATIMA SARAIVA SOARES ANALISTA DO MP BELO HORIZONTE - COMARCA; CENTRAL DE APOIO TECN-SETOR DE MEIO AMBIENTE 1.100,00 0,00 450,00 0,00 0,00 0,00 0,00 0,00 1.973,07 30/11/2020
145 488000 ALEXANDRA LARA PAIS DE CARVALHO ANALISTA DO MP SERRO - COMARCA; SERRO-PJ-UNPJ 1.100,00 0,00 450,00 0,00 0,00 0,00 0,00 0,00 940,76 30/11/2020
146 256300 ALEXANDRA SANTOS GOMES OFICIAL DO MP BELO HORIZONTE - COMARCA; DIRETORIA GESTAO COMPRAS LICITACOES 1.100,00 0,00 450,00 0,00 0,00 0,00 0,00 0,00 1.031,60 30/11/2020
147 236300 ALEXANDRE ALVES DE OLIVEIRA PROMOT.ENTRANC.ESPECIAL BELO HORIZONTE - COMARCA; BH-12PJ JUIZO CRIMINAL-GAB 108PJ 1.100,00 0,00 980,72 0,00 3.368,91 0,00 0,00 0,00 1.029,39 30/11/2020
148 403300 ALEXANDRE AUGUSTO RODRIGUES ANALISTA DO MP ÁGUAS FORMOSAS - COMARCA; AGUAS FORMOSAS-PJ-UNPJ 1.100,00 769,39 450,00 0,00 0,00 0,00 0,00 0,00 1.049,31 30/11/2020
149 640900 ALEXANDRE BARBOSA MASCARENHAS ANALISTA DO MP BETIM - COMARCA; BETIM-PJ-02PJ 1.100,00 0,00 450,00 0,00 0,00 0,00 0,00 0,00 555,47 30/11/2020
150 311700 ALEXANDRE BARCELOS RESENDE OFICIAL DO MP BELO HORIZONTE - COMARCA; BH-19PJ SAUDE-SECRETARIA 047PJ 1.100,00 769,39 450,00 0,00 0,00 0,00 0,00 0,00 873,45 30/11/2020
151 293700 ALEXANDRE BRASILEIRO DE QUEIROZ PROMOT.ENTRANC.ESPECIAL BELO HORIZONTE - COMARCA; BH-12PJ JUIZO CRIMINAL-GAB 092PJ 1.100,00 0,00 3.368,91 0,00 5.614,85 0,00 0,00 0,00 1.235,26 30/11/2020
152 285600 ALEXANDRE CAMPOS DE OLIVEIRA OFICIAL DO MP UBERABA - COMARCA; COORD REG BACIAS PARANAIBA BAIXO RIO GRANDE 1.100,00 0,00 450,00 0,00 0,00 0,00 0,00 0,00 1.356,75 30/11/2020
153 509200 ALEXANDRE CAPUANO DE REZENDE ANALISTA DO MP BELO HORIZONTE - COMARCA; GABINETE DE PROCURADOR DE JUSTIÇA - SALA 715 1.100,00 0,00 450,00 0,00 0,00 0,00 0,00 0,00 1.007,76 30/11/2020
154 229400 ALEXANDRE CARLOS BOTREL DIRETOR/OFICIAL BELO HORIZONTE - COMARCA; SUPERINTENDENCIA DOS ORGAOS COLEGIADOS 1.100,00 0,00 450,00 0,00 0,00 0,00 0,00 0,00 2.205,53 30/11/2020
155 411900 ALEXANDRE CARVALHO SANTOS RIBEIRO ANALISTA DO MP OLIVEIRA - COMARCA; OLIVEIRA-PJ-02PJ 1.100,00 948,91 450,00 0,00 0,00 0,00 0,00 0,00 1.507,85 30/11/2020
156 641600 ALEXANDRE DA SILVA ASSUNCAO OFICIAL DO MP BELO HORIZONTE - COMARCA; SERVICO MEDICO-DEPTO PERIC MEDICA SAUDE OCUP 1.100,00 0,00 450,00 0,00 0,00 0,00 0,00 0,00 442,87 30/11/2020
157 201200 ALEXANDRE DE ALENCAR CORDEIRO OFICIAL DO MP ÁGUAS FORMOSAS - COMARCA; AGUAS FORMOSAS-PJ-UNPJ 1.100,00 0,00 450,00 0,00 0,00 0,00 0,00 0,00 807,70 30/11/2020
158 288200 ALEXANDRE DE VASCONCELOS COSTA KER ANALISTA DO MP BELO HORIZONTE - COMARCA; BH-03PJ EMPRESARIAL-SECRETARIA 1.100,00 0,00 450,00 0,00 0,00 0,00 0,00 0,00 1.914,57 30/11/2020
159 445000 ALEXANDRE DIOGENES OLIVEIRA ANALISTA DO MP SALINAS - COMARCA; SALINAS-PJ-02PJ 1.100,00 769,39 450,00 0,00 0,00 0,00 0,00 0,00 1.428,00 30/11/2020
160 1032000 ALEXANDRE EVARISTO CUNHA BARBOSA ESTAGIARIO CAPELINHA; CAPELINHA-PJ-01PJ 0,00 0,00 0,00 144,00 0,00 0,00 0,00 0,00 0,00 30/11/2020
161 665800 ALEXANDRE FIGUEIREDO MORATO PROMOTOR 2A ENTRANCIA GUANHÃES - COMARCA; GUANHAES-PJ-01PJ 1.100,00 0,00 703,56 0,00 5.334,11 0,00 0,00 0,00 1.173,50 30/11/2020
162 463400 ALEXANDRE LEAL WINKELSTROTER ANALISTA DO MP TEÓFILO OTONI - COMARCA; TEOFILO OTONI-PJ-04PJ 1.100,00 0,00 450,00 0,00 0,00 0,00 0,00 0,00 944,49 30/11/2020
163 96600 ALEXANDRE LIBERO BARONI PROMOT.ENTRANC.ESPECIAL SETE LAGOAS - COMARCA; SETE LAGOAS-PJ-04PJ 1.100,00 0,00 2.771,60 0,00 5.614,85 0,00 0,00 0,00 1.235,26 30/11/2020
164 1189100 ALEXANDRE LOPES PEREIRA ESTAGIARIO CANAPOLIS; CANAPOLIS-PJ-UNPJ 0,00 0,00 0,00 180,00 0,00 0,00 0,00 0,00 0,00 30/11/2020
165 615700 ALEXANDRE LUIZ DE CASTRO MACIEL ANALISTA DO MP IBIRITÉ - COMARCA; IBIRITE-PJ-02PJ 1.100,00 0,00 450,00 0,00 0,00 0,00 0,00 0,00 780,41 30/11/2020
166 356900 ALEXANDRE MOISES MENDONCA E ARAUJO OFICIAL DO MP UBERABA - COMARCA; UBERABA-PJ-13PJ 1.100,00 0,00 450,00 0,00 0,00 0,00 0,00 0,00 718,53 30/11/2020
167 232100 ALEXANDRE MOTTA BENEVIDES PROMOT.ENTRANC.ESPECIAL BELO HORIZONTE - COMARCA; BH-12PJ JUIZO CRIMINAL-GAB 094PJ 1.100,00 0,00 2.302,56 0,00 5.614,85 0,00 0,00 0,00 1.235,26 30/11/2020
168 633300 ALEXANDRE NONATO MARTINS OFICIAL DO MP IGARAPÉ - COMARCA; IGARAPE-PJ-02PJ 1.100,00 0,00 450,00 0,00 0,00 0,00 0,00 0,00 443,32 30/11/2020
169 469900 ALEXANDRE PEREIRA GUEDES ANALISTA DO MP CATAGUASES - COMARCA; CATAGUASES-PJ-03PJ 1.100,00 0,00 450,00 0,00 0,00 0,00 0,00 0,00 1.092,22 30/11/2020
170 208700 ALEXANDRE RESENDE FRAGA ANALISTA DO MP BELO HORIZONTE - COMARCA; BH-19PJ SAUDE-SECRETARIA 130PJ 1.100,00 0,00 450,00 0,00 0,00 0,00 0,00 0,00 2.200,52 30/11/2020
171 156900 ALEXANDRE REZENDE GRILLO PROMOTOR 2A ENTRANCIA SÃO GONÇALO DO SAPUCAÍ - COMARCA; SAO GONCALO DO SAPUCAI-PJ-02PJ 1.100,00 0,00 2.686,32 0,00 5.334,11 0,00 0,00 0,00 1.173,50 30/11/2020
172 216401 ALEXANDRE RIBEIRO DE LIMA MAIORINO ANALISTA DO MP UBERABA - COMARCA; UBERABA-PJ-03PJ 1.100,00 0,00 450,00 0,00 0,00 0,00 0,00 0,00 1.981,84 30/11/2020
173 475100 ALEXANDRE TEOTONIO COSTA ANALISTA DO MP ARAGUARI - COMARCA; ARAGUARI-PJ-01PJ 1.100,00 0,00 450,00 0,00 0,00 0,00 0,00 0,00 1.001,84 30/11/2020
174 339000 ALEXANDRE VITOR CARDOSO OFICIAL DO MP BELO HORIZONTE - COMARCA; PROMOT ESTADUAL DE DEF PATRI CULT E TUR DE MG 1.100,00 0,00 450,00 0,00 0,00 0,00 0,00 0,00 737,91 30/11/2020
175 1088900 ALEXANDRE VITOR FONSECA ALVES ESTAGIARIO BELO HORIZONTE; BH-19PJ SAUDE-RECEPCAO 0,00 0,00 0,00 18,00 0,00 0,00 0,00 0,00 0,00 30/11/2020
176 678900 ALEXIA DUARTE TORRES ASSESSOR PROCURADOR JUSTICA BELO HORIZONTE - COMARCA; GABINETE DE PROCURADOR DE JUSTIÇA - SALA 502 1.100,00 0,00 450,00 0,00 0,00 0,00 0,00 0,00 0,00 30/11/2020
177 623100 ALEXSANDER BATISTA AGUIAR ANALISTA DO MP BELO HORIZONTE - COMARCA; DIRETORIA DE SUPORTE E MANUTENCAO 1.100,00 769,39 450,00 0,00 0,00 0,00 0,00 0,00 865,05 30/11/2020
178 1170300 ALEXSANDER MERCURY CASSEMIRO ALVES ESTAGIARIO BELO HORIZONTE; BH-09PJ AUDITORIA MILITAR-GAB 074PJ
179 513300 ALFSON MIRANDA BRAGA ANALISTA DO MP BELO HORIZONTE - COMARCA; BH-12PJ JUIZO CRIMINAL-GAB 092PJ 1.100,00 0,00 450,00 0,00 0,00 0,00 0,00 0,00 1.036,13 30/11/2020
180 157000 ALI MAHMOUD FAYEZ AYOUB PROMOTOR 2A ENTRANCIA GUAXUPÉ - COMARCA; GUAXUPE-PJ-02PJ 1.100,00 0,00 2.686,32 0,00 3.200,47 0,00 0,00 0,00 977,92 30/11/2020
181 1178100 ALICE ARAUJO CAMPOS ESTAGIARIO PARACATU; PARACATU-PJ-04PJ 0,00 0,00 0,00 180,00 0,00 0,00 0,00 0,00 0,00 30/11/2020
182 485300 ALICE DE MELLO VILELA PROMOT.ENTRANC.ESPECIAL CONTAGEM - COMARCA; CONTAGEM-PJ-06PJ 1.100,00 0,00 852,80 0,00 0,00 0,00 0,00 0,00 0,00 30/11/2020
183 618400 ALICE MAGALHAES MACEDO DE CARVALHO ANALISTA DO MP IPATINGA - COMARCA; IPATINGA-PJ-10PJ 1.100,00 769,39 450,00 0,00 0,00 0,00 0,00 0,00 756,76 30/11/2020
184 882300 ALICE MARIA RIBEIRO DINIZ ESTAGIARIO BELO HORIZONTE; BH-13PJ JUIZO DE TOXICOS-GAB 149PJ 0,00 0,00 0,00 189,00 0,00 0,00 0,00 0,00 0,00 30/11/2020
185 1128600 ALICE OLIVEIRA BOTTARO ESTAGIARIO BELO HORIZONTE; PROMOT ESTADUAL DE DEF PATRI CULT E TUR DE MG
186 471000 ALICE TITONELI MOREIRA ANALISTA DO MP MIRADOURO - COMARCA; MIRADOURO-PJ-UNPJ 1.100,00 769,39 450,00 0,00 2.215,32 79,68 0,00 0,00 1.277,24 30/11/2020
187 1164000 ALINE APARECIDA CUSTODIO ESTAGIARIO SAO SEBASTIAO DO PARAISO; SAO SEBASTIAO DO PARAISO-PJ-01PJ 0,00 0,00 0,00 72,00 0,00 0,00 0,00 0,00 0,00 30/11/2020
188 1138500 ALINE ARAUJO GONCALVES DE SOUZA ESTAGIARIO BELO HORIZONTE; BH-25PJ DEFESA DA EDUCACAO-SECRETARIA 0,00 0,00 0,00 9,00 0,00 0,00 0,00 0,00 0,00 30/11/2020
189 622400 ALINE BALBINO PORTUGAL LOPES ANALISTA DO MP TRÊS PONTAS - COMARCA; TRES PONTAS-PJ-03PJ 1.100,00 769,39 450,00 0,00 0,00 0,00 0,00 0,00 766,20 30/11/2020
190 373000 ALINE BOTELHO RESENDE OFICIAL DO MP JUIZ DE FORA - COMARCA; JUIZ DE FORA-PJ-22PJ 1.100,00 0,00 450,00 0,00 0,00 0,00 0,00 0,00 901,37 30/11/2020
191 929900 ALINE CRISTINA DE OLIVEIRA AMARAL BARBOSA ESTAGIARIO BELO HORIZONTE; CONSELHO SUPERIOR DO MINISTERIO PUBLICO 0,00 0,00 0,00 90,00 150,83 0,00 0,00 0,00 0,00 30/11/2020
192 407700 ALINE CRISTINA RODRIGUES PEREIRA COORDENADOR/ANALISTA BELO HORIZONTE - COMARCA; DIRETORIA DE PROJETOS DE EDIFICACOES 1.100,00 769,39 450,00 0,00 0,00 0,00 0,00 0,00 1.548,24 30/11/2020
193 193100 ALINE CRISTINA SENA OLIVEIRA OFICIAL DO MP UBERLÂNDIA - COMARCA; UBERLANDIA-PJ-03PJ 1.100,00 769,39 450,00 0,00 0,00 0,00 0,00 0,00 1.749,47 30/11/2020
194 554200 ALINE CRISTINA SILVA SOUZA OFICIAL DO MP TIROS - COMARCA; TIROS-PJ-UNPJ 1.100,00 0,00 450,00 0,00 0,00 0,00 0,00 0,00 1.207,03 30/11/2020
195 505500 ALINE DA CUNHA MARREIROS OLIVEIRA ANALISTA DO MP CARANGOLA - COMARCA; CARANGOLA-PJ-03PJ 1.100,00 769,39 450,00 0,00 0,00 0,00 0,00 0,00 1.004,56 30/11/2020
196 433500 ALINE DE MELO QUEIROZ ASSESSOR/OFICIAL BELO HORIZONTE - COMARCA; ASSESSORIA TECNICA DO PROCON-MG 1.100,00 769,39 450,00 0,00 0,00 0,00 0,00 0,00 1.059,69 30/11/2020
197 691100 ALINE DE MELO SOUZA ASSESSOR PROCURADOR JUSTICA BELO HORIZONTE - COMARCA; GABINETE DE PROCURADOR DE JUSTIÇA - SALA 401 1.100,00 0,00 450,00 0,00 0,00 0,00 0,00 0,00 0,00 30/11/2020
198 935200 ALINE DE PAULA BRAGA ESTAGIARIO TRES PONTAS; TRES PONTAS-PJ-03PJ 0,00 0,00 0,00 54,00 0,00 0,00 0,00 0,00 0,00 30/11/2020
199 542700 ALINE DE SOUSA ALBINO ANALISTA DO MP CONTAGEM - COMARCA; CONTAGEM-PJ-09PJ 1.100,00 0,00 450,00 0,00 0,00 0,00 0,00 0,00 817,89 30/11/2020
200 330000 ALINE DIORIO MAYRINK OFICIAL DO MP BELO HORIZONTE - COMARCA; BH-18PJ DIREITOS HUMANOS-SECRETARIA 1.100,00 0,00 450,00 0,00 0,00 0,00 0,00 0,00 807,69 30/11/2020
201 499000 ALINE FERREIRA LOPES ANALISTA DO MP TEÓFILO OTONI - COMARCA; COORD. DE DEF. DO PAT. PUBLICO-JEQUIT./MUCURI 1.100,00 0,00 450,00 0,00 0,00 0,00 0,00 0,00 1.029,59 30/11/2020
202 925700 ALINE FREITAS FERREIRA ESTAGIARIO GOVERNADOR VALADARES; COORD REG DO MA DA BACIA DO RIO DOCE
203 405300 ALINE LAIA CARDOZO DIRETOR/ANALISTA BELO HORIZONTE - COMARCA; SUPERINTENDENCIA LOGISTICA SERVICOS 1.100,00 0,00 450,00 0,00 0,00 0,00 0,00 0,00 1.794,77 30/11/2020
204 278200 ALINE MARCIA FARIA BARBOSA FERNANDES OFICIAL DO MP BARBACENA - COMARCA; BARBACENA-PJ-SECRETARIA 1.100,00 0,00 450,00 0,00 0,00 0,00 0,00 0,00 844,72 30/11/2020
205 1091400 ALINE MARIA MARTINS SILVA ESTAGIARIO FORMIGA; FORMIGA-PJ-01PJ 0,00 0,00 0,00 180,00 0,00 0,00 0,00 0,00 0,00 30/11/2020
206 389000 ALINE NERI NOBRE ANALISTA DO MP MONTES CLAROS - COMARCA; COORD REG PJ DEF EDUC DIR CRIANCA ADOL NORTE 1.100,00 0,00 450,00 0,00 0,00 0,00 0,00 0,00 1.633,40 30/11/2020
207 1138600 ALINE OLIVEIRA DE FATIMA ESTAGIARIO PARACATU; GAECO REGIONAL DE PARACATU 0,00 0,00 0,00 189,00 0,00 0,00 0,00 0,00 0,00 30/11/2020
208 294600 ALINE PATRICIA SILVA VIEIRA OFICIAL DO MP UBERLÂNDIA - COMARCA; UBERLANDIA-PJ-03PJ 1.100,00 0,00 450,00 0,00 0,00 0,00 1.445,27 0,00 1.441,91 30/11/2020
209 420000 ALINE RODRIGUES CAMOROPIN ANALISTA DO MP SABARÁ - COMARCA; SABARA-PJ-02PJ 1.100,00 0,00 450,00 0,00 0,00 0,00 0,00 0,00 1.465,44 30/11/2020
210 408300 ALINE SILVA ARAUJO DE PAULA ANALISTA DO MP SÃO SEBASTIÃO DO PARAÍSO - COMARCA; SAO SEBASTIAO DO PARAISO-PJ-02PJ 1.100,00 769,39 450,00 0,00 0,00 0,00 0,00 0,00 1.433,88 30/11/2020
211 665900 ALINE SILVA BARROS PROMOTOR 2A ENTRANCIA SÃO FRANCISCO - COMARCA; SAO FRANCISCO-PJ-02PJ 1.100,00 0,00 703,56 0,00 3.200,47 0,00 0,00 0,00 977,92 30/11/2020
212 1182600 ALINE SILVA MONTOVANI ESTAGIARIO VARGINHA; VARGINHA-PJ-07PJ 0,00 0,00 0,00 180,00 0,00 0,00 0,00 0,00 0,00 30/11/2020
213 1138200 ALINE STEFANE DE OLIVEIRA ASSUNCAO ESTAGIARIO BELO HORIZONTE; BH-23PJ INFRACIONAL 0,00 0,00 0,00 81,00 0,00 0,00 0,00 0,00 0,00 30/11/2020
214 425400 ALINE TRINDADE DE FREITAS CAMPOS OFICIAL DO MP BELO HORIZONTE - COMARCA; BH-14PJ DEFESA CONSUMIDOR-SECRETARIA 1.100,00 0,00 450,00 0,00 0,00 0,00 0,00 0,00 942,73 30/11/2020
215 1111700 ALINI PEREIRA DE ALMEIDA ESTAGIARIO VICOSA; VICOSA-PJ-04PJ 0,00 0,00 0,00 171,00 0,00 0,00 0,00 0,00 0,00 30/11/2020
216 1077600 ALINY SANTOS ARRUDA ESTAGIARIO BELO HORIZONTE; BH-13PJ JUIZO DE TOXICOS-GAB 149PJ 0,00 0,00 0,00 189,00 0,00 0,00 0,00 0,00 0,00 30/11/2020
217 517200 ALISSOM PEREIRA DA SILVA ANALISTA DO MP BORDA DA MATA - COMARCA; BORDA DA MATA-PJ-UNPJ 1.100,00 0,00 450,00 0,00 0,00 0,00 0,00 0,00 1.155,06 30/11/2020
218 442400 ALISSON LABRE ANALISTA DO MP VARGINHA - COMARCA; VARGINHA-PJ-03PJ 1.100,00 769,39 450,00 0,00 0,00 0,00 0,00 0,00 1.759,19 30/11/2020
219 962100 ALISSON PATROCINIO DE OLIVEIRA ESTAGIARIO VARZEA DA PALMA; VARZEA DA PALMA-PJ-02PJ
220 643800 ALLAN PAUL FONSECA DE CASTRO ASSESSOR/OFICIAL CONTAGEM - COMARCA; CONTAGEM-PJ-SECRETARIA 1.100,00 769,39 450,00 0,00 0,00 0,00 0,00 0,00 444,15 30/11/2020
221 612900 ALLAN VINICIUS VIEIRA ARAUJO COORDENADOR/OFICIAL BELO HORIZONTE - COMARCA; DIVISAO TRANSPORTES 1.100,00 0,00 450,00 0,00 0,00 0,00 0,00 0,00 1.719,20 30/11/2020
222 1081200 ALLANA RODRIGUES DA CRUZ ESTAGIARIO PEDRA AZUL; PEDRA AZUL-PJ-01PJ 0,00 0,00 0,00 81,00 0,00 0,00 0,00 0,00 0,00 30/11/2020
223 349000 ALLEC RODRIGUES VIEIRA OFICIAL DO MP BELO HORIZONTE - COMARCA; EXTINTA-COORD EST DEF DIR FAM PES DEFIC IDOSO 1.100,00 0,00 450,00 0,00 0,00 0,00 0,00 0,00 1.146,06 30/11/2020
224 532400 ALLENDER BARRETO LIMA DA SILVA PROMOTOR 1A ENTRANCIA ABAETÉ - COMARCA; ABAETE-PJ-UNPJ 1.100,00 0,00 746,20 0,00 0,00 0,00 0,00 0,00 0,00 30/11/2020
225 297300 ALLYSON SALIBA MONTEIRO LAIZO ANALISTA DO MP CONSELHEIRO LAFAIETE - COMARCA; CONSELHEIRO LAFAIETE-PJ-03PJ 1.100,00 1.538,78 450,00 0,00 0,00 0,00 0,00 0,00 2.061,65 30/11/2020
226 68900 ALMIR ALVES MOREIRA PROCURADOR DE JUSTICA BELO HORIZONTE - COMARCA; GABINETE DE PROCURADOR DE JUSTIÇA - SALA 1012 1.100,00 0,00 2.451,80 0,00 5.910,37 0,00 0,00 0,00 1.300,28 30/11/2020
227 226601 ALMIR GERALDO GUIMARAES PROMOTOR 2A ENTRANCIA MATEUS LEME - COMARCA; MATEUS LEME-PJ-02PJ 1.100,00 0,00 2.132,00 0,00 5.334,11 0,00 0,00 0,00 1.173,50 30/11/2020
228 303700 ALMIR LOPES LOURES ANALISTA DO MP BELO HORIZONTE - COMARCA; CENTRAL DE APOIO TECN-SETOR DE MEIO AMBIENTE 1.100,00 0,00 450,00 0,00 0,00 0,00 0,00 0,00 2.061,16 30/11/2020
229 440700 ALOISIO CUNHA SOARES JUNIOR PROMOTOR 2A ENTRANCIA PATROCÍNIO - COMARCA; PATROCINIO-PJ-04PJ 1.100,00 0,00 1.918,80 0,00 3.200,47 0,00 0,00 0,00 977,92 30/11/2020
230 90600 ALOISIO RABELO DE REZENDE PROMOT.ENTRANC.ESPECIAL VARGINHA - COMARCA; VARGINHA-PJ-01PJ 1.100,00 0,00 2.665,00 0,00 5.614,85 0,00 0,00 0,00 1.235,26 30/11/2020
231 515900 ALTAIR NEVES JUNIOR OFICIAL DO MP BELO HORIZONTE - COMARCA; BH-01PJ FAZENDA PUBLICA-SECRETARIA 1.100,00 0,00 450,00 0,00 0,00 0,00 0,00 0,00 739,54 30/11/2020
232 290800 ALUISIA BERALDO RIBEIRO PROMOT.ENTRANC.ESPECIAL UBERLÂNDIA - COMARCA; UBERLANDIA-PJ-14PJ 1.100,00 0,00 1.321,84 0,00 3.368,91 0,00 0,00 0,00 1.029,39 30/11/2020
233 233300 ALVARINDO BATISTA ANALISTA DO MP BELO HORIZONTE - COMARCA; NUCLEO APOIO TECNICO ESP COMUNICACAO 1.100,00 769,39 450,00 0,00 0,00 0,00 0,00 0,00 2.239,44 30/11/2020
234 952300 ALVARO EPIFANIO GOMES JUNIOR ESTAGIARIO ITABIRA; ITABIRA-PJ-04PJ 0,00 0,00 0,00 180,00 0,00 0,00 0,00 0,00 0,00 30/11/2020
235 1171700 ALVIM JUNIO DE LIMA ESTAGIARIO BARBACENA; BARBACENA-PJ-02PJ 0,00 0,00 0,00 81,00 0,00 0,00 0,00 0,00 0,00 30/11/2020
236 1165500 ALYCE RAMALHO PRIMO ESTAGIARIO BELO HORIZONTE; PROC. JUSTICA DE HABEAS CORPUS
237 344400 ALYSSON CARDOZO CEMBRANEL PROMOT.ENTRANC.ESPECIAL BELO HORIZONTE - COMARCA; BH-09PJ AUDITORIA MILITAR-GAB 073PJ 1.100,00 0,00 1.556,36 0,00 3.368,91 0,00 0,00 0,00 1.029,39 30/11/2020
238 274100 ALYSSON CARVALHO VIDAL DE LACERDA OFICIAL DO MP MANHUAÇU - COMARCA; MANHUACU-PJ-01PJ 1.100,00 0,00 450,00 0,00 0,00 0,00 0,00 0,00 1.173,03 30/11/2020
239 1176600 AMANDA ANDREA IDENAGA CASTANHEIRA ESTAGIARIO FRUTAL; FRUTAL-PJ-05PJ 0,00 0,00 0,00 144,00 0,00 0,00 0,00 0,00 0,00 30/11/2020
240 621000 AMANDA BASTOS ALVES ANALISTA DO MP BELO HORIZONTE - COMARCA; ASSESS TECNICO-JUR JUNTO AS PROC. DE JUST 1.100,00 0,00 450,00 0,00 0,00 0,00 0,00 0,00 756,45 30/11/2020
241 1041500 AMANDA CALDEIRA DE OLIVEIRA ESTAGIARIO BELO HORIZONTE; SUPERINTENDÊNCIA DE ENGENHARIA E ARQUITETURA 0,00 0,00 0,00 63,00 0,00 0,00 0,00 0,00 0,00 30/11/2020
242 521700 AMANDA CRISTINA AGUIAR MACHADO OFICIAL DO MP CONGONHAS - COMARCA; CONGONHAS-PJ-01PJ 1.100,00 0,00 450,00 0,00 0,00 0,00 0,00 0,00 524,21 30/11/2020
243 1039800 AMANDA CRISTINA ALVES SANTOS ESTAGIARIO JOAO MONLEVADE; JOAO MONLEVADE-PJ-01PJ 0,00 0,00 0,00 189,00 0,00 0,00 0,00 0,00 0,00 30/11/2020
244 1162200 AMANDA CRISTINA DE CASTRO VIANA ESTAGIARIO BELO HORIZONTE; DIV FISCAL ADM CONT TERCEIRIZACAO
245 1086900 AMANDA CRISTINA FERREIRA DE SOUSA ESTAGIARIO VESPASIANO; VESPASIANO-PJ-06PJ 0,00 0,00 0,00 18,00 0,00 0,00 0,00 0,00 0,00 30/11/2020
246 613400 AMANDA DE ASSIS IUNES SANTOS ANALISTA DO MP CONGONHAS - COMARCA; CONGONHAS-PJ-01PJ 1.100,00 0,00 450,00 0,00 0,00 0,00 0,00 0,00 769,38 30/11/2020
247 520800 AMANDA DE SOUZA MACHADO ANALISTA DO MP BAEPENDI - COMARCA; BAEPENDI-PJ-UNPJ 1.100,00 0,00 450,00 0,00 0,00 0,00 0,00 0,00 1.115,04 30/11/2020
248 663900 AMANDA DENISE GONCALVES DA SILVA ASSESSOR BELO HORIZONTE - COMARCA; DIRET DE FORMACAO, APERFEIC. E POS-GRADUACAO 1.100,00 0,00 450,00 0,00 0,00 0,00 0,00 0,00 173,28 30/11/2020
249 1095700 AMANDA DOS SANTOS FERREIRA ESTAGIARIO MONTES CLAROS; MONTES CLAROS-PJ-14PJ 0,00 0,00 0,00 189,00 0,00 0,00 0,00 0,00 0,00 30/11/2020
250 928600 AMANDA DUTRA DE REZENDE ANTUNES ESTAGIARIO BELO HORIZONTE; BH-01PJ FAZENDA PUBLICA-GAB 008PJ
251 1086600 AMANDA EMERICK DA SILVA ESTAGIARIO MANHUMIRIM; MANHUMIRIM-PJ-01PJ 0,00 0,00 0,00 153,00 0,00 0,00 0,00 0,00 0,00 30/11/2020
252 1183300 AMANDA GABRIELA GONCALVES DE MIRANDA ESTAGIARIO BELO HORIZONTE; BH-02PJ FAMILIA 0,00 0,00 0,00 72,00 0,00 0,00 0,00 0,00 0,00 30/11/2020
253 1153000 AMANDA GIL DE SOUZA ESTAGIARIO MONTES CLAROS; MONTES CLAROS-PJ-09PJ 0,00 0,00 0,00 126,00 0,00 0,00 0,00 0,00 0,00 30/11/2020
254 1027600 AMANDA GOMES BARBOSA ESTAGIARIO VARGINHA; VARGINHA-PJ-06PJ 0,00 0,00 0,00 189,00 0,00 0,00 0,00 0,00 0,00 30/11/2020
255 1059400 AMANDA GONTIJO DE LACERDA ESTAGIARIO PATOS DE MINAS; PATOS DE MINAS-PJ-06PJ 0,00 0,00 0,00 180,00 0,00 0,00 0,00 0,00 0,00 30/11/2020
256 677000 AMANDA LETICIA MESSIAS PEGO ASSESSOR PROMOTOR JUSTICA SÃO JOÃO DA PONTE - COMARCA; SAO JOAO DA PONTE-PJ-SECRETARIA 1.100,00 0,00 450,00 0,00 0,00 0,00 0,00 0,00 0,00 30/11/2020
257 1166600 AMANDA LUIZA NUNES SOARES ESTAGIARIO BELO HORIZONTE; BH-18PJ VIOLENCIA DOMESTICA-GAB 053PJ 0,00 0,00 0,00 144,00 0,00 0,00 0,00 0,00 0,00 30/11/2020
258 1014500 AMANDA MACHADO SOUZA ESTAGIARIO PASSOS; PASSOS-PJ-06PJ 0,00 0,00 0,00 108,00 0,00 0,00 0,00 0,00 0,00 30/11/2020
259 1014600 AMANDA MAGALHAES DE CARVALHO E SILVA ESTAGIARIO BELO HORIZONTE; PROC. JUSTICA CIVEL
260 937900 AMANDA MARIA THOMAZ DE LIMA ESTAGIARIO SETE LAGOAS; SETE LAGOAS-PJ-10PJ 0,00 0,00 0,00 126,00 0,00 0,00 0,00 0,00 0,00 30/11/2020
261 666000 AMANDA MERLINI DUTRA OSIPE PROMOTOR SUBSTITUTO CATAGUASES - COMARCA; CATAGUASES-PJ-01PJ 1.100,00 0,00 1.407,12 0,00 5.067,40 0,00 0,00 0,00 1.114,83 30/11/2020
262 1157400 AMANDA MIQUELINO RIBEIRO ESTAGIARIO UBERABA; UBERABA-PJ-13PJ 0,00 0,00 0,00 45,00 0,00 0,00 0,00 0,00 0,00 30/11/2020
263 1076900 AMANDA PEREIRA MACEDO ESTAGIARIO UBERLANDIA; UBERLANDIA-PJ-07PJ 0,00 0,00 0,00 81,00 0,00 0,00 0,00 0,00 0,00 30/11/2020
264 1093100 AMANDA REGINA DE ALMEIDA E SILVA ESTAGIARIO JUIZ DE FORA; JUIZ DE FORA-PJ-02PJ
265 964800 AMANDA REIS DA SILVA ESTAGIARIO BELO HORIZONTE; BH-19PJ SAUDE-SECRETARIA 129PJ 0,00 0,00 0,00 36,00 923,83 0,00 0,00 0,00 0,00 30/11/2020
266 1071000 AMANDA SALIS LOTT ESTAGIARIO BELO HORIZONTE; BH-15PJ M AMB PAT HIST CULT-GAB 115PJ 0,00 0,00 0,00 90,00 0,00 0,00 0,00 0,00 0,00 30/11/2020
267 1100000 AMANDA SANTOS DIAS ESTAGIARIO ERVALIA; ERVALIA-PJ-UNPJ 0,00 0,00 0,00 171,00 0,00 0,00 0,00 0,00 0,00 30/11/2020
268 932700 AMANDA SILVA MAMEDE ESTAGIARIO UBERLANDIA; UBERLANDIA-PJ-10PJ 0,00 0,00 0,00 9,00 543,00 0,00 0,00 0,00 0,00 30/11/2020
269 951000 AMANDA TEIXEIRA IZIDORIO ESTAGIARIO RIO CASCA; RIO CASCA-PJ-UNPJ 0,00 0,00 0,00 135,00 0,00 0,00 0,00 0,00 0,00 30/11/2020
270 543100 AMANDA VIEIRA FREITAS BRESSANE ANALISTA DO MP VARGINHA - COMARCA; COORD REG DEF ORDEM ECON TRIB VARGINHA 1.100,00 0,00 450,00 0,00 0,00 0,00 0,00 0,00 813,66 30/11/2020
271 1024900 AMANDA XAVIER DA COSTA ESTAGIARIO JEQUERI; JEQUERI-PJ-UNPJ 0,00 0,00 0,00 189,00 0,00 0,00 0,00 0,00 0,00 30/11/2020
272 656701 AMARILDO ODILON REZENDE DE AGUIAR INVESTIGADOR DE POLICIA 2 BELO HORIZONTE - COMARCA; CAO-ORDEM ECONOMICA E TRIBUTARIA 1.100,00 0,00 0,00 0,00 0,00 0,00 0,00 0,00 0,00 30/11/2020
273 434400 AMARILIS ASSIS SIMAO CURCIO ANALISTA DO MP MANHUAÇU - COMARCA; MANHUACU-PJ-SECRETARIA 1.100,00 0,00 450,00 0,00 0,00 0,00 0,00 0,00 1.028,92 30/11/2020
274 74200 AMAURI ARTIMOS DA MATTA PROCURADOR DE JUSTICA BELO HORIZONTE - COMARCA; PROCON-MG 1.100,00 0,00 2.345,20 0,00 6.619,62 0,00 0,00 0,00 2.213,92 30/11/2020
275 652000 AMAURI SILVA ALVES OFICIAL DO MP BELO HORIZONTE - COMARCA; BH-23PJ INFRACIONAL-SEC EXP 1.100,00 0,00 450,00 0,00 0,00 0,00 0,00 0,00 598,98 30/11/2020
276 273700 AMBROLINA CARNEIRO DE VASCONCELOS OFICIAL DO MP FRUTAL - COMARCA; FRUTAL-PJ-01PJ 1.100,00 0,00 450,00 0,00 0,00 0,00 0,00 0,00 1.781,99 30/11/2020
277 58000 AMELIA GUARIZE DE CASTRO OFICIAL DO MP JUIZ DE FORA - COMARCA; JUIZ DE FORA-PJ-SECRETARIA 1.100,00 0,00 450,00 0,00 0,00 0,00 0,00 0,00 1.271,21 30/11/2020
278 324301 AMERICA SUELI FERREIRA DA SILVA ANALISTA DO MP MONTE CARMELO - COMARCA; MONTE CARMELO-PJ-02PJ 1.100,00 769,39 450,00 0,00 0,00 0,00 0,00 0,00 1.110,14 30/11/2020
279 273300 AMUJACY DE BRITO ASSIZ OFICIAL DO MP BELO HORIZONTE - COMARCA; BH-12PJ JUIZO CRIMINAL-SECRETARIA 1.100,00 0,00 450,00 0,00 0,00 0,00 0,00 0,00 1.232,43 30/11/2020
280 482200 ANA ALICE LOPES ACHTSCHIN ANALISTA DO MP BELO HORIZONTE - COMARCA; PROC JUST RECURSOS ESP E EXTRAORD CRIMINAIS 1.100,00 0,00 450,00 0,00 0,00 0,00 0,00 0,00 1.131,14 30/11/2020
281 490400 ANA AMELIA PAULINO GARCIA OFICIAL DO MP CONTAGEM - COMARCA; CONTAGEM-PJ-SECRETARIA 1.100,00 0,00 450,00 0,00 0,00 0,00 0,00 0,00 678,17 30/11/2020
282 690400 ANA ANGELICA MOREIRA DA CUNHA ASSESSOR PROMOTOR JUSTICA TIMÓTEO - COMARCA; TIMOTEO-PJ-02PJ 1.100,00 0,00 450,00 0,00 0,00 0,00 0,00 0,00 0,00 30/11/2020
283 671300 ANA BARBARA CANEDO OLIVEIRA PROMOTOR 2A ENTRANCIA PARACATU - COMARCA; PARACATU-PJ-02PJ 1.100,00 0,00 703,56 0,00 0,00 0,00 0,00 0,00 0,00 30/11/2020
284 1128400 ANA BEATRIZ DE MELO FERNANDES ESTAGIARIO MESQUITA; MESQUITA-PJ-UNPJ 0,00 0,00 0,00 135,00 0,00 0,00 0,00 0,00 0,00 30/11/2020
285 1126700 ANA BEATRIZ DE SOUZA ARCANJO BASTOS ESTAGIARIO JOAO MONLEVADE; JOAO MONLEVADE-PJ-02PJ 0,00 0,00 0,00 189,00 0,00 0,00 0,00 0,00 0,00 30/11/2020
286 1161500 ANA BEATRIZ DIAS DE AZEVEDO ESTAGIARIO POUSO ALEGRE; POUSO ALEGRE-PJ-06PJ 0,00 0,00 0,00 72,00 0,00 0,00 0,00 0,00 0,00 30/11/2020
287 1018500 ANA BEATRIZ NAVES REIS ESTAGIARIO TRES CORACOES; TRES CORACOES-PJ-05PJ 0,00 0,00 0,00 9,00 1.124,67 0,00 0,00 0,00 0,00 30/11/2020
288 959600 ANA CARLA RODRIGUES DE SOUZA ESTAGIARIO AIURUOCA; AIURUOCA-PJ-UNPJ 0,00 0,00 0,00 153,00 0,00 0,00 0,00 0,00 0,00 30/11/2020
289 1147800 ANA CAROLINA AFONSO OMENA ESTAGIARIO ITUIUTABA; ITUIUTABA-PJ-02PJ 0,00 0,00 0,00 180,00 0,00 0,00 0,00 0,00 0,00 30/11/2020
290 279100 ANA CAROLINA ARAUJO PEREIRA ANALISTA DO MP BELO HORIZONTE - COMARCA; DIRETORIA DE PROJETOS DE EDIFICACOES 1.100,00 0,00 450,00 0,00 0,00 0,00 0,00 0,00 1.884,55 30/11/2020
291 954400 ANA CAROLINA BATISTA PEREIRA ESTAGIARIO PATOS DE MINAS; PATOS DE MINAS-PJ-01PJ 0,00 0,00 0,00 189,00 0,00 0,00 0,00 0,00 0,00 30/11/2020
292 653300 ANA CAROLINA CYRNE DINIZ ASSESSOR BELO HORIZONTE - COMARCA; CENTRAL DE APOIO TECNICO-SETOR CONTABIL 1.100,00 0,00 450,00 0,00 0,00 0,00 0,00 0,00 722,20 30/11/2020
293 1165800 ANA CAROLINA DA COSTA ESTAGIARIO SAO JOAO EVANGELISTA; SAO JOAO EVANGELISTA-PJ-UNPJ 0,00 0,00 0,00 180,00 0,00 0,00 0,00 0,00 0,00 30/11/2020
294 1076100 ANA CAROLINA DALDEGAN COUTINHO ESTAGIARIO BELO HORIZONTE; GABINETE DE PROCURADOR DE JUSTIÇA - SALA 804 0,00 0,00 0,00 36,00 0,00 0,00 0,00 0,00 0,00 30/11/2020
295 359400 ANA CAROLINA DE ABREU FARIA ASSESSOR BELO HORIZONTE - COMARCA; SUPERINTENDÊNCIA DE ENGENHARIA E ARQUITETURA -1.100,00 0,00 450,00 0,00 0,00 0,00 0,00 0,00 895,65 30/11/2020
296 408500 ANA CAROLINA DE CASTRO CARVALHO ANALISTA DO MP BARBACENA - COMARCA; BARBACENA - SECRETARIA DAS PJS CRIMINAIS 1.100,00 0,00 450,00 0,00 0,00 0,00 0,00 0,00 1.922,03 30/11/2020
297 1032200 ANA CAROLINA DE MEDEIROS CHAVES FERZEM TAVARES ESTAGIARIO BELO HORIZONTE; OUVIDORIA DO MPMG
298 688000 ANA CAROLINA DE OLIVEIRA PINTO ASSESSOR PROCURADOR JUSTICA BELO HORIZONTE - COMARCA; GABINETE DE PROCURADOR DE JUSTIÇA - SALA 1014 1.100,00 0,00 450,00 0,00 0,00 0,00 0,00 0,00 0,00 30/11/2020
299 598900 ANA CAROLINA DUARTE DA SILVA INVESTIGADOR DE POLICIA 2 BELO HORIZONTE - COMARCA; PROC JUST ESP ACOES COMP ORIG CRIMINAL-SEC 1.100,00 0,00 0,00 0,00 0,00 0,00 0,00 0,00 0,00 30/11/2020
300 420200 ANA CAROLINA FERNANDES SILVA ANALISTA DO MP BELO HORIZONTE - COMARCA; GABINETE DE PROCURADOR DE JUSTIÇA - SALA 704 1.100,00 0,00 450,00 0,00 0,00 0,00 0,00 0,00 1.180,17 30/11/2020
301 522100 ANA CAROLINA FERNANDINO VIDAL PEREIRA SANTOS OFICIAL DO MP BELO HORIZONTE - COMARCA; SECRETARIA DO PROCON-MG 1.100,00 0,00 450,00 0,00 0,00 0,00 0,00 0,00 646,33 30/11/2020
302 244700 ANA CAROLINA GARCIA COSTA PROMOT.ENTRANC.ESPECIAL BELO HORIZONTE - COMARCA; BH-23PJ INFRACIONAL-GAB 147PJ 1.100,00 0,00 2.686,32 0,00 10.106,73 0,00 0,00 0,00 1.235,26 30/11/2020
303 502400 ANA CAROLINA GONCALVES FERNANDES ANALISTA DO MP IPATINGA - COMARCA; IPATINGA-PJ-01PJ 1.100,00 769,39 450,00 0,00 0,00 0,00 0,00 0,00 1.139,71 30/11/2020
304 529900 ANA CAROLINA GONCALVES PECANHA CHEQUER ANALISTA DO MP MANHUAÇU - COMARCA; MANHUACU-PJ-04PJ 1.100,00 1.538,78 450,00 0,00 0,00 0,00 0,00 0,00 811,23 30/11/2020
305 1193100 ANA CAROLINA JANUARIO SILVA ESTAGIARIO BELO HORIZONTE; BH-18PJ VIOLENCIA DOMESTICA 0,00 0,00 0,00 54,00 0,00 0,00 0,00 0,00 0,00 30/11/2020
306 1106000 ANA CAROLINA LEITE CHAVES ESTAGIARIO BELO HORIZONTE; BH-18PJ DIREITOS HUMANOS-SECRETARIA 0,00 0,00 0,00 18,00 0,00 0,00 0,00 0,00 0,00 30/11/2020
307 957300 ANA CAROLINA MARTINS DA SILVA ESTAGIARIO UBERLANDIA; UBERLANDIA-PJ-18PJ 0,00 0,00 0,00 180,00 0,00 0,00 0,00 0,00 0,00 30/11/2020
308 1137800 ANA CAROLINA MIRANDA DE MEIRELES MOUTINHO ESTAGIARIO SETE LAGOAS; SETE LAGOAS-PJ-05PJ 0,00 0,00 0,00 189,00 0,00 0,00 0,00 0,00 0,00 30/11/2020
309 431900 ANA CAROLINA MOTTA GUATIMOSIM ANALISTA DO MP BELO HORIZONTE - COMARCA; ASSESSORIA JURIDICO-ADMINISTRATIVA 1.100,00 769,39 450,00 0,00 0,00 0,00 0,00 0,00 1.157,82 30/11/2020
310 969900 ANA CAROLINA SILVA CAMPOS ESTAGIARIO 0,00 0,00 0,00 99,00 0,00 0,00 0,00 0,00 0,00 30/11/2020
311 1043500 ANA CAROLINA SILVEIRA PASSOS ESTAGIARIO DIAMANTINA; COORD REG BACIAS RIOS JEQUITINHONHA E MUCURI 0,00 0,00 0,00 126,00 0,00 0,00 0,00 0,00 0,00 30/11/2020
312 1111200 ANA CAROLINA SOARES CUNHA ESTAGIARIO SETE LAGOAS; SETE LAGOAS-PJ-09PJ 0,00 0,00 0,00 99,00 0,00 0,00 0,00 0,00 0,00 30/11/2020
313 490600 ANA CAROLINA XAVIER GODOY ANALISTA DO MP BELO HORIZONTE - COMARCA; GABINETE DE PROCURADOR DE JUSTIÇA - SALA 1006 1.100,00 1.538,78 450,00 0,00 0,00 0,00 0,00 0,00 1.123,47 30/11/2020
314 313700 ANA CAROLINA ZAMBOM PINTO COELHO PROMOTOR 2A ENTRANCIA SABARÁ - COMARCA; SABARA-PJ-01PJ 1.100,00 0,00 1.279,20 0,00 3.200,47 0,00 0,00 0,00 977,92 30/11/2020
315 1188000 ANA CAROLINE DA CRUZ SILVA ESTAGIARIO CURVELO; CURVELO-PJ-04PJ 0,00 0,00 0,00 189,00 0,00 0,00 0,00 0,00 0,00 30/11/2020
316 1120600 ANA CAROLINE DE CASSIA COSTA ESTAGIARIO JOAO MONLEVADE; JOAO MONLEVADE-PJ-03PJ 0,00 0,00 0,00 189,00 0,00 0,00 0,00 0,00 0,00 30/11/2020
317 1142100 ANA CAROLINE FERRAZ CHAIB ESTAGIARIO CONCEICAO DO RIO VERDE; CONCEICAO DO RIO VERDE-PJ-UNPJ 0,00 0,00 0,00 189,00 0,00 0,00 0,00 0,00 0,00 30/11/2020
318 1074500 ANA CAROLINE MONTEIRO DE BARROS ESTAGIARIO IPATINGA; IPATINGA-PJ-10PJ 0,00 0,00 0,00 189,00 0,00 0,00 0,00 0,00 0,00 30/11/2020
319 600300 ANA CAROLINE PEREIRA DINIZ ANALISTA DO MP BELO HORIZONTE - COMARCA; PROC JUST ESP ACOES COMP ORIG CRIMINAL-SEC 1.100,00 769,39 450,00 0,00 0,00 0,00 0,00 0,00 935,26 30/11/2020
320 615800 ANA CAROLINE PEREIRA OLIVEIRA OFICIAL DO MP ALFENAS - COMARCA; ALFENAS-PJ-06PJ 1.100,00 0,00 450,00 0,00 0,00 0,00 0,00 0,00 559,96 30/11/2020
321 229202 ANA CECILIA JUNQUEIRA GOUVEA PROMOT.ENTRANC.ESPECIAL RIBEIRÃO DAS NEVES - COMARCA; RIBEIRAO DAS NEVES-PJ-08PJ 1.100,00 0,00 2.025,40 0,00 3.368,91 0,00 0,00 0,00 1.029,39 30/11/2020
322 980200 ANA CECILIA MACHADO FELIPE ESTAGIARIO GOVERNADOR VALADARES; GOVERNADOR VALADARES-PJ-02PJ 0,00 0,00 0,00 72,00 0,00 0,00 0,00 0,00 0,00 30/11/2020
323 324800 ANA CECILIA MENDES DA SILVA OFICIAL DO MP OURO FINO - COMARCA; OURO FINO-PJ-01PJ 1.100,00 0,00 450,00 0,00 0,00 0,00 0,00 0,00 1.112,55 30/11/2020
324 1162800 ANA CLARA BARBI LIMA ESTAGIARIO BELO HORIZONTE; PROC. JUSTICA CRIMINAL 0,00 0,00 0,00 117,00 0,00 0,00 0,00 0,00 0,00 30/11/2020
325 1178000 ANA CLARA CORDEIRO DUARTE NUNES ESTAGIARIO NOVA LIMA; NOVA LIMA-PJ-04PJ 0,00 0,00 0,00 162,00 0,00 0,00 0,00 0,00 0,00 30/11/2020
326 1092000 ANA CLARA DE SOUZA ESTAGIARIO BELO HORIZONTE; PROC. JUSTICA CIVEL
327 1154400 ANA CLARA DE SOUZA II ESTAGIARIO ARAXA; ARAXA-PJ-03PJ 0,00 0,00 0,00 90,00 0,00 0,00 0,00 0,00 0,00 30/11/2020
328 1045800 ANA CLARA GRECO VILLANI MARQUES ESTAGIARIO BELO HORIZONTE; PROC. JUSTICA CRIMINAL
329 1165900 ANA CLARA PORTO REIS ESTAGIARIO PATROCINIO; PATROCINIO-PJ-01PJ 0,00 0,00 0,00 153,00 0,00 0,00 0,00 0,00 0,00 30/11/2020
330 1199400 ANA CLARA RIBEIRO GONCALVES ESTAGIARIO BELO HORIZONTE; ASSESSORIA DE COMUNICACAO INTEGRADA
331 1062800 ANA CLARA SANTOS ALMEIDA ESTAGIARIO SABINOPOLIS; SABINOPOLIS-PJ-UNPJ 0,00 0,00 0,00 126,00 0,00 0,00 0,00 0,00 0,00 30/11/2020
332 441300 ANA CLAUDIA ALKIMIM MIRANDA BOMTEMPO ANALISTA DO MP MONTES CLAROS - COMARCA; MONTES CLAROS-PJ-11PJ 1.100,00 0,00 450,00 0,00 5.443,76 0,00 0,00 0,00 1.644,15 30/11/2020
333 1068500 ANA CLAUDIA ALVES MACHADO ESTAGIARIO ITAUNA; ITAUNA-PJ-01PJ
334 1156600 ANA CLAUDIA ALVIM SANTOS BERTOLI ESTAGIARIO JANAUBA; JANAUBA-PJ-01PJ 0,00 0,00 0,00 144,00 0,00 0,00 0,00 0,00 0,00 30/11/2020
335 642500 ANA CLAUDIA DA COSTA NAVES OFICIAL DO MP MONTE CARMELO - COMARCA; MONTE CARMELO-PJ-02PJ 1.100,00 769,39 450,00 0,00 0,00 0,00 0,00 0,00 383,36 30/11/2020
336 1149600 ANA CLAUDIA DE ALMEIDA FERREIRA ESTAGIARIO POCO FUNDO; POCO FUNDO-PJ-UNPJ 0,00 0,00 0,00 189,00 0,00 0,00 0,00 0,00 0,00 30/11/2020
337 1028100 ANA CLAUDIA FERNANDES MENDES ESTAGIARIO BRUMADINHO; BRUMADINHO-PJ-02PJ 0,00 0,00 0,00 189,00 0,00 0,00 0,00 0,00 0,00 30/11/2020
338 1166700 ANA CLAUDIA FERREIRA DA SILVA ESTAGIARIO BELO HORIZONTE; BH-16PJ HABITACAO URBANISMO-GAB 117PJ 0,00 0,00 0,00 81,00 0,00 0,00 0,00 0,00 0,00 30/11/2020
339 1110600 ANA CLAUDIA JUSTINO SILVA ESTAGIARIO IBIRITE; IBIRITE-PJ-02PJ 0,00 0,00 0,00 108,00 0,00 0,00 0,00 0,00 0,00 30/11/2020
340 341500 ANA CLAUDIA LOPES PROMOT.ENTRANC.ESPECIAL BELO HORIZONTE - COMARCA; BH-07PJ 01 TRIBUNAL DO JURI-GAB 077PJ 1.100,00 0,00 2.235,44 0,00 4.491,88 0,00 0,00 0,00 1.029,39 30/11/2020
341 604900 ANA CLAUDIA OLIVEIRA DE MIRANDA OFICIAL DO MP PONTE NOVA - COMARCA; PONTE NOVA-PJ-04PJ 1.100,00 0,00 450,00 0,00 0,00 0,00 0,00 0,00 505,79 30/11/2020
342 1131000 ANA CLAUDIA OLIVEIRA PEREIRA ESTAGIARIO BELO HORIZONTE; PROMOT ESTADUAL DE DEF PATRI CULT E TUR DE MG 0,00 0,00 0,00 18,00 0,00 0,00 0,00 0,00 0,00 30/11/2020
343 1085500 ANA CLERIA DE OLIVEIRA SOUZA ESTAGIARIO GOVERNADOR VALADARES; GOVERNADOR VALADARES-PJ-13PJ 0,00 0,00 0,00 189,00 0,00 0,00 0,00 0,00 0,00 30/11/2020
344 379300 ANA CRISTINA ALVES FLAVIO ANALISTA DO MP SÃO GOTARDO - COMARCA; SAO GOTARDO-PJ-01PJ 1.100,00 769,39 450,00 0,00 0,00 0,00 0,00 0,00 1.445,81 30/11/2020
345 461200 ANA CRISTINA ALVES PASCHOAL ANALISTA DO MP SANTA LUZIA - COMARCA; SANTA LUZIA-PJ-03PJ 1.100,00 0,00 450,00 0,00 0,00 0,00 0,00 0,00 959,56 30/11/2020
346 514100 ANA CRISTINA ARAUJO ASSUNCAO ANALISTA DO MP BELO HORIZONTE - COMARCA; ASSESS JUR DO CONS SUPERIOR DO MINISTERIO PUB 1.100,00 769,39 450,00 0,00 0,00 0,00 0,00 0,00 1.148,45 30/11/2020
347 113400 ANA CRISTINA BRAGA ALBUQUERQUE ASSESSOR/ANALISTA BELO HORIZONTE - COMARCA; ASSESS ESP ADM E FINANCEIRA DO PGJ ADJ ADM 1.100,00 0,00 450,00 0,00 0,00 0,00 0,00 0,00 0,00 30/11/2020
348 233800 ANA CRISTINA BRAGA SOARES OFICIAL DO MP CONTAGEM - COMARCA; CONTAGEM-PJ-SECRETARIA 1.100,00 0,00 450,00 0,00 0,00 0,00 0,00 0,00 1.204,39 30/11/2020
349 186400 ANA CRISTINA DE AZEVEDO LOPES OFICIAL DO MP UBÁ - COMARCA; UBA-PJ-01PJ 1.100,00 0,00 450,00 0,00 0,00 0,00 0,00 0,00 1.835,99 30/11/2020
350 693000 ANA CRISTINA DE MELO SILVEIRA ASSESSOR PROCURADOR JUSTICA BELO HORIZONTE - COMARCA; PROCURADORIA-GERAL DE JUSTICA 1.100,00 0,00 450,00 0,00 0,00 0,00 0,00 0,00 0,00 30/11/2020
351 465100 ANA CRISTINA DE OLIVEIRA GUIMARAES ANALISTA DO MP ITAJUBA - COMARCA; ITAJUBA-PJ-05PJ 1.100,00 1.538,78 450,00 0,00 0,00 0,00 0,00 0,00 1.108,05 30/11/2020
352 1121200 ANA CRISTINA HENRIQUES ALVES ESTAGIARIO IGARAPE; IGARAPE-PJ-04PJ 0,00 0,00 0,00 117,00 0,00 0,00 0,00 0,00 0,00 30/11/2020
353 500600 ANA CRISTINA LATADO SUDARIO ANALISTA DO MP UBERLÂNDIA - COMARCA; UBERLANDIA-PJ-09PJ 1.100,00 0,00 450,00 0,00 0,00 0,00 0,00 0,00 1.079,97 30/11/2020
354 331400 ANA CRISTINA RIBEIRO ALVES OFICIAL DO MP BAMBUÍ - COMARCA; BAMBUI-PJ-UNPJ 1.100,00 0,00 450,00 0,00 0,00 0,00 0,00 0,00 1.673,44 30/11/2020
355 1021500 ANA CRISTINA SILVEIRA BATISTA ESTAGIARIO CONTAGEM; CONTAGEM-PJ-23PJ 0,00 0,00 0,00 27,00 0,00 0,00 0,00 0,00 0,00 30/11/2020
356 249300 ANA ELOINA MARTINS OFICIAL DO MP BETIM - COMARCA; BETIM-PJ-02PJ 1.100,00 0,00 450,00 0,00 0,00 0,00 0,00 0,00 1.587,08 30/11/2020
357 611500 ANA FLAVIA AFONSO DRUMOND AMORIM PROMOTOR 2A ENTRANCIA PIRAPORA - COMARCA; PIRAPORA-PJ-02PJ 1.100,00 0,00 0,00 0,00 0,00 0,00 0,00 0,00 0,00 30/11/2020
358 257400 ANA FLAVIA CAMBRAIA ANALISTA DO MP BELO HORIZONTE - COMARCA; BH-19PJ SAUDE-SECRETARIA 150PJ 1.100,00 0,00 450,00 0,00 10,60 0,00 0,00 0,00 2.100,56 30/11/2020
359 1066000 ANA FLAVIA CARDOSO DE ABREU ESTAGIARIO BELO HORIZONTE; CENTRAL DE APOIO TECNICO-SETOR CONTABIL
360 248201 ANA FLAVIA DE MORAIS SOUZA ANALISTA DO MP DIVINÓPOLIS - COMARCA; DIVINOPOLIS-PJ-01PJ 1.100,00 769,39 450,00 0,00 0,00 0,00 0,00 0,00 1.302,97 30/11/2020
361 887100 ANA FLAVIA DE PAULA SADDI TAVORA ESTAGIARIO UBERLANDIA; UBERLANDIA-PJ-01PJ 0,00 0,00 0,00 135,00 1.164,83 0,00 0,00 0,00 0,00 30/11/2020
362 621100 ANA FLAVIA DINIZ TEODORO OFICIAL DO MP SANTA LUZIA - COMARCA; SANTA LUZIA-PJ-06PJ 1.100,00 0,00 450,00 0,00 0,00 0,00 0,00 0,00 499,95 30/11/2020
363 1137900 ANA FLAVIA FIGUEIREDO SALOMAO ESTAGIARIO TEOFILO OTONI; TEOFILO OTONI-PJ-08PJ 0,00 0,00 0,00 180,00 0,00 0,00 0,00 0,00 0,00 30/11/2020
364 238600 ANA FLAVIA FRANCO OFICIAL DO MP BELO HORIZONTE - COMARCA; DIRETORIA DE PESSOAL ADMINISTRATIVO - DPAD 1.100,00 0,00 450,00 0,00 0,00 0,00 0,00 0,00 1.626,20 30/11/2020
365 1123700 ANA FLAVIA GRACIELE GUIMARAES PAIVA ESTAGIARIO SANTA LUZIA; SANTA LUZIA-PJ-01PJ 0,00 0,00 0,00 72,00 0,00 0,00 0,00 0,00 0,00 30/11/2020
366 690000 ANA FLAVIA LURIAN DE PAIVA ASSESSOR PROCURADOR JUSTICA BELO HORIZONTE - COMARCA; GABINETE DE PROCURADOR DE JUSTIÇA - SALA 609 1.100,00 0,00 450,00 0,00 0,00 0,00 0,00 0,00 0,00 30/11/2020
367 1032100 ANA FLAVIA PEREIRA ESTAGIARIO BELO HORIZONTE; PROC JUST RECURSOS ESP E EXTRAORD CRIMINAIS 0,00 0,00 0,00 63,00 0,00 0,00 0,00 0,00 0,00 30/11/2020
368 402900 ANA FLAVIA PORTES DE CARVALHO ANALISTA DO MP BELO HORIZONTE - COMARCA; DIRET DE PLANOS PROJETOS E PROGRAMAS INST 1.100,00 0,00 450,00 0,00 0,00 0,00 0,00 0,00 1.509,16 30/11/2020
369 1023800 ANA FLAVIA RIBEIRO PEREIRA ESTAGIARIO CURVELO; CURVELO-PJ-02PJ 0,00 0,00 0,00 189,00 0,00 0,00 0,00 0,00 0,00 30/11/2020
370 1070200 ANA FLAVIA VALLADAO FERREIRA ESTAGIARIO BELO HORIZONTE; PROCURADORIA DE JUSTIÇA DE DIREITOS DIFUSOS E 0,00 0,00 0,00 63,00 0,00 0,00 0,00 0,00 0,00 30/11/2020
371 526300 ANA GABRIELA BRITO MELO ROCHA PROMOTOR 2A ENTRANCIA TRÊS PONTAS - COMARCA; TRES PONTAS-PJ-03PJ 1.100,00 0,00 1.492,40 0,00 3.200,47 0,00 0,00 0,00 977,92 30/11/2020
372 1195300 ANA HELOISA MARQUES OLIVEIRA CARNEIRO ESTAGIARIO BELO HORIZONTE; BH-18PJ DIREITOS HUMANOS-GAB 125PJ 0,00 0,00 0,00 81,00 0,00 0,00 0,00 0,00 0,00 30/11/2020
373 927500 ANA JESSICA SILVA ESTAGIARIO UBERABA; UBERABA-PJ-15PJ 0,00 0,00 0,00 36,00 0,00 0,00 0,00 0,00 0,00 30/11/2020
374 1172400 ANA JULIA DE VILHENA ESTAGIARIO IBIRACI; IBIRACI-PJ-UNPJ 0,00 0,00 0,00 189,00 0,00 0,00 0,00 0,00 0,00 30/11/2020
375 1135300 ANA JULIA DIXINI CARVALHO ESTAGIARIO TRES PONTAS; TRES PONTAS-PJ-03PJ 0,00 0,00 0,00 126,00 0,00 0,00 0,00 0,00 0,00 30/11/2020
376 382700 ANA KARENINA SALDANHA GONTIJO ANALISTA DO MP BELO HORIZONTE - COMARCA; ASSESS TECNICO-JUR JUNTO AS PROC. DE JUST 1.100,00 769,39 450,00 0,00 0,00 0,00 0,00 0,00 1.358,09 30/11/2020
377 620500 ANA KARINE DE ANDRADE OLIVEIRA ANALISTA DO MP RIBEIRÃO DAS NEVES - COMARCA; SEC PJ EXECUCAO PENAL RIBEIRAO NEVES 1.100,00 0,00 450,00 0,00 0,00 0,00 0,00 0,00 729,04 30/11/2020
378 1088800 ANA KAROLINE DOS SANTOS ESTAGIARIO JANAUBA; JANAUBA-PJ-03PJ 0,00 0,00 0,00 171,00 0,00 0,00 0,00 0,00 0,00 30/11/2020
379 952400 ANA LARA PEREIRA DAMACENO ESTAGIARIO 0,00 0,00 0,00 153,00 0,00 0,00 0,00 0,00 0,00 30/11/2020
380 1103900 ANA LAURA DE FARIA LIMA ESTAGIARIO PARA DE MINAS; PARA DE MINAS-PJ-04PJ 0,00 0,00 0,00 180,00 0,00 0,00 0,00 0,00 0,00 30/11/2020
381 970300 ANA LAURA DRUMOND ESTAGIARIO BELO HORIZONTE; PROC. JUSTICA DIR. DIFUSOS E COLETIVOS 0,00 0,00 0,00 18,00 0,00 0,00 0,00 0,00 0,00 30/11/2020
382 1055000 ANA LAURA FREITAS MARTINS ESTAGIARIO SETE LAGOAS; SETE LAGOAS-PJ-01PJ 0,00 0,00 0,00 117,00 0,00 0,00 0,00 0,00 0,00 30/11/2020
383 994400 ANA LAURA NEVES CERQUEIRA ESTAGIARIO BELO HORIZONTE; BH-12PJ JUIZO CRIMINAL-GAB 108PJ 0,00 0,00 0,00 180,00 0,00 0,00 0,00 0,00 0,00 30/11/2020
384 1174700 ANA LAURA PEREIRA DIAS ESTAGIARIO DIAMANTINA; DIAMANTINA-PJ-01PJ 0,00 0,00 0,00 117,00 0,00 0,00 0,00 0,00 0,00 30/11/2020
385 57400 ANA LEIA SALOMAO E RIBEIRO PROMOT.ENTRANC.ESPECIAL JUIZ DE FORA - COMARCA; JUIZ DE FORA-PJ-02PJ 1.100,00 0,00 1.279,20 0,00 5.614,85 0,00 0,00 0,00 1.235,26 30/11/2020
386 224300 ANA LETICIA MARTINS DE SOUZA PROMOT.ENTRANC.ESPECIAL CONTAGEM - COMARCA; CONTAGEM-PJ-13PJ 1.100,00 0,00 0,00 0,00 0,00 0,00 0,00 0,00 0,00 30/11/2020
387 1034000 ANA LIVIA DE FREITAS SILVA ESTAGIARIO PARAOPEBA; PARAOPEBA-PJ-UNPJ 0,00 0,00 0,00 180,00 0,00 0,00 0,00 0,00 0,00 30/11/2020
388 1174300 ANA LIVIA GOMES VIEIRA ESTAGIARIO BELO HORIZONTE; BH-23PJ CIVEL 0,00 0,00 0,00 63,00 0,00 0,00 0,00 0,00 0,00 30/11/2020
389 462200 ANA LUCIA ANDRADE TOMICH OTTONI ANALISTA DO MP TEÓFILO OTONI - COMARCA; TEOFILO OTONI-PJ-07PJ 1.100,00 0,00 450,00 0,00 0,00 0,00 0,00 0,00 958,38 30/11/2020
390 504100 ANA LUCIA CATAO DE CARVALHO OFICIAL DO MP BELO HORIZONTE - COMARCA; BH-09PJ AUDITORIA MILITAR-SECRETARIA 1.100,00 769,39 450,00 0,00 0,00 0,00 0,00 0,00 782,44 30/11/2020
391 274700 ANA LUCIA DE ALENCAR BRAGATO OFICIAL DO MP UBERABA - COMARCA; UBERABA-PJ-07PJ 1.100,00 0,00 450,00 0,00 0,00 0,00 0,00 0,00 1.267,72 30/11/2020
392 509400 ANA LUCIA DORNELAS MALLOSTO ANALISTA DO MP JUIZ DE FORA - COMARCA; JUIZ DE FORA-PJ-25PJ 1.100,00 0,00 450,00 0,00 0,00 0,00 0,00 0,00 987,72 30/11/2020
393 114600 ANA LUCIA JUNQUEIRA MUZZI CAVALIERI PROMOT.ENTRANC.ESPECIAL JUIZ DE FORA - COMARCA; JUIZ DE FORA-PJ-12PJ 1.100,00 0,00 2.686,32 0,00 0,00 0,00 0,00 0,00 0,00 30/11/2020
394 302600 ANA LUCIA LOPES SANTOS OFICIAL DO MP BELO HORIZONTE - COMARCA; DIVISÃO DE FISCALIZAÇÃO DAS RELAÇÕES DE CONSU 1.100,00 0,00 450,00 0,00 28,34 0,00 1.445,27 0,00 1.245,23 30/11/2020
395 666200 ANA LUCIA SAYURI WATANABE PROMOTOR SUBSTITUTO SANTA RITA DO SAPUCAÍ - COMARCA; SANTA RITA DO SAPUCAI-PJ-01PJ 1.100,00 0,00 3.040,44 0,00 3.040,44 0,00 0,00 0,00 929,03 30/11/2020
396 1030200 ANA LUISA ARAUJO MORAIS ESTAGIARIO CAMPO BELO; CAMPO BELO-PJ-03PJ 0,00 0,00 0,00 180,00 0,00 0,00 0,00 0,00 0,00 30/11/2020
397 1103200 ANA LUISA DE LANA COELHO ESTAGIARIO BELO HORIZONTE; GABINETE DE PROCURADOR DE JUSTIÇA - SALA 715
398 493400 ANA LUISA NOGUEIRA MOREIRA ANALISTA DO MP BELO HORIZONTE - COMARCA; BH-19PJ SAUDE-SECRETARIA 130PJ 1.100,00 0,00 450,00 0,00 0,00 0,00 0,00 0,00 1.013,04 30/11/2020
399 389300 ANA LUISA REUTER LIMA ANALISTA DO MP BELO HORIZONTE - COMARCA; DIRETORIA DE SISTEMAS DE INFORMACAO 1.100,00 0,00 450,00 0,00 0,00 0,00 0,00 0,00 1.122,44 30/11/2020
400 1112300 ANA LUISA RODRIGUES DUARTE ESTAGIARIO BELO HORIZONTE; EXTINTA-COORD EST DEF DIR FAM PES DEFIC IDOSO 0,00 0,00 0,00 81,00 0,00 0,00 0,00 0,00 0,00 30/11/2020
401 1141900 ANA LUISA SOUSA GUIMARAES ESTAGIARIO UBERABA; UBERABA-PJ-10PJ 0,00 0,00 0,00 81,00 0,00 0,00 0,00 0,00 0,00 30/11/2020
402 1197700 ANA LUIZA AGUILAR DE REZENDE ESTAGIARIO RIBEIRAO DAS NEVES; RIBEIRAO NEVES-SEC PJ EXECUCAO PENAL 0,00 0,00 0,00 90,00 0,00 0,00 0,00 0,00 0,00 30/11/2020
403 1089000 ANA LUIZA ALESSI FERREIRA DE CARVALHO ESTAGIARIO BELO HORIZONTE; PROC. JUSTICA CRIMINAL 0,00 0,00 0,00 162,00 0,00 0,00 0,00 0,00 0,00 30/11/2020
404 947900 ANA LUIZA BRANDAO DE AGUIAR VILACA ESTAGIARIO DIVINOPOLIS; COORD REG DO MA DA BACIA DO ALTO SAO FRANC 0,00 0,00 0,00 99,00 0,00 0,00 0,00 0,00 0,00 30/11/2020
405 441100 ANA LUIZA DA COSTA E CRUZ PROMOTOR SUBSTITUTO BETIM - COMARCA; BETIM-PJ-04PJ 1.100,00 0,00 895,44 0,00 3.040,44 0,00 0,00 0,00 929,03 30/11/2020
406 161000 ANA LUIZA DE ABREU MOREIRA PROMOT.ENTRANC.ESPECIAL BELO HORIZONTE - COMARCA; BH-03PJ EMPRESARIAL-GAB 037PJ 1.100,00 0,00 0,00 0,00 5.614,85 0,00 0,00 0,00 1.235,26 30/11/2020
407 1108900 ANA LUIZA DE OLIVEIRA REIS ESTAGIARIO SABARA; SABARA-PJ-03PJ 0,00 0,00 0,00 135,00 0,00 0,00 0,00 0,00 0,00 30/11/2020
408 480600 ANA LUIZA FERNANDES FRAGA E GRECO OFICIAL DO MP BELO HORIZONTE - COMARCA; BH-23PJ CIVEL-SEC EXP CIVEIS 1.100,00 0,00 450,00 0,00 0,00 0,00 0,00 0,00 660,88 30/11/2020
409 1133300 ANA LUIZA FERREIRA VAZ ESTAGIARIO DIVINOPOLIS; DIVINOPOLIS-PJ-12PJ 0,00 0,00 0,00 72,00 0,00 0,00 0,00 0,00 0,00 30/11/2020
410 1154800 ANA LUIZA GIORNI NOCCHI ESTAGIARIO BELO HORIZONTE; PROC. JUSTICA CIVEL
411 685400 ANA LUIZA HENRIQUES BERGER MACHADO PROMOTOR SUBSTITUTO JACINTO - COMARCA; JACINTO-PJ-UNPJ 1.100,00 0,00 703,56 0,00 0,00 0,00 0,00 0,00 0,00 30/11/2020
412 924200 ANA LUIZA LARES DO MONTE ESTAGIARIO TEOFILO OTONI; TEOFILO OTONI-PJ-02PJ 0,00 0,00 0,00 9,00 1.044,33 0,00 0,00 0,00 0,00 30/11/2020
413 996700 ANA LUIZA MELO MACIEL ESTAGIARIO BELO HORIZONTE; BH-07PJ 01 TRIBUNAL DO JURI-GAB 059PJ
414 1000700 ANA LUIZA MOREIRA ABREU ESTAGIARIO BELO HORIZONTE; BH-12PJ JUIZO CRIMINAL-GAB 087PJ 0,00 0,00 0,00 180,00 0,00 0,00 0,00 0,00 0,00 30/11/2020
415 1145200 ANA LUIZA SILVA FIDELIS ESTAGIARIO VISCONDE DO RIO BRANCO; VISCONDE DO RIO BRANCO-PJ-02PJ 0,00 0,00 0,00 90,00 0,00 0,00 0,00 0,00 0,00 30/11/2020
416 1055200 ANA LUIZA SILVA PEREIRA CRUZ ESTAGIARIO 0,00 0,00 0,00 117,00 0,00 0,00 0,00 0,00 0,00 30/11/2020
417 1021000 ANA LUIZA SILVA SANTIAGO ESTAGIARIO BELO HORIZONTE; CAO-CRIMINAL-GABINETES 0,00 0,00 0,00 45,00 0,00 0,00 0,00 0,00 0,00 30/11/2020
418 1171500 ANA LUIZA TEIXEIRA CUNHA ESTAGIARIO FRUTAL; FRUTAL-PJ-05PJ 0,00 0,00 0,00 189,00 0,00 0,00 0,00 0,00 0,00 30/11/2020
419 481400 ANA MARCIA CANDIDA FERREIRA OFICIAL DO MP BRUMADINHO - COMARCA; BRUMADINHO-PJ-02PJ 1.100,00 0,00 450,00 0,00 0,00 0,00 0,00 0,00 918,79 30/11/2020
420 114700 ANA MARIA CAMILO DA HORA E ROCHA PROMOT.ENTRANC.ESPECIAL MONTES CLAROS - COMARCA; MONTES CLAROS-PJ-05PJ 1.100,00 0,00 2.771,60 0,00 3.368,91 0,00 0,00 0,00 1.029,39 30/11/2020
421 643100 ANA MARIA LOPES MIRANDA ANALISTA DO MP BELO HORIZONTE - COMARCA; CAO-FUNDACOES 1.100,00 0,00 450,00 0,00 0,00 0,00 0,00 0,00 645,33 30/11/2020
422 556400 ANA MARIA OLIVEIRA SOUZA OFICIAL DO MP ITAPECERICA - COMARCA; ITAPECERICA-PJ-UNPJ 1.100,00 0,00 450,00 0,00 0,00 0,00 0,00 0,00 821,70 30/11/2020
423 409600 ANA OLIVIA FARIA ROSENBURG ANALISTA DO MP BELO HORIZONTE - COMARCA; DIRETORIA DO COLEGIO E DA CAMARA DE PJ 1.100,00 0,00 450,00 0,00 0,00 0,00 0,00 0,00 2.812,70 30/11/2020
424 461500 ANA PAULA ALVES CARVALHO ANALISTA DO MP UBERLÂNDIA - COMARCA; UBERLANDIA-PJ-25PJ 1.100,00 769,39 450,00 0,00 0,00 0,00 0,00 0,00 1.072,18 30/11/2020
425 523200 ANA PAULA ALVES DA SILVA OFICIAL DO MP GOVERNADOR VALADARES - COMARCA; GOVERNADOR VALADARES-PJ-10PJ 1.100,00 3.076,47 450,00 0,00 0,00 0,00 0,00 0,00 652,09 30/11/2020
426 381200 ANA PAULA BARROS PEREIRA RIGHI ANALISTA DO MP BELO HORIZONTE - COMARCA; PROC JUST RECURSOS ESP E EXTRAORD CRIMINAIS 1.100,00 769,39 450,00 0,00 0,00 0,00 0,00 0,00 1.477,03 30/11/2020
427 1081000 ANA PAULA BORGES MOREIRA ESTAGIARIO POUSO ALEGRE; POUSO ALEGRE-PJ-05PJ 0,00 0,00 0,00 27,00 0,00 0,00 0,00 0,00 0,00 30/11/2020
428 942700 ANA PAULA BORGES SANTOS ESTAGIARIO ITAUNA; ITAUNA-PJ-03PJ 0,00 0,00 0,00 180,00 0,00 0,00 0,00 0,00 0,00 30/11/2020
429 227200 ANA PAULA DA SILVA CAMPOLINA ANALISTA DO MP BELO HORIZONTE - COMARCA; DIRETORIA DE ORCAMENTO-DIOR/SPC 1.100,00 0,00 450,00 0,00 0,00 0,00 0,00 0,00 2.630,95 30/11/2020
430 1114000 ANA PAULA DE OLIVEIRA SANTOS ESTAGIARIO ARAGUARI; ARAGUARI-PJ-07PJ 0,00 0,00 0,00 63,00 0,00 0,00 0,00 0,00 0,00 30/11/2020
431 84200 ANA PAULA DE SOUZA ROCHA OFICIAL DO MP BELO HORIZONTE - COMARCA; DIRETORIA DE CONTABILIDADE 1.100,00 0,00 450,00 0,00 0,00 0,00 0,00 0,00 0,00 30/11/2020
432 278500 ANA PAULA DIAS CAPANEMA OFICIAL DO MP BELO HORIZONTE - COMARCA; DIRETORIA DE SEGURANCA 1.100,00 0,00 450,00 0,00 0,00 0,00 0,00 0,00 1.418,76 30/11/2020
433 1158900 ANA PAULA FONSECA ANDRADE ESTAGIARIO BELO HORIZONTE; CENTRAL DE APOIO TECNICO-SETOR DE ENGENHARIA
434 327300 ANA PAULA GARCIA MAXIMO OFICIAL DO MP UNAÍ - COMARCA; UNAI-PJ-01PJ 1.100,00 0,00 450,00 0,00 0,00 0,00 0,00 0,00 1.576,12 30/11/2020
435 1027400 ANA PAULA GOMES MIRANDA ESTAGIARIO BELO HORIZONTE; BH-12PJ JUIZO CRIMINAL-GAB 092PJ 0,00 0,00 0,00 189,00 0,00 0,00 0,00 0,00 0,00 30/11/2020
436 270000 ANA PAULA GOULART CRUZ DE MAGALHAES ANALISTA DO MP BELO HORIZONTE - COMARCA; PROC JUST ESP ACOES COMP ORIG CRIMINAL-ASSESS 1.100,00 0,00 450,00 0,00 0,00 0,00 0,00 0,00 1.548,36 30/11/2020
437 262100 ANA PAULA KOMATSUZAKI ABIJAUDI ANALISTA DO MP BELO HORIZONTE - COMARCA; BH-17PJ PATRIMONIO PUBLICO-SECRETARIA 1.100,00 0,00 450,00 0,00 0,00 0,00 0,00 0,00 2.200,10 30/11/2020
438 1079700 ANA PAULA LEITE MOREIRA ESTAGIARIO MANHUACU; MANHUACU-PJ-04PJ 0,00 0,00 0,00 135,00 0,00 0,00 0,00 0,00 0,00 30/11/2020
439 671400 ANA PAULA LIMA DA SILVA PROMOTOR 1A ENTRANCIA RIO CASCA - COMARCA; RIO CASCA-PJ-UNPJ 1.100,00 0,00 1.283,56 0,00 0,00 0,00 0,00 0,00 0,00 30/11/2020
440 222600 ANA PAULA LOURENCO DE PAULA PROMOTOR 2A ENTRANCIA ITUIUTABA - COMARCA; ITUIUTABA-PJ-03PJ 1.100,00 0,00 3.200,47 0,00 3.200,47 0,00 0,00 0,00 977,92 30/11/2020
441 106200 ANA PAULA MENDES RODRIGUES PROCURADOR DE JUSTICA BELO HORIZONTE - COMARCA; PROC JUSTICA DIR DIFUSOS E COLETIVOS-GAB007 1.100,00 0,00 980,72 0,00 0,00 0,00 0,00 0,00 0,00 30/11/2020
442 1065000 ANA PAULA MINARINI DA SILVA ESTAGIARIO CATAGUASES; CATAGUASES-PJ-01PJ 0,00 0,00 0,00 45,00 0,00 0,00 0,00 0,00 0,00 30/11/2020
443 278900 ANA PAULA MOREIRA GURGEL ANALISTA DO MP BELO HORIZONTE - COMARCA; DIRETORIA-GERAL 1.100,00 0,00 450,00 0,00 0,00 0,00 0,00 0,00 2.330,16 30/11/2020
444 1082100 ANA PAULA NOBRE PEREIRA ESTAGIARIO 0,00 0,00 0,00 189,00 0,00 0,00 0,00 0,00 0,00 30/11/2020
445 940200 ANA PAULA PACHECO DA SILVA ARAUJO ESTAGIARIO BELO HORIZONTE; BH-12PJ JUIZO CRIMINAL-GAB 102PJ 0,00 0,00 0,00 144,00 0,00 0,00 0,00 0,00 0,00 30/11/2020
446 1185200 ANA PAULA QUINTELA PENA LOPES ESTAGIARIO CARATINGA; CARATINGA-PJ-07PJ 0,00 0,00 0,00 189,00 0,00 0,00 0,00 0,00 0,00 30/11/2020
447 484400 ANA PAULA RESENDE DORNELLAS DE AZEVEDO PROMOTOR SUBSTITUTO RIBEIRÃO DAS NEVES - COMARCA; RIBEIRAO DAS NEVES-PJ-06PJ 1.100,00 0,00 2.839,00 0,00 3.040,44 0,00 0,00 0,00 929,03 30/11/2020
448 425701 ANA PAULA ROCHA ANALISTA DO MP BELO HORIZONTE - COMARCA; ASSESSORIA DE COMUNICACAO INTEGRADA 1.100,00 769,39 450,00 0,00 0,00 0,00 0,00 0,00 765,10 30/11/2020
449 692700 ANA PAULA RODRIGUES GOMES GONCALVES ASSESSOR PROCURADOR JUSTICA BELO HORIZONTE - COMARCA; PROCURADORIAS DE JUSTIÇA 1.100,00 0,00 450,00 0,00 0,00 0,00 0,00 0,00 0,00 30/11/2020
450 395601 ANA PAULA SALGE OLIVEIRA ANALISTA DO MP UBERABA - COMARCA; COORD REG PP TRIANGULO MINEIRO UBERABA 1.100,00 0,00 450,00 0,00 0,00 0,00 0,00 0,00 1.348,81 30/11/2020
451 1150000 ANA PAULA SANTIAGO TEIXEIRA SANTOS ESTAGIARIO GUANHAES; GUANHAES-PJ-02PJ 0,00 0,00 0,00 81,00 0,00 0,00 0,00 0,00 0,00 30/11/2020
452 473200 ANA PAULA SCOTTON BRASIL ANALISTA DO MP JUIZ DE FORA - COMARCA; JUIZ DE FORA-PJ-07PJ 1.100,00 769,39 450,00 0,00 0,00 0,00 0,00 0,00 1.067,03 30/11/2020
453 633600 ANA PAULA SILVA FERNANDES OFICIAL DO MP CATAGUASES - COMARCA; CATAGUASES-PJ-04PJ 1.100,00 0,00 450,00 0,00 0,00 0,00 0,00 0,00 431,70 30/11/2020
454 470900 ANA PAULA VALADARES ANALISTA DO MP PITANGUI - COMARCA; PITANGUI-PJ-01PJ 1.100,00 0,00 450,00 0,00 0,00 0,00 0,00 0,00 978,66 30/11/2020
455 447000 ANA PAULA VALENTIM DE ARAUJO ANALISTA DO MP BELO HORIZONTE - COMARCA; PROC JUST ESP ACOES COMP ORIG CRIMINAL-ASSESS 1.100,00 0,00 450,00 0,00 0,00 0,00 0,00 0,00 975,54 30/11/2020
456 604200 ANA PAULA VIANA E SILVA OFICIAL DO MP BELO HORIZONTE - COMARCA; BH-17PJ PATRIMONIO PUBLICO-SECRETARIA 1.100,00 487,28 450,00 0,00 0,00 0,00 0,00 0,00 522,64 30/11/2020
457 505400 ANA PAULA VIEIRA SOUTO OFICIAL DO MP ALMENARA - COMARCA; ALMENARA-PJ-01PJ 1.100,00 0,00 450,00 0,00 0,00 0,00 0,00 0,00 676,20 30/11/2020
458 280200 ANA RACHEL BRANDAO LADEIRA ROLAND DIRETOR/ANALISTA BELO HORIZONTE - COMARCA; SUPRIN DE FORMACAO E APERFEICOAMENTO-SFA/CEAF 1.100,00 0,00 450,00 0,00 0,00 0,00 0,00 0,00 2.134,52 30/11/2020
459 922900 ANA RACHEL DOS REIS E SENA COSTA ESTAGIARIO BELO HORIZONTE; PROC. JUSTICA CIVEL
460 691000 ANA RACHEL DOS REIS E SENA COSTA ASSESSOR PROMOTOR JUSTICA BELO HORIZONTE - COMARCA; GABINETE DE PROCURADOR DE JUSTIÇA - SALA 601 1.100,00 0,00 450,00 0,00 0,00 0,00 0,00 0,00 0,00 30/11/2020
461 601200 ANA REGINA RIBEIRO COORDENADOR/ANALISTA BELO HORIZONTE - COMARCA; DIV FISCAL ADM CONT TERCEIRIZACAO 1.100,00 0,00 450,00 0,00 0,00 0,00 0,00 0,00 1.107,25 30/11/2020
462 1182200 ANA RITA DE CASSIA ABREU ESTAGIARIO BELO HORIZONTE; CENTRAL DE RECEPÇÃO DE FLAGRANTES
463 1053100 ANA RITA FERREIRA PIMENTA DOS SANTOS ESTAGIARIO BOCAIUVA; BOCAIUVA-PJ-03PJ 0,00 0,00 0,00 117,00 0,00 0,00 0,00 0,00 0,00 30/11/2020
464 384700 ANA RODRIGUES PEREIRA MARRA ANALISTA DO MP COROMANDEL - COMARCA; COROMANDEL-PJ-01PJ 1.100,00 769,39 450,00 0,00 0,00 0,00 0,00 0,00 1.180,15 30/11/2020
465 232700 ANA SILVIA SEMBLANO NAKAMURA ASSESSOR/OFICIAL BELO HORIZONTE - COMARCA; CENT DE APOIO TEC-SETOR DEF,IDOSO E INFANC 1.100,00 0,00 450,00 0,00 0,00 0,00 0,00 0,00 1.324,52 30/11/2020
466 1123000 ANA TELMA APARECIDA COSTA ESTAGIARIO 0,00 0,00 0,00 63,00 0,00 0,00 0,00 0,00 0,00 30/11/2020
467 530300 ANA TEREZA RIBEIRO SALLES GIACOMINI PROMOTOR SUBSTITUTO BRUMADINHO - COMARCA; BRUMADINHO-PJ-01PJ 1.100,00 0,00 2.345,20 0,00 0,00 0,00 0,00 0,00 0,00 30/11/2020
468 1147700 ANA VICTORIA DOS PASSOS CAETANO ESTAGIARIO GOVERNADOR VALADARES; GOVERNADOR VALADARES-PJ-16PJ 0,00 0,00 0,00 180,00 0,00 0,00 0,00 0,00 0,00 30/11/2020
469 963500 ANA VIRGINIA DA CRUZ PRAIS ESTAGIARIO MONTES CLAROS; MONTES CLAROS-PJ-03PJ 0,00 0,00 0,00 36,00 0,00 0,00 0,00 0,00 0,00 30/11/2020
470 602100 ANACLETO FRANCISCO MARCIER PIMENTA OFICIAL DO MP SÃO JOÃO DEL REI - COMARCA; SAO JOAO DEL REI-PJ-03PJ 1.100,00 1.538,78 450,00 0,00 0,00 0,00 0,00 0,00 538,20 30/11/2020
471 310400 ANADEJE DO CARMO DINIZ ARAUJO OFICIAL DO MP BELO HORIZONTE - COMARCA; DIRETORIA DE PESSOAL ADMINISTRATIVO - DPAD 1.100,00 0,00 450,00 0,00 0,00 0,00 0,00 0,00 1.011,36 30/11/2020
472 337000 ANAILDES MARIA MENDES OFICIAL DO MP JANAÚBA - COMARCA; JANAUBA-PJ-02PJ 1.100,00 1.333,61 450,00 0,00 0,00 0,00 0,00 0,00 1.117,86 30/11/2020
473 1170500 ANANDA EVELYN AURELIO DE SOUZA ESTAGIARIO CONTAGEM; CONTAGEM-PJ-24PJ 0,00 0,00 0,00 108,00 0,00 0,00 0,00 0,00 0,00 30/11/2020
474 192900 ANATALIA CERQUEIRA LIMA PERES OFICIAL DO MP UBERABA - COMARCA; COORD REG SAUDE MACROR SANIT TRIANGULO SUL 1.100,00 0,00 450,00 0,00 0,00 0,00 0,00 0,00 1.429,09 30/11/2020
475 377400 ANDEIRSON DA MATTA BARBOSA ANALISTA DO MP POUSO ALEGRE - COMARCA; POUSO ALEGRE-PJ-01PJ 1.100,00 0,00 450,00 0,00 0,00 0,00 0,00 0,00 1.211,81 30/11/2020
476 317400 ANDERSON DA SILVA BICALHO OFICIAL DO MP CONTAGEM - COMARCA; CONTAGEM-PJ-SECRETARIA 1.100,00 0,00 450,00 0,00 0,00 0,00 0,00 0,00 893,16 30/11/2020
477 506900 ANDERSON DE SOUZA DAMIANI ANALISTA DO MP BELO HORIZONTE - COMARCA; DIRETORIA DE PAGAMENTO DE PESSOAL-DPAG 1.100,00 769,39 450,00 0,00 0,00 0,00 0,00 0,00 1.344,35 30/11/2020
478 410000 ANDERSON DE SOUZA NETO ASSESSOR BELO HORIZONTE - COMARCA; DIRETORIA DE ADMINISTRACAO FINANCEIRA 1.100,00 0,00 450,00 0,00 0,00 0,00 0,00 0,00 516,69 30/11/2020
479 181900 ANDERSON FLAVIO DE OLIVEIRA OFICIAL DO MP ITAGUARA - COMARCA; ITAGUARA-PJ-SECRETARIA 1.100,00 0,00 450,00 0,00 0,00 0,00 0,00 0,00 1.492,90 30/11/2020
480 333200 ANDERSON JOSE DE FREITAS OFICIAL DO MP IPATINGA - COMARCA; IPATINGA-PJ-04PJ 1.100,00 0,00 450,00 0,00 0,00 0,00 1.445,27 0,00 1.269,66 30/11/2020
481 462100 ANDERSON LUIZ GUIMARAES CARDOSO ANALISTA DO MP BARBACENA - COMARCA; BARBACENA-PJ-02PJ 1.100,00 0,00 450,00 0,00 0,00 0,00 0,00 0,00 1.133,24 30/11/2020
482 429700 ANDERSON MELO DE SOUZA ASSESSOR/OFICIAL BELO HORIZONTE - COMARCA; DIRET DE ESTAGIOS E CONVENIOS ACADEMICOS 1.100,00 0,00 450,00 0,00 0,00 0,00 0,00 0,00 1.083,53 30/11/2020
483 545600 ANDERSON MENDES PROCOPIO FERREIRA ANALISTA DO MP BELO HORIZONTE - COMARCA; BH-12PJ JUIZO CRIMINAL-GAB 089PJ 1.100,00 0,00 450,00 0,00 0,00 0,00 0,00 0,00 929,10 30/11/2020
484 519900 ANDERSON MOREIRA DOEHLER ANALISTA DO MP TEÓFILO OTONI - COMARCA; COORD REG SAUDE MACRORREGIAO SANIT NORDESTE 1.100,00 0,00 450,00 0,00 0,00 0,00 0,00 0,00 1.181,85 30/11/2020
485 103000 ANDERSON TADEU DE DEUS ASSESSOR BELO HORIZONTE - COMARCA; BH-26 CRIME CONT CRIAN ADOL-SECRETARIA 1.100,00 0,00 450,00 0,00 0,00 0,00 0,00 0,00 876,11 30/11/2020
486 652500 ANDERSON TADEU LOPES INVESTIGADOR DE POLICIA 2 CONTAGEM - COMARCA; COORD REG DEF ORDEM ECON TRIB CONTAGEM 1.100,00 0,00 0,00 0,00 0,00 0,00 0,00 0,00 0,00 30/11/2020
487 309200 ANDITYAS SOARES DE MOURA COSTA MATOS ANALISTA DO MP BELO HORIZONTE - COMARCA; GABINETE DE PROCURADOR DE JUSTIÇA - SALA 304 1.100,00 0,00 450,00 0,00 0,00 0,00 0,00 0,00 1.552,96 30/11/2020
488 1080700 ANDRE ARAUJO GABRIEL REIS ESTAGIARIO BARBACENA; BARBACENA-PJ-05PJ
489 519200 ANDRE BORJA LANA ANALISTA DO MP BELO HORIZONTE - COMARCA; DIR CONTEUDO JORNALISTICO 1.100,00 0,00 450,00 0,00 0,00 0,00 0,00 0,00 1.308,52 30/11/2020
490 486000 ANDRE CARDOSO CAVALCANTI PROMOTOR 2A ENTRANCIA ITAJUBA - COMARCA; ITAJUBA-PJ-02PJ 1.100,00 0,00 3.200,47 0,00 3.200,47 0,00 0,00 0,00 977,92 30/11/2020
491 224900 ANDRE CHIO MAXIMO PROMOT.ENTRANC.ESPECIAL VESPASIANO - COMARCA; VESPASIANO-PJ-02PJ 1.100,00 0,00 3.368,91 0,00 0,00 0,00 0,00 0,00 514,69 30/11/2020
492 102400 ANDRE DE OLIVEIRA ANDRADE PROMOT.ENTRANC.ESPECIAL BELO HORIZONTE - COMARCA; BH-02PJ FAMILIA-GAB 030PJ 1.100,00 0,00 2.856,88 0,00 5.614,85 0,00 0,00 0,00 1.235,26 30/11/2020
493 656000 ANDRE DE OLIVEIRA SOUSA INVESTIGADOR DE POLICIA 2 BELO HORIZONTE - COMARCA; GAECO - SETOR POLICIAL CIVIL 1.100,00 0,00 0,00 0,00 0,00 0,00 0,00 0,00 0,00 30/11/2020
494 974800 ANDRE DELL ORTO BERCAN ESTAGIARIO RESPLENDOR; RESPLENDOR-PJ-UNPJ 0,00 0,00 0,00 171,00 0,00 0,00 0,00 0,00 0,00 30/11/2020
495 79200 ANDRE ESTEVAO UBALDINO PEREIRA PROCURADOR DE JUSTICA BELO HORIZONTE - COMARCA; GABINETE DE PROCURADOR DE JUSTIÇA - SALA 502 1.100,00 0,00 3.539,12 0,00 5.910,37 0,00 0,00 0,00 1.300,28 30/11/2020
496 1103000 ANDRE FELIPE ROSA DA SILVA ESTAGIARIO BARBACENA; BARBACENA-PJ-SECRETARIA 0,00 0,00 0,00 72,00 0,00 0,00 0,00 0,00 0,00 30/11/2020
497 637200 ANDRE FERNANDES DA CUNHA OFICIAL DO MP MORADA NOVA DE MINAS - COMARCA; MORADA NOVA DE MINAS-PJ-UNPJ 1.100,00 0,00 450,00 0,00 0,00 0,00 0,00 0,00 451,70 30/11/2020
498 162800 ANDRE FERNANDO COLUCCO PROMOTOR 2A ENTRANCIA CASSIA - COMARCA; CASSIA-PJ-02PJ 1.100,00 0,00 2.728,96 0,00 5.334,11 0,00 0,00 0,00 1.173,50 30/11/2020
499 1131900 ANDRE FERREIRA ESTAGIARIO POCOS DE CALDAS; POCOS DE CALDAS-PJ-04PJ 0,00 0,00 0,00 9,00 0,00 0,00 0,00 0,00 0,00 30/11/2020
500 1181700 ANDRE GARCIA SANCHES MUNIZ ESTAGIARIO BELO HORIZONTE; BH-20PJ ORD ECON TRIBUTARIA 0,00 0,00 0,00 27,00 0,00 0,00 0,00 0,00 0,00 30/11/2020
501 651500 ANDRE GONCALVES MARANHAO OFICIAL DO MP JACINTO - COMARCA; JACINTO-PJ-SECRETARIA 1.100,00 0,00 450,00 0,00 0,00 0,00 0,00 0,00 352,57 30/11/2020
502 439200 ANDRE LEITE DE ALMEIDA PROMOT.ENTRANC.ESPECIAL VESPASIANO - COMARCA; VESPASIANO-PJ-03PJ 1.100,00 0,00 1.321,84 0,00 0,00 0,00 0,00 0,00 0,00 30/11/2020
503 166900 ANDRE LUIS ALVES DE MELO PROMOTOR 2A ENTRANCIA ARAGUARI - COMARCA; ARAGUARI-PJ-01PJ 1.100,00 0,00 3.155,36 0,00 0,00 0,00 0,00 0,00 0,00 30/11/2020
504 1154900 ANDRE LUIS CUNITA LOURENCO ESTAGIARIO FRUTAL; FRUTAL-PJ-04PJ 0,00 0,00 0,00 189,00 0,00 0,00 0,00 0,00 0,00 30/11/2020
505 85000 ANDRE LUIS GARCIA DE PINHO PROMOT.ENTRANC.ESPECIAL DISPONIBILIDADE COMPULSORIA-COMARCA; DISPONIBILIDADE COMPULSORIA - UNIDADE 0,00 0,00 2.945,65 0,00 0,00 0,00 0,00 0,00 0,00 30/11/2020
506 521900 ANDRE LUIS GOMES SILVA ANALISTA DO MP FORMIGA - COMARCA; FORMIGA-PJ-02PJ 1.100,00 769,39 450,00 0,00 0,00 0,00 0,00 0,00 1.096,67 30/11/2020
507 340800 ANDRE LUIS MACHADO ARANTES PROMOTOR 2A ENTRANCIA PARÁ DE MINAS - COMARCA; PARA DE MINAS-PJ-05PJ 1.100,00 0,00 2.558,40 0,00 3.368,91 0,00 0,00 0,00 2.713,85 30/11/2020
508 1196600 ANDRE LUIS SILVEIRA BEZERRA ESTAGIARIO BELO HORIZONTE; PROC. JUSTICA DIR. DIFUSOS E COLETIVOS 0,00 0,00 0,00 18,00 0,00 0,00 0,00 0,00 0,00 30/11/2020
509 304300 ANDRE LUIZ AVELAR ANALISTA DO MP BELO HORIZONTE - COMARCA; DIRETORIA DE REDES E BANCOS DE DADOS 1.100,00 0,00 450,00 0,00 0,00 0,00 0,00 0,00 921,57 30/11/2020
510 666100 ANDRE LUIZ FERREIRA VALADARES PROMOTOR 2A ENTRANCIA MORADA NOVA DE MINAS - COMARCA; MORADA NOVA DE MINAS-PJ-UNPJ 1.100,00 0,00 1.477,56 0,00 3.200,47 0,00 0,00 0,00 943,70 30/11/2020
511 530200 ANDRE LUIZ NOLLI MERRIGHI PROMOT.ENTRANC.ESPECIAL SETE LAGOAS - COMARCA; SETE LAGOAS-PJ-03PJ 1.100,00 0,00 2.451,80 0,00 3.368,91 0,00 0,00 0,00 1.029,39 30/11/2020
512 397400 ANDRE PATARO MYRRHA DE PAULA E SILVA ANALISTA DO MP BELO HORIZONTE - COMARCA; ASSESSORIA JURIDICO-ADMINISTRATIVA 1.100,00 769,39 450,00 0,00 0,00 0,00 0,00 0,00 1.425,90 30/11/2020
513 533200 ANDRE PEREIRA MAFIA PROMOTOR 2A ENTRANCIA ALÉM PARAÍBA - COMARCA; ALEM PARAIBA-PJ-01PJ 1.100,00 0,00 746,20 0,00 0,00 0,00 0,00 0,00 0,00 30/11/2020
514 441200 ANDRE SALLES DIAS PINTO PROMOTOR 2A ENTRANCIA IGARAPÉ - COMARCA; IGARAPE-PJ-01PJ 1.100,00 0,00 2.025,40 0,00 3.200,47 0,00 0,00 0,00 977,92 30/11/2020
515 237800 ANDRE SILVARES VASCONCELOS PROMOTOR 2A ENTRANCIA PIUMHI - COMARCA; PIUMHI-PJ-02PJ 1.100,00 0,00 2.701,80 0,00 3.200,47 0,00 0,00 0,00 977,92 30/11/2020
516 231800 ANDRE SPERLING PRADO PROMOT.ENTRANC.ESPECIAL BELO HORIZONTE - COMARCA; COORD DE INCLUSAO E MOBILIZACAO SOCIAIS 1.100,00 0,00 2.579,72 0,00 5.614,85 0,00 0,00 0,00 1.235,26 30/11/2020
517 666300 ANDRE TANURE DOMINGUES FIGUEIREDO PROMOTOR SUBSTITUTO MONTES CLAROS - COMARCA; MONTES CLAROS-PJ-01PJ 1.100,00 0,00 703,56 0,00 0,00 0,00 0,00 0,00 0,00 30/11/2020
518 650100 ANDRE THOME VARGAS OFICIAL DO MP LEOPOLDINA - COMARCA; LEOPOLDINA-PJ-04PJ 1.100,00 0,00 450,00 0,00 0,00 0,00 0,00 0,00 451,77 30/11/2020
519 231600 ANDRE TUMA DELBIM FERREIRA PROMOT.ENTRANC.ESPECIAL UBERABA - COMARCA; COORD REG PJ DEF EDUC DIR CRIANCA ADOL TRIANG 1.100,00 0,00 1.599,00 0,00 3.368,91 0,00 0,00 0,00 1.029,39 30/11/2020
520 671500 ANDRE VALDERRAMAS FRANCO PROMOTOR SUBSTITUTO NOVA SERRANA - COMARCA; NOVA SERRANA-PJ-SECRETARIA 1.100,00 0,00 596,96 0,00 5.067,40 0,00 0,00 0,00 0,00 30/11/2020
521 548500 ANDRE VINICIUS CARVALHO MEIRA ANALISTA DO MP JUIZ DE FORA - COMARCA; JUIZ DE FORA-PJ-24PJ 1.100,00 0,00 450,00 0,00 0,00 0,00 0,00 0,00 953,42 30/11/2020
522 297200 ANDRE WILLE ROSARIO ANALISTA DO MP BELO HORIZONTE - COMARCA; ASSESSORIA ESPECIAL DO PGJ 1.100,00 0,00 450,00 0,00 0,00 0,00 0,00 0,00 2.046,59 30/11/2020
523 224500 ANDREA BASILIO GONCALVES GOLLOP PROMOT.ENTRANC.ESPECIAL BELO HORIZONTE - COMARCA; BH-18PJ VIOLENCIA DOMESTICA-GAB 186PJ 1.100,00 0,00 3.070,08 0,00 0,00 0,00 0,00 0,00 0,00 30/11/2020
524 666400 ANDREA CLEMENTE BARBOSA DE SOUZA PROMOTOR SUBSTITUTO MATOZINHOS - COMARCA; MATOZINHOS-PJ-01PJ 1.100,00 0,00 1.748,24 0,00 3.040,44 0,00 0,00 0,00 929,03 30/11/2020
525 423600 ANDREA COSTA GUALBERTO ALVES ANALISTA DO MP GOVERNADOR VALADARES - COMARCA; COORD REG PJ DEF EDU DIR CRIANCA ADOL RIODOCE 1.100,00 0,00 450,00 0,00 0,00 0,00 0,00 0,00 2.004,17 30/11/2020
526 198600 ANDREA CRISTINA ANDRADE COSTA E SOUZA OFICIAL DO MP MONTES CLAROS - COMARCA; MONTES CLAROS-PJ-15PJ 1.100,00 0,00 450,00 0,00 0,00 0,00 0,00 0,00 4.171,03 30/11/2020
527 230600 ANDREA CRISTINA CALDAS SANTIAGO PROMOT.ENTRANC.ESPECIAL CONSELHEIRO LAFAIETE - COMARCA; CONSELHEIRO LAFAIETE-PJ-07PJ 1.100,00 0,00 1.407,12 0,00 5.614,85 0,00 0,00 0,00 1.235,26 30/11/2020
528 467300 ANDREA DE CASSIA PENNA ALVERNAZ ANALISTA DO MP PONTE NOVA - COMARCA; PONTE NOVA-PJ-01PJ 1.100,00 0,00 450,00 0,00 0,00 0,00 0,00 0,00 1.029,79 30/11/2020
529 308000 ANDREA DE CASSIA SANTOS OLIVEIRA ANALISTA DO MP BELO HORIZONTE - COMARCA; COORD DE GABINETE DO PGJ 1.100,00 0,00 450,00 0,00 0,00 0,00 0,00 0,00 1.768,17 30/11/2020
530 106300 ANDREA DE FIGUEIREDO SOARES PROCURADOR DE JUSTICA BELO HORIZONTE - COMARCA; GABINETE DE PROCURADOR DE JUSTIÇA - SALA 709 1.100,00 0,00 3.006,12 0,00 4.728,30 0,00 0,00 0,00 1.191,93 30/11/2020
531 349500 ANDREA DE OLIVEIRA LOIOLA REGIS OFICIAL DO MP IGUATAMA - COMARCA; IGUATAMA-PJ-UNPJ 1.100,00 0,00 450,00 0,00 0,00 0,00 0,00 0,00 924,30 30/11/2020
532 287900 ANDREA FERNANDES PENA MARTINS OFICIAL DO MP MONTES CLAROS - COMARCA; MONTES CLAROS-PJ-09PJ 1.100,00 0,00 450,00 0,00 0,00 0,00 0,00 0,00 1.318,60 30/11/2020
533 300800 ANDREA FERREIRA ANALISTA DO MP LAVRAS - COMARCA; LAVRAS-PJ-04PJ 1.100,00 0,00 450,00 0,00 0,00 0,00 0,00 0,00 1.883,56 30/11/2020
534 316700 ANDREA FRANCISCA DIAS DE SOUZA ASSESSOR BELO HORIZONTE - COMARCA; ASSESSORIA JURIDICA DO PROCON-MG 1.100,00 769,39 450,00 0,00 0,00 0,00 0,00 0,00 272,88 30/11/2020
535 395100 ANDREA LANNA MENDES NOVAIS ANALISTA DO MP BELO HORIZONTE - COMARCA; PROMOT ESTADUAL DE DEF PATRI CULT E TUR DE MG 1.100,00 0,00 450,00 0,00 0,00 0,00 0,00 0,00 1.375,66 30/11/2020
536 67300 ANDREA LEAO MAGALHAES ROQUE ASSESSOR BELO HORIZONTE - COMARCA; COORD ESTADUAL COMBATE CRIMES CIBERNETICOS 1.100,00 0,00 450,00 0,00 0,00 0,00 0,00 0,00 1.678,36 30/11/2020
537 335700 ANDREA LOPES PEREIRA ANALISTA DO MP GOVERNADOR VALADARES - COMARCA; COORD REG DO MA DA BACIA DO RIO DOCE 1.100,00 0,00 450,00 0,00 0,00 0,00 0,00 0,00 1.790,02 30/11/2020
538 224700 ANDREA MARIA NESSRALLA BAHURY PROMOT.ENTRANC.ESPECIAL BELO HORIZONTE - COMARCA; BH-12PJ JUIZO CRIMINAL-GAB 089PJ 1.100,00 0,00 2.345,20 0,00 5.614,85 0,00 0,00 0,00 1.235,26 30/11/2020
539 167000 ANDREA MISMOTTO CARELLI PROMOT.ENTRANC.ESPECIAL BELO HORIZONTE - COMARCA; BH-26 CRIME CONT CRIAN ADOL-GAB 048PJ 1.100,00 0,00 895,44 0,00 5.614,85 0,00 0,00 0,00 1.235,26 30/11/2020
540 389200 ANDREA TUPINI DOS SANTOS TRISTAO DA ROCHA COORDENADOR/OFICIAL BELO HORIZONTE - COMARCA; BH-13ª PJ JUÍZO DE TÓXICOS-SECRETARIA 1.100,00 0,00 450,00 0,00 0,00 0,00 0,00 0,00 1.284,20 30/11/2020
541 1071200 ANDREI LUCAS BASILIO SANTANA ESTAGIARIO JANUARIA; JANUARIA-PJ-01PJ 0,00 0,00 0,00 126,00 0,00 0,00 0,00 0,00 0,00 30/11/2020
542 419000 ANDREIA BARBOSA DE ALMEIDA ANALISTA DO MP BELO HORIZONTE - COMARCA; GABINETE DE PROCURADOR DE JUSTIÇA - SALA 705 1.100,00 0,00 450,00 0,00 0,00 0,00 0,00 0,00 1.416,63 30/11/2020
543 281501 ANDREIA CARLA COSTA ANALISTA DO MP UBÁ - COMARCA; UBA-PJ-02PJ 1.100,00 0,00 450,00 0,00 0,00 0,00 0,00 0,00 1.490,50 30/11/2020
544 477100 ANDREIA DE ALMEIDA RIBEIRO MELO OFICIAL DO MP CONTAGEM - COMARCA; CONTAGEM-PJ-SECRETARIA 1.100,00 0,00 450,00 0,00 0,00 0,00 0,00 0,00 798,66 30/11/2020
545 1170600 ANDREIA DE PAULA CAMPOS NUNES ESTAGIARIO ANDRELANDIA; ANDRELANDIA-PJ-UNPJ 0,00 0,00 0,00 189,00 0,00 0,00 0,00 0,00 0,00 30/11/2020
546 619000 ANDREIA FERREIRA NORONHA COORDENADOR/OFICIAL BELO HORIZONTE - COMARCA; DIRETORIA DE SERVICO CRIMINAL 1.100,00 0,00 450,00 0,00 0,00 0,00 0,00 0,00 1.420,25 30/11/2020
547 424000 ANDREIA LUCIA COUTO ANALISTA DO MP BELO HORIZONTE - COMARCA; BH-18PJ DIREITOS HUMANOS-SECRETARIA 1.100,00 0,00 450,00 0,00 0,00 0,00 0,00 0,00 1.386,98 30/11/2020
548 1138400 ANDREIA MARIA FIRMO ESTAGIARIO BELO HORIZONTE; PROC. JUSTICA DIR. DIFUSOS E COLETIVOS 0,00 0,00 0,00 36,00 0,00 0,00 0,00 0,00 0,00 30/11/2020
549 370100 ANDREIA MARIA SILVA PINTO OFICIAL DO MP CORONEL FABRICIANO - COMARCA; CORONEL FABRICIANO-PJ-01PJ 1.100,00 769,39 450,00 0,00 0,00 0,00 0,00 0,00 967,19 30/11/2020
550 382100 ANDREIA NATALI PEREIRA DE OLIVEIRA OFICIAL DO MP PRADOS - COMARCA; PRADOS-PJ-UNPJ 1.100,00 0,00 450,00 0,00 0,00 0,00 0,00 0,00 1.079,72 30/11/2020
551 198701 ANDREIA NUNES DURAES PROMOTOR 2A ENTRANCIA BOCAIÚVA - COMARCA; BOCAIUVA-PJ-02PJ 1.100,00 0,00 0,00 0,00 3.200,47 0,00 0,00 0,00 977,92 30/11/2020
552 275200 ANDREIA RIBEIRO FREITAS OFICIAL DO MP VIÇOSA - COMARCA; VICOSA-PJ-04PJ 1.100,00 0,00 450,00 0,00 0,00 0,00 0,00 0,00 1.228,42 30/11/2020
553 1162900 ANDREIA RODRIGUES DE SOUZA ESTAGIARIO 0,00 0,00 0,00 189,00 0,00 0,00 0,00 0,00 0,00 30/11/2020
554 352200 ANDREIA XAVIER PEREIRA OFICIAL DO MP CLÁUDIO - COMARCA; CLAUDIO-PJ-UNPJ 1.100,00 0,00 450,00 0,00 0,00 0,00 0,00 0,00 1.081,01 30/11/2020
555 638500 ANDRESA ALVES FEITOSA CASAGRANDE ANALISTA DO MP LAVRAS - COMARCA; COORD REG DO MA DA BACIA DO RIO GRANDE 1.100,00 0,00 450,00 0,00 0,00 0,00 0,00 0,00 725,23 30/11/2020
556 1072000 ANDRESA MENDES ASSIS ESTAGIARIO BELO HORIZONTE; PROC JUST ESP ACOES COMP ORIG CRIMINAL-GAB 0,00 0,00 0,00 18,00 0,00 0,00 0,00 0,00 0,00 30/11/2020
557 1103300 ANDRESSA BARBOSA PARANHOS ESTAGIARIO PATOS DE MINAS; PATOS DE MINAS-PJ-01PJ 0,00 0,00 0,00 189,00 0,00 0,00 0,00 0,00 0,00 30/11/2020
558 932800 ANDRESSA CARINA DOS SANTOS ESTAGIARIO BELO HORIZONTE; DIV FISCAL ADM CONT TERCEIRIZACAO 0,00 0,00 0,00 27,00 0,00 0,00 0,00 0,00 0,00 30/11/2020
559 952200 ANDRESSA CAVALCANTI FELIPPE ESTAGIARIO PONTE NOVA; PONTE NOVA-PJ-02PJ
560 210000 ANDRESSA DE OLIVEIRA LANCHOTTI PROMOT.ENTRANC.ESPECIAL BELO HORIZONTE - COMARCA; CAO-MEIO AMBIENTE 1.100,00 0,00 2.920,84 0,00 5.614,85 0,00 0,00 0,00 1.235,26 30/11/2020
561 383700 ANDRESSA EDUARDO SOUZA ANALISTA DO MP OURO BRANCO - COMARCA; OURO BRANCO-PJ-SECRETARIA 1.100,00 769,39 450,00 0,00 0,00 0,00 0,00 0,00 2.302,96 30/11/2020
562 959900 ANDRESSA FRANCO PARADELLAS ESTAGIARIO EUGENOPOLIS; EUGENOPOLIS-PJ-UNPJ 0,00 0,00 0,00 108,00 0,00 0,00 0,00 0,00 0,00 30/11/2020
563 485500 ANDRESSA ISABELLE FERREIRA BARRETO PROMOTOR 2A ENTRANCIA CONCEICAO DAS ALAGOAS - COMARCA; CONCEICAO DAS ALAGOAS-PJ-02PJ 1.100,00 0,00 2.409,16 0,00 3.200,47 0,00 0,00 0,00 977,92 30/11/2020
564 678400 ANDRESSA LUIZA SILVA LOPES ASSESSOR PROMOTOR JUSTICA CARMO DO PARANAÍBA - COMARCA; CARMO DO PARANAIBA-PJ-02PJ 1.100,00 0,00 450,00 0,00 0,00 0,00 0,00 0,00 0,00 30/11/2020
565 1005700 ANDRESSA MARIA ROCHA BARBOSA ESTAGIARIO SANTA MARIA DO SUACUI; SANTA MARIA DO SUACUI-PJ-UNPJ 0,00 0,00 0,00 135,00 0,00 0,00 0,00 0,00 0,00 30/11/2020
566 426200 ANDRESSA MENDES CASAL OFICIAL DO MP BELO HORIZONTE - COMARCA; DIR ESTRUTURA E PROCESSOS ORGANIZACIONAIS 1.100,00 0,00 450,00 0,00 0,00 0,00 0,00 0,00 701,38 30/11/2020
567 932900 ANDRESSA OLIVEIRA LUBE COSTA ESTAGIARIO BELO HORIZONTE; GRUPO ESP PROM JUST DEF PROB ADM PAT PUB
568 390100 ANDRESSA RIBEIRO PUCCI OFICIAL DO MP UBERABA - COMARCA; UBERABA-PJ-14PJ 1.100,00 0,00 450,00 0,00 0,00 0,00 0,00 0,00 644,14 30/11/2020
569 462500 ANDREZA APARECIDA COSTA E SILVA ANALISTA DO MP CONSELHEIRO LAFAIETE - COMARCA; CONSELHEIRO LAFAIETE-PJ-02PJ 1.100,00 0,00 450,00 0,00 0,00 0,00 0,00 0,00 1.043,11 30/11/2020
570 677700 ANDREZA DE LOURDES FERREIRA DE PAIVA ASSESSOR PROMOTOR JUSTICA ABRE CAMPO - COMARCA; ABRE CAMPO-PJ-01PJ 1.100,00 0,00 450,00 0,00 0,00 0,00 0,00 0,00 0,00 30/11/2020
571 965700 ANDREZA DE OLIVEIRA SANTOS PRESTES ESTAGIARIO BELO HORIZONTE; BH-12PJ JUIZO CRIMINAL-GAB 099PJ 0,00 0,00 0,00 108,00 0,00 0,00 0,00 0,00 0,00 30/11/2020
572 1035800 ANDREZA OLIVEIRA MAGALHAES ESTAGIARIO PATOS DE MINAS; COORD REG PJ DEF EDU DIR CRI ADO AL PAR NOROE 0,00 0,00 0,00 9,00 0,00 0,00 0,00 0,00 0,00 30/11/2020
573 1083000 ANDREZA SACRAMENTO FAGUNDES ESTAGIARIO BELO HORIZONTE; SUPERINTENDÊNCIA DE ENGENHARIA E ARQUITETURA
574 537800 ANDREZZA LUZIA DE OLIVEIRA ALVES ANALISTA DO MP PATOS DE MINAS - COMARCA; COORD REG PJ DEF EDU DIR CRI ADO AL PAR NOROE 1.100,00 0,00 450,00 0,00 0,00 0,00 0,00 0,00 917,28 30/11/2020
575 1074700 ANDRINE HOLLERBACH DOS SANTOS ESTAGIARIO TEOFILO OTONI; TEOFILO OTONI-PJ-05PJ 0,00 0,00 0,00 189,00 0,00 0,00 0,00 0,00 0,00 30/11/2020
576 491600 ANE PATRICIA RIBEIRO ANALISTA DO MP SETE LAGOAS - COMARCA; SETE LAGOAS-PJ-11PJ 1.100,00 0,00 450,00 0,00 0,00 0,00 0,00 0,00 1.017,34 30/11/2020
577 361900 ANELISA CARDOSO RIBEIRO PROMOTOR 2A ENTRANCIA CAETÉ - COMARCA; CAETE-PJ-02PJ 1.100,00 0,00 1.705,60 0,00 5.334,11 0,00 0,00 0,00 1.173,50 30/11/2020
578 465800 ANELISE GAMA ASSESSOR BELO HORIZONTE - COMARCA; BH-18PJ VIOLENCIA DOMESTICA-SECRETARIA 1.100,00 0,00 450,00 0,00 0,00 0,00 0,00 0,00 629,11 30/11/2020
579 535200 ANELIZE FERNANDA ALVES VILARINHO OFICIAL DO MP CAPINÓPOLIS - COMARCA; CAPINOPOLIS-PJ-UNPJ 1.100,00 769,39 450,00 0,00 0,00 0,00 0,00 0,00 828,16 30/11/2020
580 197200 ANGELA COELHO SALDANHA OFICIAL DO MP PARÁ DE MINAS - COMARCA; PARA DE MINAS-PJ-03PJ 1.100,00 0,00 450,00 0,00 0,00 0,00 0,00 0,00 2.059,03 30/11/2020
581 307400 ANGELA CRISTINA GONCALVES MUNIZ ANALISTA DO MP UBERLÂNDIA - COMARCA; UBERLANDIA-PJ-SEC FAMILIA 1.100,00 769,39 450,00 0,00 0,00 0,00 0,00 0,00 1.885,77 30/11/2020
582 157100 ANGELA FABERO PROMOT.ENTRANC.ESPECIAL BELO HORIZONTE - COMARCA; BH-23PJ INFRACIONAL-GAB 145PJ 1.100,00 0,00 3.198,00 0,00 5.614,85 0,00 0,00 0,00 1.235,26 30/11/2020
583 191800 ANGELA MARIA DE OLIVEIRA OFICIAL DO MP GUARANÉSIA - COMARCA; GUARANESIA-PJ-SECRETARIA 1.100,00 0,00 450,00 0,00 0,00 0,00 0,00 0,00 2.253,80 30/11/2020
584 497400 ANGELA MARIA HENRIQUES ANALISTA DO MP BELO HORIZONTE - COMARCA; COORD REG BACIAS RIO VELHAS E PARAOPEBA 1.100,00 0,00 450,00 0,00 0,00 0,00 0,00 0,00 1.151,10 30/11/2020
585 54600 ANGELA MARIA PEREIRA GRAVINA PROMOT.ENTRANC.ESPECIAL JUIZ DE FORA - COMARCA; JUIZ DE FORA-PJ-11PJ 1.100,00 0,00 1.489,20 0,00 0,00 0,00 0,00 0,00 0,00 30/11/2020
586 1141200 ANGELA NUNES CARDOSO ESTAGIARIO CORACAO DE JESUS; CORACAO DE JESUS-PJ-UNPJ 0,00 0,00 0,00 189,00 0,00 0,00 0,00 0,00 0,00 30/11/2020
587 260700 ANGELICA CRISTINA AZEVEDO MOREIRA MOUCO OFICIAL DO MP UBÁ - COMARCA; UBA-PJ-05PJ 1.100,00 0,00 450,00 0,00 0,00 0,00 0,00 0,00 1.422,81 30/11/2020
588 1196700 ANGELICA DE MELO ANDRADE ESTAGIARIO CONTAGEM; CONTAGEM-PJ-10PJ 0,00 0,00 0,00 45,00 0,00 0,00 0,00 0,00 0,00 30/11/2020
589 1005300 ANGELICA JULIA ARAUJO BASTOS ESTAGIARIO SETE LAGOAS; SETE LAGOAS-PJ-07PJ 0,00 0,00 0,00 162,00 0,00 0,00 0,00 0,00 0,00 30/11/2020
590 334600 ANGELICA PANISSA DE FREITAS GALLATI OFICIAL DO MP GUAXUPÉ - COMARCA; GUAXUPE-PJ-02PJ 1.100,00 769,39 450,00 0,00 0,00 0,00 0,00 0,00 1.222,91 30/11/2020
591 660400 ANGELICA POLLYANA QUEIROZ DE MEDEIROS PROMOTOR 2A ENTRANCIA FRUTAL - COMARCA; FRUTAL-PJ-05PJ 1.100,00 0,00 703,56 0,00 3.200,47 0,00 0,00 0,00 977,92 30/11/2020
592 521100 ANGELICA SALES MOREIRA OFICIAL DO MP BELO HORIZONTE - COMARCA; BH-02PJ FAMILIA-SECRETARIA 1.100,00 0,00 450,00 0,00 0,00 0,00 0,00 0,00 651,84 30/11/2020
593 1153300 ANGELICA SILVA COUTO ESTAGIARIO ITAUNA; ITAUNA-PJ-04PJ 0,00 0,00 0,00 90,00 0,00 0,00 0,00 0,00 0,00 30/11/2020
594 466500 ANGELLO MARQUES AGRELLI ANALISTA DO MP MAR DE ESPANHA - COMARCA; MAR DE ESPANHA-PJ-UNPJ 1.100,00 0,00 450,00 0,00 0,00 0,00 0,00 0,00 957,23 30/11/2020
595 222700 ANGELO ALEXANDRE MARZANO PROMOT.ENTRANC.ESPECIAL BELO HORIZONTE - COMARCA; PROC JUST RECURSOS ESP E EXTRAORD CRIMINAIS 1.100,00 0,00 2.451,80 0,00 5.614,85 0,00 0,00 0,00 1.235,26 30/11/2020
596 167100 ANGELO ANSANELLI JUNIOR PROMOTOR 2A ENTRANCIA FORMIGA - COMARCA; FORMIGA-PJ-02PJ 1.100,00 0,00 3.003,68 0,00 3.200,47 0,00 0,00 0,00 977,92 30/11/2020
597 1172500 ANGELO ANTONIO LOPES MOURA ESTAGIARIO IPATINGA; IPATINGA-PJ-11PJ 0,00 0,00 0,00 144,00 0,00 0,00 0,00 0,00 0,00 30/11/2020
598 363300 ANGELO VERDOLIN HENRIQUES ANALISTA DO MP SETE LAGOAS - COMARCA; SETE LAGOAS-PJ-04PJ 1.100,00 769,39 450,00 0,00 0,00 0,00 0,00 0,00 1.983,14 30/11/2020
599 267600 ANIBAL TAMAOKI PROMOT.ENTRANC.ESPECIAL BELO HORIZONTE - COMARCA; BH-18PJ VIOLENCIA DOMESTICA-GAB 053PJ 1.100,00 0,00 895,44 0,00 3.368,91 0,00 0,00 0,00 1.029,39 30/11/2020
600 250900 ANISIO APARECIDO SANTOS OFICIAL DO MP MARIANA - COMARCA; MARIANA-PJ-02PJ 1.100,00 0,00 450,00 0,00 0,00 0,00 0,00 0,00 791,24 30/11/2020
601 651200 ANITA MARIA SANT ANA DE MATTOS FONTES OFICIAL DO MP ERVÁLIA - COMARCA; ERVALIA-PJ-UNPJ 1.100,00 0,00 450,00 0,00 0,00 0,00 0,00 0,00 657,01 30/11/2020
602 1012300 ANNA BEATRIZ ABREU OTONI ESTAGIARIO BELO HORIZONTE; COORD ESTADUAL DE DEFESA DOS ANIMAIS 0,00 0,00 0,00 54,00 0,00 0,00 0,00 0,00 0,00 30/11/2020
603 1183400 ANNA CAROLINA DE SENNA BARCANTE ESTAGIARIO FORMIGA; FORMIGA-PJ-04PJ 0,00 0,00 0,00 162,00 0,00 0,00 0,00 0,00 0,00 30/11/2020
604 1071400 ANNA CAROLINA POLICARIO BERTOLIN ESTAGIARIO BELO HORIZONTE; PROC. JUSTICA DIR. DIFUSOS E COLETIVOS
605 909900 ANNA CAROLINA TAVARES ASSUNCAO ESTAGIARIO UBERLANDIA; UBERLANDIA-PJ-24PJ 0,00 0,00 0,00 54,00 0,00 0,00 0,00 0,00 0,00 30/11/2020
606 253400 ANNA FLAVIA LEHMAN BATTAGLIA ANALISTA DO MP BELO HORIZONTE - COMARCA; CAO-PATRIMONIO PUBLICO 1.100,00 0,00 450,00 0,00 0,00 0,00 0,00 0,00 2.225,88 30/11/2020
607 1043200 ANNA FRANCIELE DA SILVA ESTAGIARIO BELO HORIZONTE; CAO-FUNDACOES 0,00 0,00 0,00 63,00 0,00 0,00 0,00 0,00 0,00 30/11/2020
608 1153400 ANNA GABRIELA SILVA SOUZA ESTAGIARIO UBERLANDIA; UBERLANDIA-PJ-02PJ 0,00 0,00 0,00 162,00 0,00 0,00 0,00 0,00 0,00 30/11/2020
609 1078100 ANNA LUISA BRAZ RODRIGUES ESTAGIARIO LAVRAS; LAVRAS-PJ-02PJ 0,00 0,00 0,00 180,00 0,00 0,00 0,00 0,00 0,00 30/11/2020
610 1190300 ANNA LUISA MARTINS NOGUEIRA ESTAGIARIO LAGOA SANTA; LAGOA SANTA - 03ª PJ 0,00 0,00 0,00 99,00 0,00 0,00 0,00 0,00 0,00 30/11/2020
611 688800 ANNA LUIZA MATTOS DUARTE ASSESSOR PROCURADOR JUSTICA BELO HORIZONTE - COMARCA; GABINETE DE PROCURADOR DE JUSTIÇA - SALA 305 1.100,00 0,00 450,00 0,00 0,00 0,00 0,00 0,00 0,00 30/11/2020
612 939900 ANNA LUIZA VIRTUOSO ESTAGIARIO IPATINGA; IPATINGA-PJ-04PJ 0,00 0,00 0,00 45,00 0,00 0,00 0,00 0,00 0,00 30/11/2020
613 1017900 ANNE VIEIRA TEODORAK PEGO ESTAGIARIO BELO HORIZONTE; BH-23PJ INFRACIONAL-GAB 142PJ 0,00 0,00 0,00 72,00 0,00 0,00 0,00 0,00 0,00 30/11/2020
614 447600 ANNGELUCE ALCANTARA DE CAMPOS OFICIAL DO MP DIVINÓPOLIS - COMARCA; DIVINOPOLIS-PJ-SECRETARIA 1.100,00 0,00 450,00 0,00 0,00 0,00 0,00 0,00 860,10 30/11/2020
615 119600 ANSELMO BORGES PARREIRAS OFICIAL DO MP BONFIM - COMARCA; BONFIM-PJ-UNPJ 1.100,00 0,00 450,00 0,00 0,00 0,00 0,00 0,00 1.176,64 30/11/2020
616 630300 ANTONIA GOMES RAMALHO OFICIAL DO MP NOVO CRUZEIRO - COMARCA; NOVO CRUZEIRO-PJ-UNPJ 1.100,00 1.538,78 450,00 0,00 0,00 0,00 0,00 0,00 470,92 30/11/2020
617 332400 ANTONIA MARIA MAMEDE OFICIAL DO MP UBERLÂNDIA - COMARCA; COORD REG PP TRIANGULO MINEIRO UBERLANDIA 1.100,00 0,00 450,00 0,00 0,00 0,00 0,00 0,00 1.131,44 30/11/2020
618 1010200 ANTONIO AFFONSO FERREIRA GUEDES ESTAGIARIO BELO HORIZONTE; CAO-ORDEM ECONOMICA E TRIBUTARIA-SECRETARIA 0,00 0,00 0,00 108,00 0,00 0,00 0,00 0,00 0,00 30/11/2020
619 73100 ANTONIO AURELIO SANTOS PROCURADOR DE JUSTICA BELO HORIZONTE - COMARCA; CAO-CONFLITOS AGRARIOS 1.100,00 0,00 2.558,40 0,00 5.910,37 0,00 0,00 0,00 1.300,28 30/11/2020
620 157300 ANTONIO BORGES DA SILVA PROMOTOR 2A ENTRANCIA SÃO LOURENÇO - COMARCA; SAO LOURENCO-PJ-02PJ 1.100,00 0,00 3.070,08 0,00 5.334,11 0,00 0,00 0,00 1.173,50 30/11/2020
621 401600 ANTONIO CARLOS GUEDES AROUCA ANALISTA DO MP BELO HORIZONTE - COMARCA; EXTINTA-COORD EST DEF DIR FAM PES DEFIC IDOSO 1.100,00 0,00 450,00 0,00 0,00 0,00 0,00 0,00 1.166,38 30/11/2020
622 76600 ANTONIO DE PADOVA MARCHI JUNIOR PROCURADOR DE JUSTICA BELO HORIZONTE - COMARCA; GABINETE DE PROCURADOR DE JUSTIÇA - SALA 1006 1.100,00 0,00 2.579,72 0,00 5.910,37 0,00 0,00 0,00 1.300,28 30/11/2020
623 101900 ANTONIO DIAS MAIA PROCURADOR DE JUSTICA BELO HORIZONTE - COMARCA; GABINETE DE PROCURADOR DE JUSTIÇA - SALA 808 1.100,00 0,00 2.558,40 0,00 3.546,22 0,00 0,00 0,00 1.083,57 30/11/2020
624 84600 ANTONIO DIOGO DA ROCHA PROMOTOR 1A ENTRANCIA BOTELHOS - COMARCA; BOTELHOS-PJ-UNPJ 1.100,00 0,00 2.558,40 0,00 5.067,40 0,00 0,00 0,00 1.114,83 30/11/2020
625 333900 ANTONIO GONCALVES DE SOUZA FILHO OFICIAL DO MP BELO HORIZONTE - COMARCA; DIRETORIA DE CONTABILIDADE 1.100,00 0,00 450,00 0,00 0,00 0,00 0,00 0,00 935,79 30/11/2020
626 340600 ANTONIO HENRIQUE FRANCO LOPES PROMOT.ENTRANC.ESPECIAL RIBEIRÃO DAS NEVES - COMARCA; RIBEIRAO DAS NEVES-PJ-07PJ 1.100,00 0,00 1.705,60 0,00 3.368,91 0,00 0,00 0,00 1.029,39 30/11/2020
627 67600 ANTONIO JOAQUIM SCHELLENBERGER FERNANDES PROCURADOR DE JUSTICA BELO HORIZONTE - COMARCA; PROC JUSTICA DIR DIFUSOS E COLETIVOS-GAB004 1.100,00 0,00 2.856,88 0,00 3.546,22 0,00 0,00 0,00 1.083,57 30/11/2020
628 77300 ANTONIO JOSE CHINELATO PROCURADOR DE JUSTICA BELO HORIZONTE - COMARCA; GABINETE DE PROCURADOR DE JUSTIÇA - SALA 1008 1.100,00 0,00 0,00 0,00 3.546,22 0,00 0,00 0,00 1.083,57 30/11/2020
629 211800 ANTONIO JOSE DE OLIVEIRA PROMOTOR 2A ENTRANCIA PASSOS - COMARCA; PASSOS-PJ-06PJ 1.100,00 0,00 3.006,12 0,00 5.334,11 0,00 0,00 0,00 1.173,50 30/11/2020
630 1003300 ANTONIO JOSE ZINATO DE CARVALHO ESTAGIARIO BELO HORIZONTE; PROC. JUSTICA CIVEL 0,00 0,00 0,00 144,00 0,00 0,00 0,00 0,00 0,00 30/11/2020
631 176100 ANTONIO MARCELO CAMPOS CAMPANELLA OFICIAL DO MP BELO HORIZONTE - COMARCA; COORD DE GABINETE DO PGJ 1.100,00 0,00 450,00 0,00 0,00 0,00 0,00 0,00 2.100,60 30/11/2020
632 1093700 ANTONIO MARZOLA PEREIRA JUNIOR ESTAGIARIO MACHADO; MACHADO-PJ-02PJ 0,00 0,00 0,00 180,00 0,00 0,00 0,00 0,00 0,00 30/11/2020
633 321001 ANTONIO OLINTO VIEIRA MACHADO ANALISTA DO MP BELO HORIZONTE - COMARCA; CENTRAL DE APOIO TECN-SETOR DE MEIO AMBIENTE 1.100,00 0,00 450,00 0,00 0,00 0,00 0,00 0,00 1.545,58 30/11/2020
634 356200 ANTONIO PAULA DA SILVA OFICIAL DO MP JUIZ DE FORA - COMARCA; JUIZ DE FORA-PJ-20PJ 1.100,00 0,00 450,00 0,00 0,00 0,00 0,00 0,00 2.140,84 30/11/2020
635 63400 ANTONIO PEDRO DA SILVA MELO PROMOT.ENTRANC.ESPECIAL SÃO JOÃO DEL REI - COMARCA; SAO JOAO DEL REI-PJ-01PJ 1.100,00 0,00 2.558,40 0,00 5.614,85 0,00 0,00 0,00 1.235,26 30/11/2020
636 119900 ANTONIO RODRIGUES DE PINHO OFICIAL DO MP GUANHÃES - COMARCA; GUANHAES-PJ-01PJ 1.100,00 769,39 450,00 0,00 0,00 0,00 0,00 0,00 2.378,16 30/11/2020
637 373300 ANTONIO SERGIO ANANIAS OFICIAL DO MP AIURUOCA - COMARCA; AIURUOCA-PJ-UNPJ 1.100,00 0,00 450,00 0,00 0,00 0,00 0,00 0,00 827,29 30/11/2020
638 93500 ANTONIO SERGIO ROCHA DE PAULA PROCURADOR DE JUSTICA BELO HORIZONTE - COMARCA; PROC JUSTICA DIR DIFUSOS E COLETIVOS-GAB003 1.100,00 0,00 3.493,28 0,00 0,00 0,00 0,00 0,00 0,00 30/11/2020
639 68700 ANTONIO SERGIO TONET PROCURADOR DE JUSTICA BELO HORIZONTE - COMARCA; PROCURADOR-GERAL DE JUSTICA- GABINETE 1.100,00 0,00 1.684,28 0,00 5.910,37 0,00 0,00 0,00 1.300,28 30/11/2020
640 608100 ANTONIO SIDINEY VIEIRA LEMOS ANALISTA DO MP PIRAPORA - COMARCA; PIRAPORA-PJ-01PJ 1.100,00 0,00 450,00 0,00 0,00 0,00 0,00 0,00 1.788,30 30/11/2020
641 374700 ANTONIO SILVA NETO OFICIAL DO MP BELO HORIZONTE - COMARCA; GAECO - SECRETARIA 1.100,00 0,00 450,00 0,00 0,00 0,00 0,00 0,00 863,40 30/11/2020
642 636700 ANTONIUS VITORIANO FERNANDES OFICIAL DO MP BELO HORIZONTE - COMARCA; ASSESSORIA JURIDICA DO PROCON-MG 1.100,00 0,00 450,00 0,00 0,00 0,00 0,00 0,00 411,51 30/11/2020
643 1188100 ANY KARLA DE SOUZA GOMES SANTOS ESTAGIARIO MEDINA; MEDINA-PJ-UNPJ 0,00 0,00 0,00 180,00 0,00 0,00 0,00 0,00 0,00 30/11/2020
644 413200 ANY PEREIRA SILVA ANALISTA DO MP TRÊS PONTAS - COMARCA; TRES PONTAS-PJ-01PJ 1.100,00 0,00 450,00 0,00 0,00 0,00 0,00 0,00 1.368,16 30/11/2020
645 151401 APARECIDA DE FATIMA MENDES DE ALMEIDA ASSESSOR JUIZ DE FORA - COMARCA; JUIZ DE FORA-PJ-SECRETARIA 1.100,00 0,00 450,00 0,00 0,00 0,00 0,00 0,00 451,79 30/11/2020
646 329300 APARECIDA MARIA MELO DE ASSIS OFICIAL DO MP BELO HORIZONTE - COMARCA; BH-18PJ DIREITOS HUMANOS-SECRETARIA 1.100,00 0,00 450,00 0,00 0,00 0,00 0,00 0,00 1.026,26 30/11/2020
647 475300 APARECIDA MARLENE FREIRE ROSA ANALISTA DO MP BELO HORIZONTE - COMARCA; BH-02PJ FAMILIA-SECRETARIA 1.100,00 0,00 450,00 0,00 0,00 0,00 0,00 0,00 1.871,90 30/11/2020
648 653000 APARECIDA ROSA DE LIMA ASSESSOR BELO HORIZONTE - COMARCA; SECRETARIA PROCESSOS DISCIPES ADMINISTRATIVOS 1.100,00 0,00 450,00 0,00 0,00 0,00 0,00 0,00 675,40 30/11/2020
649 354500 APARECIDA VIEIRA DE CARVALHO OFICIAL DO MP BELO HORIZONTE - COMARCA; DIVISÃO DE EDUCAÇÃO PARA O CONSUMO 1.100,00 0,00 450,00 0,00 0,00 0,00 0,00 0,00 890,98 30/11/2020
650 551000 ARACELES BICALHO FELIX ANALISTA DO MP MANHUAÇU - COMARCA; MANHUACU-PJ-02PJ 1.100,00 769,39 450,00 0,00 0,00 0,00 0,00 0,00 826,92 30/11/2020
651 286200 ARACELI MEDRADO DOS SANTOS LIMA OFICIAL DO MP PARACATU - COMARCA; PARACATU-PJ-03PJ 1.100,00 0,00 450,00 0,00 0,00 108,00 0,00 0,00 754,61 30/11/2020
652 112200 ARAQUEM AUGUSTO DE MATOS AGENTE DO MP BELO HORIZONTE - COMARCA; BH-23PJ CIVEL-SEC EXP CIVEIS 1.100,00 0,00 450,00 0,00 0,00 0,00 0,00 0,00 1.163,23 30/11/2020
653 280600 ARDUINO FRATTEZI ANALISTA DO MP BELO HORIZONTE - COMARCA; CENTRAL DE APOIO TECNICO-SETOR CONTABIL 1.100,00 0,00 450,00 0,00 0,00 0,00 0,00 0,00 2.030,39 30/11/2020
654 67700 ARESLAN EUSTAQUIO MARTINS PROMOTOR 1A ENTRANCIA CARMO DA MATA - COMARCA; CARMO DA MATA-PJ-UNPJ 1.100,00 0,00 2.963,48 0,00 5.067,40 0,00 0,00 0,00 1.114,83 30/11/2020
655 1090300 ARIADNE ALENCAR SOUZA ESTAGIARIO GOVERNADOR VALADARES; GOVERNADOR VALADARES-PJ-15PJ 0,00 0,00 0,00 180,00 0,00 0,00 0,00 0,00 0,00 30/11/2020
656 1178300 ARIANA DA SILVA MIRANDA ESTAGIARIO DIVINOPOLIS; DIVINOPOLIS-PJ-12PJ 0,00 0,00 0,00 117,00 0,00 0,00 0,00 0,00 90,50 30/11/2020
657 520201 ARIANE DE FATIMA CARVALHO ALMEIDA RODRIGUES ANALISTA DO MP VESPASIANO - COMARCA; VESPASIANO-PJ-04PJ 1.100,00 769,39 450,00 0,00 0,00 0,00 0,00 0,00 766,48 30/11/2020
658 1079800 ARICIA FERNANDES DRUMOND SOARES ESTAGIARIO BETIM; BETIM-PJ-04PJ 0,00 0,00 0,00 90,00 0,00 0,00 0,00 0,00 0,00 30/11/2020
659 1116700 ARIEL DE OLIVEIRA SANTOS ESTAGIARIO DIVINOPOLIS; DIVINOPOLIS-PJ-09PJ
660 537600 ARIELA FREIRE MONTIJO ANALISTA DO MP ARCOS - COMARCA; ARCOS-PJ-01PJ 1.100,00 769,39 450,00 0,00 0,00 0,00 0,00 0,00 815,00 30/11/2020
661 182000 ARILSON ALEXANDRE MARTINS MAGALHAES OFICIAL DO MP JOÃO MONLEVADE - COMARCA; JOAO MONLEVADE-PJ-01PJ 1.100,00 1.538,78 450,00 0,00 0,00 0,00 0,00 0,00 1.875,30 30/11/2020
662 511000 ARISLANE CAROLINA DA SILVA ANALISTA DO MP CAMPINA VERDE - COMARCA; CAMPINA VERDE-PJ-UNPJ 1.100,00 1.538,78 450,00 0,00 0,00 0,00 0,00 0,00 1.011,56 30/11/2020
663 212000 ARLEN DE OLIVEIRA FERNANDES PROMOT.ENTRANC.ESPECIAL BELO HORIZONTE - COMARCA; BH-12PJ JUIZO CRIMINAL-GAB 098PJ 1.100,00 0,00 2.302,56 0,00 3.368,91 0,00 0,00 0,00 1.029,39 30/11/2020
664 170000 ARLEY BRITES DA SILVA ASSESSOR BELO HORIZONTE - COMARCA; BH-14PJ DEFESA CONSUMIDOR-SECRETARIA 1.100,00 0,00 450,00 0,00 0,00 0,00 0,00 0,00 657,50 30/11/2020
665 120400 ARLINDO CASSIO DA CRUZ OFICIAL DO MP SÃO GONÇALO DO SAPUCAÍ - COMARCA; SAO GONCALO DO SAPUCAI-PJ-01PJ 1.100,00 0,00 450,00 0,00 0,00 0,00 0,00 0,00 2.046,65 30/11/2020
666 243700 ARLINDO MARCIO LACERDA OFICIAL DO MP CONTAGEM - COMARCA; CONTAGEM-PJ-SECRETARIA 1.100,00 0,00 450,00 0,00 0,00 0,00 1.445,27 0,00 1.786,35 30/11/2020
667 111900 ARNALDO ALVES SOARES PROCURADOR DE JUSTICA BELO HORIZONTE - COMARCA; GABINETE DE PROCURADOR DE JUSTIÇA - SALA 306 1.100,00 0,00 3.546,22 0,00 3.546,22 0,00 0,00 0,00 1.083,57 30/11/2020
668 392100 ARNALDO DE ANDRADE OFICIAL DO MP DIVINÓPOLIS - COMARCA; DIVINOPOLIS-PJ-02PJ 1.100,00 769,39 450,00 0,00 0,00 0,00 1.445,27 0,00 1.113,22 30/11/2020
669 75900 ARNALDO GOMES RIBEIRO PROCURADOR DE JUSTICA BELO HORIZONTE - COMARCA; GABINETE DE PROCURADOR DE JUSTIÇA - SALA 602 1.100,00 0,00 0,00 0,00 5.910,37 0,00 0,00 0,00 1.300,28 30/11/2020
670 642400 ARTANE INARDE DE SIQUEIRA DAMASCENO ANALISTA DO MP BELO HORIZONTE - COMARCA; PROC JUST RECURSOS ESP E EXTRAORD CRIMINAIS 1.100,00 769,39 450,00 0,00 0,00 0,00 0,00 0,00 702,57 30/11/2020
671 1145900 ARTEMIS RIBEIRO DE NORONHA ESTAGIARIO SAO LOURENCO; SAO LOURENCO-PJ-02PJ 0,00 0,00 0,00 81,00 0,00 0,00 0,00 0,00 0,00 30/11/2020
672 1006500 ARTHUR BRANDAO ALBUQUERQUE ESTAGIARIO BELO HORIZONTE; DIV FISCAL ADM CONT TERCEIRIZACAO 0,00 0,00 0,00 180,00 0,00 0,00 0,00 0,00 0,00 30/11/2020
673 991200 ARTHUR DE SOUZA MENEZES ESTAGIARIO CASSIA; CASSIA-PJ-02PJ 0,00 0,00 0,00 171,00 0,00 0,00 0,00 0,00 0,00 30/11/2020
674 1070400 ARTHUR ESPINDULA VILAS ESTAGIARIO RESPLENDOR; RESPLENDOR-PJ-UNPJ 0,00 0,00 0,00 153,00 0,00 0,00 0,00 0,00 0,00 30/11/2020
675 1146000 ARTHUR FELIX VELAME ESTAGIARIO GOVERNADOR VALADARES; GOVERNADOR VALADARES-PJ-16PJ 0,00 0,00 0,00 180,00 0,00 0,00 0,00 0,00 0,00 30/11/2020
676 1085200 ARTHUR JOSE RODRIGUES CARVALHO ESTAGIARIO BELO HORIZONTE; DSMT-LABORATORIO DE MANUTENCAO 0,00 0,00 0,00 189,00 0,00 0,00 0,00 0,00 0,00 30/11/2020
677 1125200 ARTHUR JOSE VIEIRA GOMES SALES ESTAGIARIO BELO HORIZONTE; GABINETE DE PROCURADOR DE JUSTIÇA - SALA 713 0,00 0,00 0,00 144,00 0,00 0,00 0,00 0,00 0,00 30/11/2020
678 1119700 ARTHUR POZAM GARRIDO ESTAGIARIO 0,00 0,00 0,00 135,00 0,00 0,00 0,00 0,00 0,00 30/11/2020
679 1168200 ARTHUR RICART DA COSTA NETO ESTAGIARIO SAO JOAO DEL REI; SAO JOAO DEL REI-PJ-05PJ 0,00 0,00 0,00 81,00 0,00 0,00 0,00 0,00 0,00 30/11/2020
680 1181100 ARTUR FONTE BOA TEOFILO ESTAGIARIO BELO HORIZONTE; DIRET DE ESTAGIOS E CONVENIOS ACADEMICOS 0,00 0,00 0,00 243,00 0,00 0,00 0,00 0,00 0,00 30/11/2020
681 221400 ARTUR FORSTER GIOVANNINI PROMOTOR 2A ENTRANCIA TRÊS PONTAS - COMARCA; TRES PONTAS-PJ-01PJ 1.100,00 0,00 2.994,64 0,00 5.334,11 0,00 0,00 0,00 1.173,50 30/11/2020
682 1096900 ARTUR FRANCISCO DURAES BATISTA ESTAGIARIO 0,00 0,00 0,00 72,00 0,00 0,00 0,00 0,00 0,00 30/11/2020
683 1167800 ARTUR TAVARES PEREIRA SOARES ESTAGIARIO BELO HORIZONTE; BH-09PJ AUDITORIA MILITAR-GAB 161PJ
684 313500 ARY PEDROSA BITTENCOURT PROMOT.ENTRANC.ESPECIAL SANTA LUZIA - COMARCA; SANTA LUZIA-PJ-05PJ 1.100,00 0,00 1.599,00 0,00 3.368,91 0,00 0,00 0,00 1.029,39 30/11/2020
685 1104000 ASTROGILDO JUNIOR KRUL MACIEL ESTAGIARIO GOVERNADOR VALADARES; COOR REG APOIO COM INC MOB VALE DO RIO DOCE
686 1067900 ATENAS CRISTINI DE LACERDA E RODRIGUES ESTAGIARIO VICOSA; VICOSA-PJ-02PJ 0,00 0,00 0,00 144,00 0,00 0,00 0,00 0,00 0,00 30/11/2020
687 315700 ATHAIDE FRANCISCO PERES OLIVEIRA PROMOTOR 2A ENTRANCIA PATOS DE MINAS - COMARCA; COORD REG BACIAS PARACATU,URUCUIA E ABAETE 1.100,00 0,00 2.878,20 0,00 0,00 0,00 0,00 0,00 0,00 30/11/2020
688 1181000 AUGUSTO CARMACIO ESTAGIARIO VARGINHA; COORD REG PJ DEF EDUC DIR CRIANCA ADOL SUL 0,00 0,00 0,00 108,00 0,00 0,00 0,00 0,00 0,00 30/11/2020
689 666600 AUGUSTO REIS BALLARDIM PROMOTOR 1A ENTRANCIA ITAMARANDIBA - COMARCA; ITAMARANDIBA-PJ-UNPJ 1.100,00 0,00 1.407,12 0,00 3.040,44 0,00 0,00 0,00 929,03 30/11/2020
690 302100 AUGUSTO ROUSSEAU DE CASTRO ANALISTA DO MP CATAGUASES - COMARCA; CATAGUASES-PJ-02PJ 1.100,00 0,00 450,00 0,00 0,00 0,00 0,00 0,00 2.006,38 30/11/2020
691 540200 AUREA AVELAR BITTENCOURT OFICIAL DO MP BELO HORIZONTE - COMARCA; GRUPO ESP PROM JUST DEF PROB ADM PAT PUB 1.100,00 0,00 450,00 0,00 0,00 0,00 0,00 0,00 479,80 30/11/2020
692 183200 AURELIANO MAGELA DE REZENDE COORDENADOR/OFICIAL BELO HORIZONTE - COMARCA; COORD DE GABINETE DO PGJ 1.100,00 0,00 450,00 0,00 0,00 0,00 0,00 0,00 2.116,33 30/11/2020
693 106500 AVAIDE MARCOS MARIANO PROMOT.ENTRANC.ESPECIAL UBERLÂNDIA - COMARCA; UBERLANDIA-PJ-13PJ 1.100,00 0,00 1.279,20 0,00 5.614,85 0,00 0,00 0,00 1.235,26 30/11/2020
694 629400 AYESKA DA COSTA VAL MOURA DABIEN OFICIAL DO MP BELO HORIZONTE - COMARCA; SUPERINTENDENCIA GESTÃO DE PESSOAS 1.100,00 0,00 450,00 0,00 0,00 0,00 0,00 0,00 473,03 30/11/2020
695 151800 AYLOR LUIZ MEIRELLES JUNIOR PROMOTOR 2A ENTRANCIA SÃO DOMINGOS DO PRATA - COMARCA; SAO DOMINGOS DO PRATA-PJ-UNPJ 1.100,00 0,00 2.153,32 0,00 5.334,11 0,00 0,00 0,00 1.173,50 30/11/2020
696 1122200 AYMEE JOHANSSENN TYNEE CORREIA ALVES ESTAGIARIO NOVA LIMA; NOVA LIMA-PJ-01PJ 0,00 0,00 0,00 90,00 0,00 0,00 0,00 0,00 0,00 30/11/2020
697 1152400 AYUME PINTO OLIVEIRA ESTAGIARIO AGUAS FORMOSAS; AGUAS FORMOSAS-PJ-UNPJ 0,00 0,00 0,00 180,00 0,00 0,00 0,00 0,00 0,00 30/11/2020
698 1130600 BARBARA APARECIDA RODRIGUES DE CASTRO ESTAGIARIO MARTINHO CAMPOS; MARTINHO CAMPOS-PJ-UNPJ 0,00 0,00 0,00 135,00 0,00 0,00 0,00 0,00 0,00 30/11/2020
699 1036600 BARBARA CANELLA CORREA ESTAGIARIO VARGINHA; VARGINHA-PJ-06PJ 0,00 0,00 0,00 180,00 0,00 0,00 0,00 0,00 0,00 30/11/2020
700 1051900 BARBARA CHAVES OLIVEIRA ESTAGIARIO BELO HORIZONTE; PROC. JUSTICA DIR. DIFUSOS E COLETIVOS
701 1087100 BARBARA CLAUDINO GUIMARAES DIAS ESTAGIARIO BELO HORIZONTE; BH-09PJ AUDITORIA MILITAR-GAB 002PJ
702 1150900 BARBARA COSTA ALVES ESTAGIARIO MONTES CLAROS; MONTES CLAROS-PJ-SECRETARIA 0,00 0,00 0,00 108,00 0,00 0,00 0,00 0,00 0,00 30/11/2020
703 691900 BARBARA COUTINHO REIS ASSESSOR PROCURADOR JUSTICA BELO HORIZONTE - COMARCA; GABINETE DE PROCURADOR DE JUSTIÇA - SALA 912 1.100,00 0,00 450,00 0,00 0,00 0,00 0,00 0,00 0,00 30/11/2020
704 1069000 BARBARA CRISTINA MENDES BANDEIRA DE MELO ESTAGIARIO BELO HORIZONTE; GABINETE DE PROCURADOR DE JUSTIÇA - SALA 1009 0,00 0,00 0,00 0,00 602,50 0,00 0,00 0,00 0,00 30/11/2020
705 692200 BARBARA CRISTINA MENDES BANDEIRA DE MELO ASSESSOR PROCURADOR JUSTICA BELO HORIZONTE - COMARCA; GABINETE DE PROCURADOR DE JUSTIÇA - SALA 1009 1.100,00 0,00 450,00 0,00 0,00 0,00 0,00 0,00 0,00 30/11/2020
706 1163600 BARBARA CRISTINA SOUZA E SOUSA ESTAGIARIO BELO HORIZONTE; BH-23PJ INFRACIONAL 0,00 0,00 0,00 72,00 0,00 0,00 0,00 0,00 0,00 30/11/2020
707 1030400 BARBARA CRISTINA TAVARES CARNEIRO ESTAGIARIO BELO HORIZONTE; PROC. JUSTICA CRIMINAL 0,00 0,00 0,00 81,00 0,00 0,00 0,00 0,00 0,00 30/11/2020
708 1134200 BARBARA DANIELA ELIAS JAQUES ESTAGIARIO PRADOS; PRADOS-PJ-UNPJ 0,00 0,00 0,00 189,00 0,00 0,00 0,00 0,00 0,00 30/11/2020
709 1118700 BARBARA DE MELO CARNEIRO ESTAGIARIO 0,00 0,00 0,00 81,00 0,00 0,00 0,00 0,00 0,00 30/11/2020
710 1168500 BARBARA DE OLIVEIRA ALVES ESTAGIARIO MANTENA; MANTENA-PJ-03PJ 0,00 0,00 0,00 108,00 0,00 0,00 0,00 0,00 0,00 30/11/2020
711 1168400 BARBARA DE SOUSA LIMA MELO ESTAGIARIO BELO HORIZONTE; PROMOT ESTADUAL DE DEF PATRI CULT E TUR DE MG 0,00 0,00 0,00 36,00 0,00 0,00 0,00 0,00 0,00 30/11/2020
712 1166500 BARBARA FERNANDES AMARAL ESTAGIARIO GOVERNADOR VALADARES; GOVERNADOR VALADARES-PJ-04PJ 0,00 0,00 0,00 180,00 0,00 0,00 0,00 0,00 0,00 30/11/2020
713 314700 BARBARA FRANCINE PRETTE NUNES PROMOTOR 1A ENTRANCIA PERDIZES - COMARCA; PERDIZES-PJ-UNPJ 1.100,00 0,00 2.217,28 0,00 5.067,40 0,00 0,00 0,00 1.114,83 30/11/2020
714 652800 BARBARA JULIANNE MOREIRA CASTRO ASSESSOR BELO HORIZONTE - COMARCA; ASSESS TECNICO-JUR JUNTO AS PROC. DE JUST 1.100,00 0,00 450,00 0,00 0,00 0,00 0,00 0,00 774,17 30/11/2020
715 1089900 BARBARA LOURENCO LIMA ESTAGIARIO JANAUBA; JANAUBA-PJ-02PJ 0,00 0,00 0,00 189,00 0,00 0,00 0,00 0,00 0,00 30/11/2020
716 1140000 BARBARA MAIA DE MEDEIROS ESTAGIARIO JUIZ DE FORA; JUIZ DE FORA-PJ-03PJ 0,00 0,00 0,00 108,00 0,00 0,00 0,00 0,00 0,00 30/11/2020
717 1078500 BARBARA MARIA COSTA PEREIRA ESTAGIARIO MONTES CLAROS; MONTES CLAROS-PJ-12PJ 0,00 0,00 0,00 180,00 0,00 0,00 0,00 0,00 0,00 30/11/2020
718 1074400 BARBARA MARKIAZI LIMA GALVAO ESTAGIARIO DIVINOPOLIS; DIVINOPOLIS-PJ-13PJ 0,00 0,00 0,00 90,00 0,00 0,00 0,00 0,00 0,00 30/11/2020
719 666500 BARBARA MARTINS DE SOUZA PROMOTOR 2A ENTRANCIA MANTENA - COMARCA; MANTENA-PJ-02PJ 1.100,00 0,00 703,56 0,00 3.200,47 0,00 0,00 0,00 977,92 30/11/2020
720 1168100 BARBARA MIRANDA MEDRADO DE SOUZA ESTAGIARIO BELO HORIZONTE; ASSESSORIA ESPECIAL DO PGJ 0,00 0,00 0,00 90,00 0,00 0,00 0,00 0,00 0,00 30/11/2020
721 944000 BARBARA QUEIROZ FONSECA ESTAGIARIO PATOS DE MINAS; PATOS DE MINAS-PJ-02PJ 0,00 0,00 0,00 189,00 0,00 0,00 0,00 0,00 0,00 30/11/2020
722 663600 BARBARA REGINA PEREIRA DE PINHO MAGALHAES ASSESSOR BELO HORIZONTE - COMARCA; CAO-DH CONT EXT ATIV POLIC E AP COMUNIT-REC 1.100,00 0,00 450,00 0,00 0,00 0,00 0,00 0,00 568,41 30/11/2020
723 1034600 BARBARA REZENDE SILVEIRA BAIA ALVES ESTAGIARIO BELO HORIZONTE; PROC. JUSTICA CRIMINAL 0,00 0,00 0,00 99,00 321,33 0,00 0,00 0,00 0,00 30/11/2020
724 685500 BARBARA RODRIGUES DE PAULA PROMOTOR SUBSTITUTO JOÃO MONLEVADE - COMARCA; JOAO MONLEVADE-PJ-03PJ 1.100,00 0,00 596,96 0,00 0,00 0,00 0,00 0,00 0,00 30/11/2020
725 1111100 BARBARA RODRIGUES SOUZA ESTAGIARIO ITAPECERICA; ITAPECERICA-PJ-UNPJ 0,00 0,00 0,00 72,00 0,00 0,00 0,00 0,00 0,00 30/11/2020
726 1003200 BARBARA SANTOS SILVA ESTAGIARIO PAINS; ALFENAS-PJ-03PJ
727 692400 BARBARA SOUZA OLIVEIRA ASSESSOR PROMOTOR JUSTICA DIVINO - COMARCA; DIVINO-PJ-UNPJ 1.100,00 0,00 450,00 0,00 0,00 0,00 0,00 0,00 0,00 30/11/2020
728 546500 BARBARA ZACARONI GOULART OFICIAL DO MP BETIM - COMARCA; BETIM-PJ-08PJ 1.100,00 0,00 450,00 0,00 0,00 0,00 0,00 0,00 543,36 30/11/2020
729 316500 BEATRIZ ABILVIA DA SILVA ANALISTA DO MP GOVERNADOR VALADARES - COMARCA; GOVERNADOR VALADARES-PJ-07PJ 1.100,00 0,00 450,00 0,00 0,00 0,00 0,00 0,00 4.085,69 30/11/2020
730 311800 BEATRIZ APARECIDA SOARES GANEM OFICIAL DO MP ITAMBACURI - COMARCA; ITAMBACURI-PJ-02PJ 1.100,00 0,00 450,00 0,00 0,00 0,00 0,00 0,00 1.292,63 30/11/2020
731 1085300 BEATRIZ ARANHA QUINTAO ESTAGIARIO BELO HORIZONTE; BH-07PJ 02 TRIBUNAL DO JURI-GAB 063PJ 0,00 0,00 0,00 0,00 392,17 0,00 0,00 0,00 0,00 30/11/2020
732 266800 BEATRIZ AUGUSTA VILACA GOMES DE HUBER OFICIAL DO MP BELO HORIZONTE - COMARCA; BH-05PJ-JUÍZO SUCESSÕES-SEC 1.100,00 0,00 450,00 0,00 0,00 0,00 0,00 0,00 1.143,00 30/11/2020
733 1122400 BEATRIZ BIANCO HELENA ESTAGIARIO POCOS DE CALDAS; POCOS DE CALDAS-PJ-05PJ 0,00 0,00 0,00 180,00 0,00 0,00 0,00 0,00 0,00 30/11/2020
734 235200 BEATRIZ BOTELHO BATISTA OFICIAL DO MP BELO HORIZONTE - COMARCA; BH-21PJ TUTELA FUNDACOES-SECRETARIA 1.100,00 0,00 450,00 0,00 0,00 0,00 0,00 0,00 1.186,05 30/11/2020
735 1109800 BEATRIZ OLIVEIRA SILVA ESTAGIARIO NOVA LIMA; NOVA LIMA-PJ-01PJ 0,00 0,00 0,00 153,00 0,00 0,00 0,00 0,00 0,00 30/11/2020
736 182300 BEATRIZ PAULA SOUSA RAMOS OFICIAL DO MP MARIANA - COMARCA; MARIANA-PJ-01PJ 1.100,00 0,00 450,00 0,00 0,00 0,00 0,00 0,00 1.686,82 30/11/2020
737 1018600 BEATRIZ PERES FURLANI ESTAGIARIO UBA; COORD REG BACIA DO RIO PARAIBA DO SUL
738 906300 BEATRIZ REIS ABREU ESTAGIARIO MONTES CLAROS; MONTES CLAROS-PJ-01PJ 0,00 0,00 0,00 153,00 0,00 0,00 0,00 0,00 0,00 30/11/2020
739 1063700 BEATRIZ ROMEIRO DO CARMO ESTAGIARIO MANHUMIRIM; MANHUMIRIM-PJ-01PJ 0,00 0,00 0,00 171,00 0,00 0,00 0,00 0,00 0,00 30/11/2020
740 964400 BEATRIZ SIMAS TELES ROMANO ESTAGIARIO BELO HORIZONTE; PROC. JUSTICA DE HABEAS CORPUS
741 1184300 BEATRIZ SOUSA LACERDA ESTAGIARIO 0,00 0,00 0,00 72,00 0,00 0,00 0,00 0,00 0,00 30/11/2020
742 1079900 BEATRIZ VIEIRA COSTA ESTAGIARIO BELO HORIZONTE; BH-12PJ JUIZO CRIMINAL-GAB 083PJ 0,00 0,00 0,00 63,00 0,00 0,00 0,00 0,00 0,00 30/11/2020
743 507000 BELCHIOR FRANKLIN AMARAL LEITE ANALISTA DO MP BELO HORIZONTE - COMARCA; CENTRAL DE APOIO TECNICO 1.100,00 769,39 450,00 0,00 0,00 0,00 0,00 0,00 1.717,59 30/11/2020
744 345100 BENITO ELIAS RODRIGUES ANALISTA DO MP BARBACENA - COMARCA; BARBACENA - SECRETARIA DAS PJS CRIMINAIS 1.100,00 0,00 450,00 0,00 0,00 0,00 0,00 0,00 2.089,43 30/11/2020
745 207300 BENITO VIEIRA DOS SANTOS ANALISTA DO MP BELO HORIZONTE - COMARCA; PROC JUST ESP ACOES COMP ORIG CRIMINAL-ASSESS 1.100,00 0,00 450,00 0,00 0,00 0,00 0,00 0,00 2.581,18 30/11/2020
746 84700 BERGSON CARDOSO GUIMARAES PROMOTOR 2A ENTRANCIA CAXAMBU - COMARCA; CAXAMBU-PJ-UNPJ 1.100,00 0,00 2.771,60 0,00 10.668,22 0,00 0,00 0,00 0,00 30/11/2020
747 480200 BERNADETE NUNES DOS SANTOS ANALISTA DO MP GUANHÃES - COMARCA; GUANHAES-PJ-02PJ 1.100,00 0,00 450,00 0,00 0,00 0,00 0,00 0,00 1.195,30 30/11/2020
748 969400 BERNARDO ALVES GOMES ESTAGIARIO BELO HORIZONTE; BH-15PJ M AMB PAT HIST CULT-GAB 116PJ 0,00 0,00 0,00 72,00 0,00 0,00 0,00 0,00 0,00 30/11/2020
749 1006600 BERNARDO DE ALMEIDA VIEIRA ESTAGIARIO SAO JOAO DEL REI; SAO JOAO DEL REI-PJ-03PJ
750 456700 BERNARDO DE MOURA LIMA PAIVA JEHA PROMOTOR 2A ENTRANCIA CARMO DO PARANAÍBA - COMARCA; CARMO DO PARANAIBA-PJ-01PJ 1.100,00 0,00 2.451,80 0,00 0,00 0,00 0,00 0,00 293,38 30/11/2020
751 666800 BERNARDO DUMONT PIRES PROMOT.ENTRANC.ESPECIAL PEDRA AZUL - COMARCA; PEDRA AZUL-PJ-01PJ 1.100,00 0,00 703,56 0,00 3.368,91 0,00 0,00 0,00 993,36 30/11/2020
752 995400 BERNARDO MARTINS FERREIRA DE MELLO ESTAGIARIO BELO HORIZONTE; BH-07PJ 01 TRIBUNAL DO JURI-GAB 065PJ 0,00 0,00 0,00 63,00 0,00 0,00 0,00 0,00 0,00 30/11/2020
753 1099400 BERNARDO PIFANO DE CASTRO ESTAGIARIO JUIZ DE FORA; JUIZ DE FORA-PJ-10PJ 0,00 0,00 0,00 153,00 0,00 0,00 0,00 0,00 0,00 30/11/2020
754 74300 BERTOLDO MATEUS DE OLIVEIRA FILHO PROCURADOR DE JUSTICA BELO HORIZONTE - COMARCA; GABINETE DE PROCURADOR DE JUSTIÇA - SALA 903 1.100,00 0,00 2.451,80 0,00 5.910,37 0,00 0,00 0,00 1.300,28 30/11/2020
755 162900 BETANIA CABRAL DE PINA LARCHER PROMOT.ENTRANC.ESPECIAL CONTAGEM - COMARCA; CONTAGEM-PJ-18PJ 1.100,00 0,00 980,72 0,00 0,00 0,00 0,00 0,00 0,00 30/11/2020
756 378400 BETANIA FARNESI DE SOUZA E SILVA OFICIAL DO MP SETE LAGOAS - COMARCA; SETE LAGOAS-PJ-SEC CRIMINAIS 1.100,00 0,00 450,00 0,00 30,47 0,00 0,00 0,00 1.013,74 30/11/2020
757 387400 BETANIA MENDONCA DE ASSIS CARVALHO ANALISTA DO MP JUIZ DE FORA - COMARCA; JUIZ DE FORA-PJ-03PJ 1.100,00 769,39 450,00 0,00 0,00 0,00 0,00 0,00 1.412,25 30/11/2020
758 1147500 BETHANIA MORENA RODRIGUES GOMES ESTAGIARIO RIBEIRAO DAS NEVES; RIBEIRAO DAS NEVES-PJ-10PJ 0,00 0,00 0,00 162,00 0,00 0,00 0,00 0,00 0,00 30/11/2020
759 926600 BIANCA ARRUDA MOREIRA ESTAGIARIO MUTUM; MUTUM-PJ-UNPJ 0,00 0,00 0,00 171,00 0,00 0,00 0,00 0,00 0,00 30/11/2020
760 1192800 BIANCA CRISTINA PORTES ESTAGIARIO BARBACENA; BARBACENA - SECRETARIA DAS PJS CRIMINAIS 0,00 0,00 0,00 126,00 0,00 0,00 0,00 0,00 0,00 30/11/2020
761 1033900 BIANCA CRISTINA SOUZA ESTAGIARIO PATOS DE MINAS; PATOS DE MINAS-PJ-04PJ 0,00 0,00 0,00 189,00 0,00 0,00 0,00 0,00 0,00 30/11/2020
762 1108000 BIANCA DE CASTRO RAMOS ESTAGIARIO CONTAGEM; CONTAGEM-PJ-20PJ 0,00 0,00 0,00 72,00 0,00 0,00 0,00 0,00 0,00 30/11/2020
763 1025000 BIANCA DE OLIVEIRA BORGES ESTAGIARIO ITUIUTABA; ITUIUTABA-PJ-03PJ 0,00 0,00 0,00 117,00 0,00 0,00 0,00 0,00 0,00 30/11/2020
764 1115600 BIANCA EDUARDA RIBEIRO COSTA ESTAGIARIO UBERABA; UBERABA-PJ-05PJ 0,00 0,00 0,00 63,00 0,00 0,00 0,00 0,00 0,00 30/11/2020
765 450300 BIANCA OLIVEIRA DE ALBUQUERQUE ANALISTA DO MP BELO HORIZONTE - COMARCA; BH-10PJ EXECUÇÃO PENAL-SECRETARIA 1.100,00 0,00 450,00 0,00 0,00 0,00 0,00 0,00 971,28 30/11/2020
766 1136100 BIANCA RIBEIRO BORGES ESTAGIARIO BELO HORIZONTE; BH-12PJ JUIZO CRIMINAL-GAB 086PJ 0,00 0,00 0,00 189,00 0,00 0,00 0,00 0,00 0,00 30/11/2020
767 535400 BIANCA SALOTO ROSSI ANALISTA DO MP SANTOS DUMONT - COMARCA; SANTOS DUMONT-PJ-01PJ 1.100,00 0,00 450,00 0,00 0,00 0,00 0,00 0,00 810,11 30/11/2020
768 120800 BRAS MARQUES DE SOUZA ANALISTA DO MP BELO HORIZONTE - COMARCA; SUPERINTENDENCIA DE GESTAO ADMINISTRATIVA 1.100,00 0,00 450,00 0,00 0,00 0,00 0,00 0,00 0,00 30/11/2020
769 1179500 BRENDA ALCANTARA RAMALHO ESTAGIARIO BETIM; BETIM-PJ-03PJ 0,00 0,00 0,00 189,00 0,00 0,00 0,00 0,00 0,00 30/11/2020
770 1084600 BRENDA ALEIXA DIAS DA SILVA ESTAGIARIO ITABIRA; ITABIRA-PJ-01PJ
771 1159100 BRENDA CUSTODIO DE ABREU ESTAGIARIO CONCEICAO DAS ALAGOAS; CONCEICAO DAS ALAGOAS-PJ-01PJ 0,00 0,00 0,00 126,00 0,00 0,00 0,00 0,00 0,00 30/11/2020
772 1127000 BRENDA LORENA DE ALMEIDA ESTAGIARIO CONTAGEM; CONTAGEM-PJ-09PJ 0,00 0,00 0,00 153,00 0,00 0,00 0,00 0,00 0,00 30/11/2020
773 1189700 BRENDA LORRANA FRANCO ESTAGIARIO UBERLANDIA; UBERLANDIA-PJ-20PJ 0,00 0,00 0,00 162,00 0,00 0,00 0,00 0,00 0,00 30/11/2020
774 1034500 BRENDA LUIZA SILVA FERREIRA ESTAGIARIO BELO HORIZONTE; PROC. JUSTICA DIR. DIFUSOS E COLETIVOS
775 1179600 BRENDA SILVA ROCHA ESTAGIARIO BELO HORIZONTE; PROC. JUSTICA DE HABEAS CORPUS
776 937600 BRENNO VINICIUS MAGESTE ROSA ESTAGIARIO MANHUACU; MANHUACU-PJ-02PJ 0,00 0,00 0,00 162,00 0,00 0,00 0,00 0,00 0,00 30/11/2020
777 372400 BRENO COSTA DA SILVA COELHO PROMOTOR 2A ENTRANCIA VISCONDE DO RIO BRANCO - COMARCA; GAECO REGIONAL ZONA MATA-VISCONDE RIO BRANCO 1.100,00 0,00 2.025,40 0,00 3.200,47 0,00 0,00 0,00 977,92 30/11/2020
778 460900 BRENO CRISTIANO DE SOUZA REZENDE ANALISTA DO MP ITAÚNA - COMARCA; ITAUNA-PJ-02PJ 1.100,00 0,00 450,00 0,00 0,00 0,00 0,00 0,00 1.964,92 30/11/2020
779 969300 BRENO DIAS ROCHA ESTAGIARIO BELO HORIZONTE; SUPERINTENDENCIA DOS ORGAOS COLEGIADOS
780 966000 BRENO HENRIQUE FREITAS DE CARVALHO ESTAGIARIO FRUTAL; FRUTAL-PJ-01PJ 0,00 0,00 0,00 45,00 0,00 0,00 0,00 0,00 0,00 30/11/2020
781 96700 BRENO LINHARES LINTZ PROMOT.ENTRANC.ESPECIAL UBERLÂNDIA - COMARCA; UBERLANDIA-PJ-10PJ 1.100,00 0,00 0,00 0,00 5.614,85 0,00 0,00 0,00 1.235,26 30/11/2020
782 439500 BRENO MAX DE JESUS SILVEIRA PROMOTOR 2A ENTRANCIA CARANGOLA - COMARCA; CARANGOLA-PJ-02PJ 1.100,00 0,00 895,44 0,00 3.200,47 0,00 0,00 0,00 977,92 30/11/2020
783 439300 BRENO NASCIMENTO PACHECO PROMOTOR 2A ENTRANCIA PATROCÍNIO - COMARCA; PATROCINIO-PJ-01PJ 1.100,00 0,00 2.878,20 0,00 3.200,47 0,00 0,00 0,00 977,92 30/11/2020
784 239000 BRENO VENANCIO ROMANINI OFICIAL DO MP BELO HORIZONTE - COMARCA; BH-20PJ ORD ECON TRIBUTARIA-SECRETARIA 1.100,00 0,00 450,00 0,00 3.665,34 0,00 0,00 0,00 1.582,27 30/11/2020
785 1106200 BRIAN ATHER MARTINS ESTAGIARIO BARBACENA; BARBACENA-PJ-09PJ 0,00 0,00 0,00 99,00 0,00 0,00 0,00 0,00 0,00 30/11/2020
786 202201 BRIGITTE AMARALINA DE CALDAS LIMA OFICIAL DO MP NANUQUE - COMARCA; NANUQUE-PJ-03PJ 1.100,00 0,00 450,00 0,00 0,00 0,00 0,00 0,00 1.402,36 30/11/2020
787 1092100 BRUNA ALMEIDA LOPES ESTAGIARIO JUIZ DE FORA; JUIZ DE FORA-PJ-07PJ 0,00 0,00 0,00 54,00 0,00 0,00 0,00 0,00 0,00 30/11/2020
788 1030300 BRUNA ARRUDA PRATES ESTAGIARIO BELO HORIZONTE; BH-09PJ AUDITORIA MILITAR-GAB 161PJ 0,00 0,00 0,00 36,00 0,00 0,00 0,00 0,00 0,00 30/11/2020
789 659300 BRUNA BODONI FACCIOLI PROMOTOR 2A ENTRANCIA NANUQUE - COMARCA; NANUQUE-PJ-01PJ 1.100,00 0,00 1.717,12 0,00 5.334,11 0,00 0,00 0,00 1.173,50 30/11/2020
790 1146500 BRUNA BOTELHO BUERI ESTAGIARIO DIAMANTINA; DIAMANTINA-PJ-02PJ 0,00 0,00 0,00 18,00 401,67 0,00 0,00 0,00 0,00 30/11/2020
791 1085600 BRUNA CARLA ALVES ESTAGIARIO SAO JOAO DEL REI; SAO JOAO DEL REI-PJ-04PJ 0,00 0,00 0,00 180,00 0,00 0,00 0,00 0,00 0,00 30/11/2020
792 962800 BRUNA CAROLINE LIMA ESTAGIARIO BELO HORIZONTE; BH-18PJ VIOLENCIA DOMESTICA-GAB 186PJ 0,00 0,00 0,00 135,00 0,00 0,00 0,00 0,00 0,00 30/11/2020
793 1010700 BRUNA CAROLINE VIANA DE LIMA ESTAGIARIO POUSO ALEGRE; POUSO ALEGRE-PJ-04PJ 0,00 0,00 0,00 171,00 0,00 0,00 0,00 0,00 0,00 30/11/2020
794 1153500 BRUNA DA CUNHA SILVA ESTAGIARIO BARBACENA; BARBACENA-PJ-04PJ 0,00 0,00 0,00 189,00 0,00 0,00 0,00 0,00 0,00 30/11/2020
795 1082600 BRUNA DE CASTRO VIEIRA ESTAGIARIO GOVERNADOR VALADARES; GOVERNADOR VALADARES-PJ-07PJ 0,00 0,00 0,00 27,00 0,00 0,00 0,00 0,00 0,00 30/11/2020
796 998700 BRUNA DE PAULA SANTOS ESTAGIARIO BELO HORIZONTE; OUVIDORIA DO MPMG 0,00 0,00 0,00 81,00 90,50 0,00 0,00 0,00 0,00 30/11/2020
797 1160000 BRUNA DEMETRIO PEREIRA ESTAGIARIO BELO HORIZONTE; BH-18PJ VIOLENCIA DOMESTICA 0,00 0,00 0,00 45,00 0,00 0,00 0,00 0,00 0,00 30/11/2020
798 1155000 BRUNA EVANGELISTA FERREIRA ESTAGIARIO AGUAS FORMOSAS; AGUAS FORMOSAS-PJ-UNPJ 0,00 0,00 0,00 180,00 0,00 0,00 0,00 0,00 0,00 30/11/2020
799 969700 BRUNA FABRINI OTHECHAR ESTAGIARIO BELO HORIZONTE; BH-12PJ JUIZO CRIMINAL-GAB 097PJ 0,00 0,00 0,00 81,00 0,00 0,00 0,00 0,00 0,00 30/11/2020
800 642300 BRUNA IZABELITA DE FATIMA OLIVEIRA COSTA OFICIAL DO MP BELO HORIZONTE - COMARCA; BH-02PJ FAMILIA-SECRETARIA 1.100,00 0,00 450,00 0,00 0,00 0,00 0,00 0,00 458,75 30/11/2020
801 513600 BRUNA KARLA MARTINS CARVALHO ANALISTA DO MP GOVERNADOR VALADARES - COMARCA; GOVERNADOR VALADARES-PJ-14PJ 1.100,00 0,00 450,00 0,00 0,00 0,00 0,00 0,00 1.150,99 30/11/2020
802 1008400 BRUNA LEAL SILVEIRA ESTAGIARIO ITUIUTABA; ITUIUTABA-PJ-03PJ 0,00 0,00 0,00 54,00 0,00 0,00 0,00 0,00 0,00 30/11/2020
803 415100 BRUNA MARIA SOARES OLIVEIRA COSTA RAMOS ANALISTA DO MP UBÁ - COMARCA; COORD REG BACIA DO RIO PARAIBA DO SUL 1.100,00 0,00 450,00 0,00 0,00 0,00 0,00 0,00 1.428,68 30/11/2020
804 692900 BRUNA MENDES COELHO ASSESSOR PROCURADOR JUSTICA BELO HORIZONTE - COMARCA; GABINETE DE PROCURADOR DE JUSTIÇA - SALA 811 1.100,00 0,00 450,00 0,00 0,00 0,00 0,00 0,00 0,00 30/11/2020
805 990100 BRUNA MENDES COELHO ESTAGIARIO BELO HORIZONTE; PROC. JUSTICA CIVEL 0,00 0,00 0,00 63,00 1.044,33 0,00 0,00 0,00 0,00 30/11/2020
806 470000 BRUNA MORAES ANALISTA DO MP TOMBOS - COMARCA; TOMBOS-PJ-UNPJ 1.100,00 153,88 450,00 0,00 0,00 0,00 0,00 0,00 1.262,03 30/11/2020
807 1199500 BRUNA NATHANY OLIVEIRA MELO ESTAGIARIO UNAI; UNAI-PJ-01PJ 0,00 0,00 0,00 45,00 0,00 0,00 0,00 0,00 0,00 30/11/2020
808 614700 BRUNA NATTANY DE LIMA OFICIAL DO MP MANTENA - COMARCA; MANTENA-PJ-01PJ 1.100,00 0,00 450,00 0,00 0,00 0,00 0,00 0,00 574,54 30/11/2020
809 1084400 BRUNA PAULA AMARAL CEOLIN ESTAGIARIO BELO HORIZONTE; BH-12PJ JUIZO CRIMINAL-GAB 100PJ 0,00 0,00 0,00 108,00 0,00 0,00 0,00 0,00 0,00 30/11/2020
810 1150200 BRUNA PAULA RODRIGUES VASCONCELOS ESTAGIARIO UBERLANDIA; COORD REG PP TRIANGULO MINEIRO UBERLANDIA 0,00 0,00 0,00 189,00 0,00 0,00 0,00 0,00 0,00 30/11/2020
811 1134300 BRUNA QUEIROZ THOMAZ ESTAGIARIO TEOFILO OTONI; TEOFILO OTONI-PJ-09PJ 0,00 0,00 0,00 108,00 0,00 0,00 0,00 0,00 0,00 30/11/2020
812 693300 BRUNA RAMONY ROCHA DA CRUZ ASSESSOR PROMOTOR JUSTICA JAIBA - COMARCA; JAIBA-PJ-SECRETARIA 1.100,00 0,00 450,00 0,00 0,00 0,00 0,00 0,00 0,00 30/11/2020
813 631800 BRUNA RAPOSO JORGE OFICIAL DO MP JUIZ DE FORA - COMARCA; JUIZ DE FORA-PJ-06PJ 1.100,00 0,00 450,00 0,00 0,00 0,00 0,00 0,00 472,71 30/11/2020
814 1083600 BRUNA RIOS CELESTINO ESTAGIARIO CONSELHEIRO LAFAIETE; CONSELHEIRO LAFAIETE-PJ-07PJ 0,00 0,00 0,00 9,00 0,00 0,00 0,00 0,00 0,00 30/11/2020
815 1180300 BRUNA RODRIGUES COBO ESTAGIARIO RIBEIRAO DAS NEVES; RIBEIRAO DAS NEVES-PJ-12PJ 0,00 0,00 0,00 54,00 0,00 0,00 0,00 0,00 0,00 30/11/2020
816 1146700 BRUNA SALES VIEIRA ESTAGIARIO FRUTAL; FRUTAL-PJ-02PJ 0,00 0,00 0,00 189,00 0,00 0,00 0,00 0,00 0,00 30/11/2020
817 1174400 BRUNA STEHLING SCHIRMER ESTAGIARIO BELO HORIZONTE; PROC. JUSTICA DE HABEAS CORPUS 0,00 0,00 0,00 135,00 0,00 0,00 0,00 0,00 0,00 30/11/2020
818 1191900 BRUNA STUHLER PINHEIRO ESTAGIARIO UBERLANDIA; COORD REG DEF ORDEM ECON TRIB UBERLANDIA 0,00 0,00 0,00 162,00 0,00 0,00 0,00 0,00 0,00 30/11/2020
819 956400 BRUNA URSINE TIMO ESTAGIARIO BELO HORIZONTE; PROC JUST ESP ACOES COMP ORIG CRIMINAL-SEC 0,00 0,00 0,00 108,00 0,00 0,00 0,00 0,00 0,00 30/11/2020
820 1023300 BRUNIELY FERNANDES DA LUZ ESTAGIARIO BELO HORIZONTE; DIVISAO DE SERVICOS 0,00 0,00 0,00 36,00 0,00 0,00 0,00 0,00 0,00 30/11/2020
821 225100 BRUNO ALEXANDER VIEIRA SOARES PROMOT.ENTRANC.ESPECIAL BELO HORIZONTE - COMARCA; BH-17PJ PATRIMONIO PUBLICO-GAB 004PJ 1.100,00 0,00 2.717,64 0,00 3.368,91 0,00 0,00 0,00 1.029,39 30/11/2020
822 463800 BRUNO ALVES TEIXEIRA ANALISTA DO MP UBERLÂNDIA - COMARCA; UBERLANDIA-PJ-04PJ 1.100,00 0,00 450,00 0,00 0,00 0,00 0,00 0,00 1.111,02 30/11/2020
823 1097900 BRUNO ANDRADE ALVARENGA ESTAGIARIO OURO BRANCO; OURO BRANCO-PJ-UNPJ 0,00 0,00 0,00 171,00 0,00 0,00 0,00 0,00 0,00 30/11/2020
824 538500 BRUNO AUGUSTO DA SILVA OFICIAL DO MP SANTA LUZIA - COMARCA; SANTA LUZIA-PJ-03PJ 1.100,00 0,00 450,00 0,00 0,00 0,00 0,00 0,00 511,89 30/11/2020
825 318200 BRUNO BARROS DE SOUZA OFICIAL DO MP UBÁ - COMARCA; UBA-PJ-04PJ 1.100,00 0,00 450,00 0,00 0,00 0,00 0,00 0,00 1.203,22 30/11/2020
826 459600 BRUNO CASTELAR LUGAO MENDES OFICIAL DO MP GOVERNADOR VALADARES - COMARCA; GOVERNADOR VALADARES-PJ-01PJ 1.100,00 0,00 450,00 0,00 0,00 0,00 0,00 0,00 860,76 30/11/2020
827 361300 BRUNO CESAR MEDEIROS GIARDINI PROMOT.ENTRANC.ESPECIAL IPATINGA - COMARCA; IPATINGA-PJ-06PJ 1.100,00 0,00 2.409,16 0,00 3.368,91 0,00 0,00 0,00 1.029,39 30/11/2020
828 427400 BRUNO CESAR RIBEIRO DE PAIVA ANALISTA DO MP BELO HORIZONTE - COMARCA; ASSESS JUR DO CONS SUPERIOR DO MINISTERIO PUB 1.100,00 0,00 450,00 0,00 0,00 0,00 0,00 0,00 1.327,52 30/11/2020
829 380900 BRUNO CIRILO ANTUNES OFICIAL DO MP VARGINHA - COMARCA; VARGINHA-PJ-05PJ 1.100,00 0,00 450,00 0,00 0,00 0,00 0,00 0,00 1.024,85 30/11/2020
830 666700 BRUNO DE CARVALHO VASCONCELOS PROMOTOR SUBSTITUTO CORINTO - COMARCA; CORINTO-PJ-UNPJ 1.100,00 0,00 703,56 0,00 3.040,44 0,00 0,00 0,00 929,03 30/11/2020
831 329000 BRUNO DE MELO REIS ANALISTA DO MP PATROCÍNIO - COMARCA; PATROCINIO-PJ-02PJ 1.100,00 1.538,78 450,00 0,00 0,00 0,00 0,00 0,00 1.927,69 30/11/2020
832 1197800 BRUNO DURAES DE FARIAS ESTAGIARIO MONTES CLAROS; MONTES CLAROS-PJ-07PJ 0,00 0,00 0,00 81,00 0,00 0,00 0,00 0,00 0,00 30/11/2020
833 339700 BRUNO FERNANDO TORRES LANA PROMOT.ENTRANC.ESPECIAL UBÁ - COMARCA; UBA-PJ-05PJ 1.100,00 0,00 852,80 0,00 3.368,91 0,00 0,00 0,00 1.029,39 30/11/2020
834 1151500 BRUNO FERREIRA BRAS OLIVEIRA ESTAGIARIO UBERLANDIA; GAECO REGIONAL DE UBERLANDIA 0,00 0,00 0,00 189,00 0,00 0,00 0,00 0,00 0,00 30/11/2020
835 360300 BRUNO GUERRA DE OLIVEIRA PROMOT.ENTRANC.ESPECIAL UBÁ - COMARCA; UBA-PJ-06PJ 1.100,00 0,00 1.279,20 0,00 5.614,85 0,00 0,00 0,00 1.235,26 30/11/2020
836 1066300 BRUNO HENRIQUE ALVES DE LIMA ESTAGIARIO SETE LAGOAS; SETE LAGOAS-PJ-03PJ 0,00 0,00 0,00 189,00 0,00 0,00 0,00 0,00 0,00 30/11/2020
837 378300 BRUNO HERDY LOPES DE OLIVEIRA ANALISTA DO MP GOVERNADOR VALADARES - COMARCA; GOVERNADOR VALADARES-PJ-03PJ 1.100,00 0,00 450,00 0,00 0,00 0,00 0,00 0,00 1.516,41 30/11/2020
838 529700 BRUNO JOSE BUENO DIAS OFICIAL DO MP SÃO SEBASTIÃO DO PARAÍSO - COMARCA; SAO SEBASTIAO DO PARAISO-PJ-02PJ 1.100,00 0,00 450,00 0,00 0,00 0,00 0,00 0,00 607,11 30/11/2020
839 1076400 BRUNO JOSE RIBEIRO ESTAGIARIO CLAUDIO; CLAUDIO-PJ-UNPJ 0,00 0,00 0,00 54,00 602,50 0,00 0,00 0,00 0,00 30/11/2020
840 691600 BRUNO JOSE RIBEIRO ASSESSOR PROMOTOR JUSTICA CLÁUDIO - COMARCA; CLAUDIO-PJ-UNPJ 1.100,00 0,00 450,00 0,00 0,00 0,00 0,00 0,00 0,00 30/11/2020
841 967300 BRUNO LANNA DE OLIVEIRA FERRARI ESTAGIARIO JUIZ DE FORA; JUIZ DE FORA-PJ-14PJ 0,00 0,00 0,00 81,00 0,00 0,00 0,00 0,00 0,00 30/11/2020
842 350100 BRUNO LAUD SERRANO DOS REIS OFICIAL DO MP UBÁ - COMARCA; UBA-PJ-02PJ 1.100,00 0,00 450,00 0,00 0,00 0,00 0,00 0,00 1.160,71 30/11/2020
843 1125100 BRUNO MARQUES DA SILVA ESTAGIARIO BELO HORIZONTE; BH-23PJ CIVEL 0,00 0,00 0,00 63,00 0,00 0,00 0,00 0,00 0,00 30/11/2020
844 530600 BRUNO MARQUES DE ALMEIDA ROSSI PROMOTOR 1A ENTRANCIA PRESIDENTE OLEGÁRIO - COMARCA; PRESIDENTE OLEGARIO-PJ-UNPJ 1.100,00 0,00 2.409,16 0,00 3.040,44 0,00 0,00 0,00 929,03 30/11/2020
845 1028900 BRUNO MARQUES JIMENEZ ABAD ESTAGIARIO VARGINHA; VARGINHA-PJ-03PJ 0,00 0,00 0,00 189,00 0,00 0,00 0,00 0,00 0,00 30/11/2020
846 373800 BRUNO MARTINO DE ALBUQUERQUE ANALISTA DO MP PONTE NOVA - COMARCA; PONTE NOVA-PJ-03PJ 1.100,00 0,00 450,00 0,00 0,00 0,00 0,00 0,00 2.703,40 30/11/2020
847 1163200 BRUNO MORAIS MARQUES ESTAGIARIO CARMO DO PARANAIBA; CARMO DO PARANAIBA-PJ-01PJ 0,00 0,00 0,00 54,00 0,00 0,00 0,00 0,00 0,00 30/11/2020
848 470400 BRUNO NOVAIS CABRAL ANALISTA DO MP MUTUM - COMARCA; MUTUM-PJ-UNPJ 1.100,00 769,39 450,00 0,00 0,00 0,00 0,00 0,00 1.110,46 30/11/2020
849 457300 BRUNO OLIVEIRA MULLER PROMOT.ENTRANC.ESPECIAL ITABIRA - COMARCA; ITABIRA-PJ-04PJ 1.100,00 0,00 2.655,40 0,00 3.368,91 0,00 0,00 0,00 1.029,39 30/11/2020
850 648600 BRUNO RIBEIRO E MELO ASSESSOR BELO HORIZONTE - COMARCA; DIR RELACOES INSTITUCIONAIS 1.100,00 0,00 450,00 0,00 0,00 0,00 0,00 0,00 715,36 30/11/2020
851 369200 BRUNO ROBERTO DIAS DE OLIVEIRA OFICIAL DO MP BELO HORIZONTE - COMARCA; BH-22PJ PES COM DEF E IDOSOS-SECRETARIA 1.100,00 0,00 450,00 0,00 0,00 0,00 0,00 0,00 1.081,22 30/11/2020
852 547700 BRUNO ROBERTO SOUZA GONCALVES ANALISTA DO MP PARACATU - COMARCA; PARACATU-PJ-03PJ 1.100,00 1.538,78 450,00 0,00 0,00 0,00 0,00 0,00 923,55 30/11/2020
853 546100 BRUNO SA VIEIRA ANALISTA DO MP CORONEL FABRICIANO - COMARCA; CORONEL FABRICIANO-PJ-03PJ 1.100,00 0,00 450,00 0,00 0,00 0,00 0,00 0,00 855,44 30/11/2020
854 438200 BRUNO SALES PEREIRA ANALISTA DO MP BELO HORIZONTE - COMARCA; CENTRAL DE APOIO TECNICO-SETOR CONTABIL 1.100,00 769,39 450,00 0,00 0,00 0,00 0,00 0,00 1.252,77 30/11/2020
855 537400 BRUNO SANT'ANA CESAR ANALISTA DO MP CONTAGEM - COMARCA; CONTAGEM-PJ-21PJ 1.100,00 0,00 450,00 0,00 0,00 0,00 0,00 0,00 935,29 30/11/2020
856 343500 BRUNO SCHIAVO CRUZ PROMOT.ENTRANC.ESPECIAL IPATINGA - COMARCA; GAECO REGIONAL DE IPATINGA 1.100,00 0,00 2.878,20 0,00 3.368,91 0,00 0,00 0,00 1.029,39 30/11/2020
857 937500 BRUNO SEABRA DUMONT ESTAGIARIO BONFIM; BONFIM-PJ-UNPJ 0,00 0,00 0,00 126,00 0,00 0,00 0,00 0,00 0,00 30/11/2020
858 1155100 BRUNO SOARES FONSECA ESTAGIARIO TAIOBEIRAS; TAIOBEIRAS-PJ-UNPJ 0,00 0,00 0,00 189,00 0,00 0,00 0,00 0,00 0,00 30/11/2020
859 684000 BRUNO TORRANO AMORIM DE ALMEIDA PROMOTOR SUBSTITUTO CONTAGEM - COMARCA; CONTAGEM-PJ-14PJ 1.100,00 0,00 1.449,76 0,00 0,00 0,00 0,00 0,00 0,00 30/11/2020
860 679000 BRUNO WILLIANS PAULINO DE MELLO ASSESSOR PROCURADOR JUSTICA BELO HORIZONTE - COMARCA; GABINETE DE PROCURADOR DE JUSTIÇA - SALA 1006 1.100,00 0,00 450,00 0,00 0,00 0,00 0,00 0,00 0,00 30/11/2020
861 655800 CAEL KALINOWSKI SOUZA MATTA INVESTIGADOR DE POLICIA 2 BELO HORIZONTE - COMARCA; NUCLEO DE INFORMACOES E INTELIGENCIA 1.100,00 0,00 0,00 0,00 0,00 0,00 0,00 0,00 0,00 30/11/2020
862 1047600 CAIO ALESSI FERREIRA DE CARVALHO ESTAGIARIO BELO HORIZONTE; BH-18PJ VIOLENCIA DOMESTICA-SECRETARIA 0,00 0,00 0,00 36,00 0,00 0,00 0,00 0,00 0,00 30/11/2020
863 1135500 CAIO ANTONIO DO AMARAL BRAGA ALVES ESTAGIARIO ESPERA FELIZ; ESPERA FELIZ-PJ-UNPJ 0,00 0,00 0,00 180,00 0,00 0,00 0,00 0,00 0,00 30/11/2020
864 1051200 CAIO BASSOLI ESTAGIARIO JUIZ DE FORA; JUIZ DE FORA-PJ-20PJ 0,00 0,00 0,00 90,00 0,00 0,00 0,00 0,00 0,00 30/11/2020
865 666900 CAIO CESAR ESPIRITO SANTO DO NASCIMENTO PROMOTOR 2A ENTRANCIA SALINAS - COMARCA; SALINAS-PJ-01PJ 1.100,00 0,00 1.300,52 0,00 3.200,47 0,00 0,00 0,00 977,92 30/11/2020
866 685600 CAIO CESAR FERREIRA PROMOTOR SUBSTITUTO NOVO CRUZEIRO - COMARCA; NOVO CRUZEIRO-PJ-UNPJ 1.100,00 0,00 0,00 0,00 0,00 0,00 0,00 0,00 0,00 30/11/2020
867 405800 CAIO FERNANDO RODRIGUES DE OLIVEIRA ANALISTA DO MP BELO HORIZONTE - COMARCA; ASSESS TECNICO-JUR JUNTO AS PROC. DE JUST 1.100,00 0,00 450,00 0,00 0,00 0,00 0,00 0,00 1.493,95 30/11/2020
868 530000 CAIO GUEDES DE OLIVEIRA ANALISTA DO MP DIAMANTINA - COMARCA; DIAMANTINA-PJ-02PJ 1.100,00 769,39 450,00 0,00 0,00 0,00 0,00 0,00 822,92 30/11/2020
869 1118400 CAIO HENRIQUE DE FREITAS MELO ESTAGIARIO UBERABA; UBERABA-PJ-02PJ 0,00 0,00 0,00 90,00 0,00 0,00 0,00 0,00 0,00 30/11/2020
870 971000 CAIO LEMOS SILVA ESTAGIARIO PASSOS; PASSOS-PJ-02PJ 0,00 0,00 0,00 189,00 0,00 0,00 0,00 0,00 0,00 30/11/2020
871 1026300 CAIO MAGNO GONCALVES DOS SANTOS ESTAGIARIO BONFINOPOLIS DE MINAS; BONFINOPOLIS DE MINAS-PJ-UNPJ 0,00 0,00 0,00 99,00 0,00 0,00 0,00 0,00 0,00 30/11/2020
872 1166800 CAIO MARINI LIMA COSTA ESTAGIARIO BELO HORIZONTE; BH-08PJ JUIZADO ESPECIAL-GAB 168PJ 0,00 0,00 0,00 144,00 0,00 0,00 0,00 0,00 0,00 30/11/2020
873 491400 CAIO MIRANDA JUNQUEIRA ANALISTA DO MP BUENO BRANDAO - COMARCA; BUENO BRANDAO-PJ-UNPJ 1.100,00 769,39 450,00 0,00 0,00 0,00 0,00 0,00 1.061,54 30/11/2020
874 1145800 CAIO NAVARRO NEVES ESTAGIARIO ARAGUARI; ARAGUARI-PJ-02PJ 0,00 0,00 0,00 135,00 0,00 0,00 0,00 0,00 0,00 30/11/2020
875 668300 CAIO PALLU COSTA PROMOTOR 2A ENTRANCIA GOVERNADOR VALADARES - COMARCA; GOVERNADOR VALADARES-PJ-05PJ 1.100,00 0,00 1.407,12 0,00 5.334,11 0,00 0,00 0,00 1.139,28 30/11/2020
876 671600 CAIO ROTHSAHL BOTELHO PROMOTOR SUBSTITUTO LEOPOLDINA - COMARCA; LEOPOLDINA-PJ-04PJ 1.100,00 0,00 1.449,76 0,00 0,00 0,00 0,00 0,00 0,00 30/11/2020
877 171000 CAIUS VINICIUS GONZAGA GOULART PROMOT.ENTRANC.ESPECIAL BELO HORIZONTE - COMARCA; BH-12PJ JUIZO CRIMINAL-GAB 106PJ 1.100,00 0,00 0,00 0,00 5.614,85 0,00 0,00 0,00 1.235,26 30/11/2020
878 82300 CALIXTO OLIVEIRA SOUZA PROMOT.ENTRANC.ESPECIAL DIVINÓPOLIS - COMARCA; DIVINOPOLIS-PJ-01PJ 1.100,00 0,00 2.345,20 0,00 5.614,85 0,00 0,00 0,00 1.235,26 30/11/2020
879 415800 CAMILA ALVES DA SILVA ANALISTA DO MP CAETÉ - COMARCA; CAETE-PJ-01PJ 1.100,00 0,00 450,00 0,00 0,00 0,00 0,00 0,00 1.440,89 30/11/2020
880 684900 CAMILA APARECIDA PIRES PROMOTOR SUBSTITUTO FORMIGA - COMARCA; FORMIGA-PJ-SECRETARIA 1.100,00 0,00 703,56 0,00 0,00 0,00 0,00 0,00 0,00 30/11/2020
881 1069600 CAMILA BRITO NERY ESTAGIARIO UBERLANDIA; UBERLANDIA-PJ-05PJ 0,00 0,00 0,00 153,00 0,00 0,00 0,00 0,00 0,00 30/11/2020
882 1055500 CAMILA CAFIERO BICALHO ESTAGIARIO BELO HORIZONTE; BH-17PJ PATRIMONIO PUBLICO-GAB 120PJ 0,00 0,00 0,00 45,00 0,00 0,00 0,00 0,00 0,00 30/11/2020
883 1199600 CAMILA CAROLINE DOS SANTOS FARIA DUARTE ESTAGIARIO UNAI; UNAI-PJ-03PJ 0,00 0,00 0,00 45,00 0,00 0,00 0,00 0,00 0,00 30/11/2020
884 555800 CAMILA CAROLINE ROCHA CHAVES OFICIAL DO MP SALINAS - COMARCA; SALINAS-PJ-01PJ 1.100,00 0,00 450,00 0,00 0,00 0,00 0,00 0,00 536,63 30/11/2020
885 1056400 CAMILA CARVALHO FREITAS ESTAGIARIO BELO HORIZONTE; PROC JUST ESP ACOES COMP ORIG CRIMINAL-GAB
886 445200 CAMILA CONDE ROCHA ANALISTA DO MP CONTAGEM - COMARCA; CONTAGEM-PJ-08PJ 1.100,00 769,39 450,00 0,00 0,00 0,00 0,00 0,00 1.126,97 30/11/2020
887 419900 CAMILA CUNNINGHAM PIMENTA DE PADUA ANALISTA DO MP BELO HORIZONTE - COMARCA; ASSESSORIA PSICOSSOCIAL 1.100,00 0,00 450,00 0,00 0,00 0,00 0,00 0,00 1.331,96 30/11/2020
888 998800 CAMILA DE CASTRO COELHO ESTAGIARIO ERVALIA; ERVALIA-PJ-UNPJ 0,00 0,00 0,00 171,00 0,00 0,00 0,00 0,00 0,00 30/11/2020
889 1107600 CAMILA DE SOUSA CUNHA ESTAGIARIO BARROSO; BARROSO-PJ-01PJ 0,00 0,00 0,00 180,00 0,00 0,00 0,00 0,00 0,00 30/11/2020
890 507700 CAMILA ELIZABETH RODRIGUES ANALISTA DO MP BELO HORIZONTE - COMARCA; BH-02PJ FAMILIA-SECRETARIA 1.100,00 0,00 450,00 0,00 0,00 0,00 0,00 0,00 1.178,62 30/11/2020
891 1182700 CAMILA FERREIRA DA SILVA PEREIRA ESTAGIARIO SETE LAGOAS; SETE LAGOAS-PJ-07PJ 0,00 0,00 0,00 189,00 0,00 0,00 0,00 0,00 0,00 30/11/2020
892 372700 CAMILA FONSECA LIMONGE ANALISTA DO MP BETIM - COMARCA; BETIM-PJ-01PJ 1.100,00 769,39 450,00 0,00 0,00 0,00 0,00 0,00 1.503,85 30/11/2020
893 1014700 CAMILA FORTINI DOS SANTOS ESTAGIARIO VESPASIANO; VESPASIANO-PJ-04PJ 0,00 0,00 0,00 171,00 0,00 0,00 0,00 0,00 0,00 30/11/2020
894 947100 CAMILA GENDORF GOMES ESTAGIARIO BELO HORIZONTE; BH-02PJ FAMILIA-SECRETARIA
895 621300 CAMILA GOLFETO DE SOUSA VALENTE OFICIAL DO MP ESPERA FELIZ - COMARCA; ESPERA FELIZ-PJ-UNPJ 1.100,00 1.153,54 450,00 0,00 0,00 0,00 0,00 0,00 712,91 30/11/2020
896 409800 CAMILA GONCALVES COSTA RIBEIRO ANALISTA DO MP INHAPIM - COMARCA; INHAPIM-PJ-02PJ 1.100,00 769,39 450,00 0,00 0,00 0,00 0,00 0,00 1.133,98 30/11/2020
897 335000 CAMILA GONTIJO DE PAIVA ANALISTA DO MP BELO HORIZONTE - COMARCA; COORD DE CONTROLE CONSTITUCIONALIDADE 1.100,00 0,00 450,00 0,00 0,00 0,00 0,00 0,00 1.736,16 30/11/2020
898 693400 CAMILA HECKSHER MONTEIRO ASSESSOR PROCURADOR JUSTICA BELO HORIZONTE - COMARCA; GABINETE DE PROCURADOR DE JUSTIÇA - SALA 613 1.100,00 0,00 450,00 0,00 0,00 0,00 0,00 0,00 0,00 30/11/2020
899 1107200 CAMILA IMACULADA OLIVEIRA ESTAGIARIO BELO HORIZONTE; GABINETE DE PROCURADOR DE JUSTIÇA - SALA 804 0,00 0,00 0,00 45,00 0,00 0,00 0,00 0,00 0,00 30/11/2020
900 940500 CAMILA MARIZ MACEDO ESTAGIARIO BELO HORIZONTE; BH-12PJ JUIZO CRIMINAL-GAB 083PJ 0,00 0,00 0,00 81,00 0,00 0,00 0,00 0,00 0,00 30/11/2020
901 547800 CAMILA MATTARELLI DE ABREU E SILVA ANALISTA DO MP BELO HORIZONTE - COMARCA; CAO-VIOLENCIA DOMESTICA E FAMILIAR 1.100,00 0,00 450,00 0,00 0,00 0,00 0,00 0,00 840,25 30/11/2020
902 1183500 CAMILA MORAIS FERREIRA ESTAGIARIO BELO HORIZONTE; BH-02PJ FAMILIA
903 1180400 CAMILA NICACIO PEDROSA ALMEIDA ESTAGIARIO BELO HORIZONTE; PROC. JUSTICA CRIMINAL 0,00 0,00 0,00 126,00 0,00 0,00 0,00 0,00 0,00 30/11/2020
904 1141300 CAMILA OLIVEIRA GIACOMETO ESTAGIARIO UBERABA; UBERABA-PJ-08PJ
905 1076300 CAMILA RODRIGUES ANDRADE ESTAGIARIO BELO HORIZONTE; BH-23PJ CIVEL 0,00 0,00 0,00 63,00 0,00 0,00 0,00 0,00 0,00 30/11/2020
906 1025700 CAMILA RODRIGUES JARDIM ESTAGIARIO BELO HORIZONTE; DIR RELACOES INSTITUCIONAIS 0,00 0,00 0,00 36,00 0,00 0,00 0,00 0,00 0,00 30/11/2020
907 1093800 CAMILA SILVA COSTA LOPES REZENDE ESTAGIARIO PIUMHI; PIUMHI-PJ-01PJ 0,00 0,00 0,00 189,00 0,00 0,00 0,00 0,00 0,00 30/11/2020
908 1072900 CAMILA TEIXEIRA CORDEIRO ESTAGIARIO BELO HORIZONTE; PROC. JUSTICA CRIMINAL 0,00 0,00 0,00 63,00 0,00 0,00 0,00 0,00 0,00 30/11/2020
909 1156500 CAMILA VALERIO DE BARCELOS ESTAGIARIO BELO HORIZONTE; EXTINTA-COORD EST DEF DIR FAM PES DEFIC IDOSO 0,00 0,00 0,00 72,00 0,00 0,00 0,00 0,00 0,00 30/11/2020
910 1170200 CAMILA VENANCIO DIAS ESTAGIARIO BELO HORIZONTE; PROC. JUSTICA DIR. DIFUSOS E COLETIVOS 0,00 0,00 0,00 9,00 0,00 0,00 0,00 0,00 0,00 30/11/2020
911 1194500 CAMILE LORRANY FLAVIO ALVES ESTAGIARIO MONTES CLAROS; MONTES CLAROS-PJ-01PJ 0,00 0,00 0,00 126,00 0,00 0,00 0,00 0,00 0,00 30/11/2020
912 1013500 CAMILLA CRISTINA PACHECO DE MELO ESTAGIARIO BELO HORIZONTE; BH-12PJ JUIZO CRIMINAL-GAB 088PJ 0,00 0,00 0,00 162,00 0,00 0,00 0,00 0,00 0,00 30/11/2020
913 1068400 CAMILLA MARIA GUIMARAES PERTENCE ESTAGIARIO BELO HORIZONTE; PROC. JUSTICA CIVEL 0,00 0,00 0,00 171,00 0,00 0,00 0,00 0,00 0,00 30/11/2020
914 898300 CAMILLA MARTINS MAZZONI E MARTINS ESTAGIARIO ITANHOMI; ITANHOMI-PJ-UNPJ 0,00 0,00 0,00 81,00 0,00 0,00 0,00 0,00 0,00 30/11/2020
915 1097800 CAMILLA VERGINIO COSTA ESTAGIARIO 0,00 0,00 0,00 189,00 0,00 0,00 0,00 0,00 0,00 30/11/2020
916 1039100 CAMILO PRATES ESTAGIARIO BELO HORIZONTE; PROC. JUSTICA DE HABEAS CORPUS
917 430000 CANDIDA MARINA COSTA ANALISTA DO MP BELO HORIZONTE - COMARCA; DIVISAO DE DOCUMENTACAO JURIDICA 1.100,00 0,00 450,00 0,00 0,00 0,00 0,00 0,00 1.318,80 30/11/2020
918 614300 CARINA CORTIELHA OFICIAL DO MP BELO HORIZONTE - COMARCA; BH-23PJ CIVEL-SEC EXP CIVEIS 1.100,00 0,00 450,00 0,00 0,00 0,00 0,00 0,00 498,69 30/11/2020
919 380400 CARINA DIAS FACANHA DE SOUZA ANALISTA DO MP SANTA RITA DO SAPUCAÍ - COMARCA; SANTA RITA DO SAPUCAI-PJ-SECRETARIA 1.100,00 0,00 450,00 0,00 0,00 0,00 0,00 0,00 1.370,30 30/11/2020
920 924300 CARINA MENEZES DE MOURA ESTAGIARIO MATEUS LEME; MATEUS LEME-PJ-01PJ 0,00 0,00 0,00 9,00 0,00 0,00 0,00 0,00 0,00 30/11/2020
921 255000 CARLA ADRIANA DE MENEZES OFICIAL DO MP BELO HORIZONTE - COMARCA; CENT DE APOIO TEC-SETOR DEF,IDOSO E INFANC 1.100,00 0,00 450,00 0,00 0,00 0,00 0,00 0,00 1.363,21 30/11/2020
922 425100 CARLA ADRIANA DINIZ AMARAL OFICIAL DO MP CONTAGEM - COMARCA; CONTAGEM-PJ-SECRETARIA 1.100,00 0,00 450,00 0,00 0,00 0,00 0,00 0,00 938,84 30/11/2020
923 508100 CARLA ALESSANDRA FONSECA ANALISTA DO MP BELO HORIZONTE - COMARCA; CAO-ORDEM ECONOMICA E TRIBUTARIA-SECRETARIA 1.100,00 0,00 450,00 0,00 0,00 0,00 0,00 0,00 1.148,51 30/11/2020
924 1155200 CARLA ALVES DE FREITAS ESTAGIARIO IPATINGA; IPATINGA-PJ-02PJ 0,00 0,00 0,00 72,00 301,67 0,00 0,00 0,00 0,00 30/11/2020
925 607100 CARLA ANGELICA DIAS MIRANDA OFICIAL DO MP JABOTICATUBAS - COMARCA; JABOTICATUBAS-PJ-UNPJ 1.100,00 0,00 450,00 0,00 0,00 0,00 0,00 0,00 509,50 30/11/2020
926 351500 CARLA APARECIDA MENDES RAMIRIO OFICIAL DO MP PASSOS - COMARCA; PASSOS-PJ-01PJ 1.100,00 0,00 450,00 0,00 0,00 0,00 0,00 0,00 1.048,11 30/11/2020
927 1067500 CARLA CRISTINA LOPES OLIVEIRA ESTAGIARIO ITAMARANDIBA; ITAMARANDIBA-PJ-UNPJ
928 1081900 CARLA DOS SANTOS SOUZA ESTAGIARIO ESPERA FELIZ; ESPERA FELIZ-PJ-UNPJ 0,00 0,00 0,00 180,00 0,00 0,00 0,00 0,00 0,00 30/11/2020
929 442800 CARLA GONCALVES COSTA SOALHEIRO ANALISTA DO MP GOVERNADOR VALADARES - COMARCA; GOVERNADOR VALADARES-PJ-11PJ 1.100,00 769,39 450,00 0,00 0,00 0,00 0,00 0,00 1.112,33 30/11/2020
930 321500 CARLA GONCALVES MASSOTE OFICIAL DO MP CAMPO BELO - COMARCA; CAMPO BELO-PJ-01PJ 1.100,00 0,00 450,00 0,00 0,00 0,00 0,00 0,00 1.019,48 30/11/2020
931 429200 CARLA HAUTEQUESTT BECHARA COORDENADOR/ANALISTA BELO HORIZONTE - COMARCA; DIRET DE INFORMACAO E CONHECIMENTO-DINC/CEAF 1.100,00 0,00 450,00 0,00 0,00 0,00 0,00 0,00 1.539,63 30/11/2020
932 1061300 CARLA LOPES MIRANDA ESTAGIARIO GOVERNADOR VALADARES; GOVERNADOR VALADARES-PJ-07PJ 0,00 0,00 0,00 108,00 0,00 0,00 0,00 0,00 0,00 30/11/2020
933 157400 CARLA MARIA ALESSI LAFETA DE CARVALHO PROMOT.ENTRANC.ESPECIAL BELO HORIZONTE - COMARCA; BH-25PJ DEFESA DA EDUCACAO-GAB 050PJ 1.100,00 0,00 3.368,56 0,00 3.368,91 0,00 0,00 0,00 1.029,39 30/11/2020
934 1100400 CARLA MARTINELLI ESTAGIARIO ANDRADAS; ANDRADAS-PJ-01PJ 0,00 0,00 0,00 189,00 0,00 0,00 0,00 0,00 0,00 30/11/2020
935 247500 CARLA MATILDE GUIMARAES DE OLIVEIRA OFICIAL DO MP ITAJUBA - COMARCA; ITAJUBA-PJ-SECRETARIA 1.100,00 0,00 450,00 0,00 0,00 0,00 0,00 0,00 1.223,97 30/11/2020
936 226100 CARLA MERLI DA CONCEICAO ANALISTA DO MP BELO HORIZONTE - COMARCA; CENTRAL DE APOIO TECNICO-SETOR CONTABIL 1.100,00 0,00 450,00 0,00 0,00 0,00 0,00 0,00 2.435,92 30/11/2020
937 685700 CARLA PRISCILLA PEREIRA VIANA PROMOTOR SUBSTITUTO CONSELHEIRO PENA - COMARCA; CONSELHEIRO PENA-PJ-01PJ 1.100,00 0,00 1.300,52 0,00 0,00 0,00 0,00 0,00 0,00 30/11/2020
938 343100 CARLA REGINA GOULART SALARO DUVANEL PROMOT.ENTRANC.ESPECIAL GOVERNADOR VALADARES - COMARCA; GOVERNADOR VALADARES-PJ-06PJ 1.100,00 0,00 1.279,20 0,00 1.122,97 0,00 0,00 0,00 823,51 30/11/2020
939 532600 CARLA RODRIGUES FAZUOLI PROMOTOR 2A ENTRANCIA SACRAMENTO - COMARCA; SACRAMENTO-PJ-02PJ 1.100,00 0,00 746,20 0,00 0,00 0,00 0,00 0,00 0,00 30/11/2020
940 1102000 CARLIANE MARTINS GOMES ESTAGIARIO SACRAMENTO; SACRAMENTO-PJ-01PJ 0,00 0,00 0,00 180,00 0,00 0,00 0,00 0,00 0,00 30/11/2020
941 181401 CARLO MICHEL GAUDENSI COELHO ANALISTA DO MP BELO HORIZONTE - COMARCA; BH-08PJ JUIZADO ESPECIAL-SECRETARIA 1.100,00 0,00 450,00 0,00 0,00 0,00 0,00 0,00 1.491,62 30/11/2020
942 634000 CARLOS ALBERTO AMORMINO TRIGUEIRO ANALISTA DO MP BELO HORIZONTE - COMARCA; DIRET DE APOIO AS PROCURADORIAS DE JUSTICA 1.100,00 769,39 450,00 0,00 0,00 0,00 0,00 0,00 712,64 30/11/2020
943 232300 CARLOS ALBERTO DA SILVEIRA ISOLDI FILHO PROMOT.ENTRANC.ESPECIAL BELO HORIZONTE - COMARCA; BH-19PJ SAUDE-GAB 150PJ 1.100,00 0,00 3.368,91 0,00 5.614,85 0,00 0,00 0,00 514,69 30/11/2020
944 637900 CARLOS ALBERTO DE MOURA OFICIAL DO MP SETE LAGOAS - COMARCA; SETE LAGOAS-PJ-07PJ 1.100,00 435,99 450,00 0,00 0,00 0,00 0,00 0,00 450,27 30/11/2020
945 638700 CARLOS ALBERTO FERREIRA BRAGA ANALISTA DO MP MATOZINHOS - COMARCA; MATOZINHOS-PJ-01PJ 1.100,00 0,00 450,00 0,00 0,00 0,00 0,00 0,00 723,22 30/11/2020
946 54400 CARLOS ALBERTO RIBEIRO MOREIRA PROMOTOR 2A ENTRANCIA LAVRAS - COMARCA; LAVRAS-PJ-02PJ 1.100,00 0,00 2.558,40 0,00 5.334,11 0,00 0,00 0,00 1.173,50 30/11/2020
947 375801 CARLOS ALBERTO ROCHA ANALISTA DO MP VARGINHA - COMARCA; GAECO REGIONAL DE VARGINHA 1.100,00 0,00 450,00 0,00 0,00 0,00 0,00 0,00 934,65 30/11/2020
948 110700 CARLOS ALBERTO VALERA PROMOT.ENTRANC.ESPECIAL UBERABA - COMARCA; COORD REG BACIAS PARANAIBA BAIXO RIO GRANDE 1.100,00 0,00 980,72 0,00 5.614,85 0,00 0,00 0,00 1.235,26 30/11/2020
949 94200 CARLOS ANDRE MARIANI BITTENCOURT PROCURADOR DE JUSTICA BELO HORIZONTE - COMARCA; GABINETE DE PROCURADOR DE JUSTIÇA - SALA 405 1.100,00 0,00 2.665,00 0,00 5.910,37 0,00 0,00 0,00 1.300,28 30/11/2020
950 462800 CARLOS ANDREI SOARES FAGUNDES ANALISTA DO MP MONTES CLAROS - COMARCA; MONTES CLAROS-PJ-09PJ 1.100,00 769,39 450,00 0,00 0,00 0,00 0,00 0,00 1.111,02 30/11/2020
951 1200400 CARLOS ANTONIO FAGUNDES DA SILVA ESTAGIARIO PRATA; PRATA-PJ-UNPJ 0,00 0,00 0,00 45,00 0,00 0,00 0,00 0,00 0,00 30/11/2020
952 370300 CARLOS AUGUSTO BUENO DIAS ASSESSOR BELO HORIZONTE - COMARCA; SUPERINTENDÊNCIA DE ENGENHARIA E ARQUITETURA 1.100,00 0,00 450,00 0,00 0,00 0,00 0,00 0,00 962,81 30/11/2020
953 66200 CARLOS AUGUSTO CANEDO GONCALVES DA SILVA PROCURADOR DE JUSTICA BELO HORIZONTE - COMARCA; GABINETE DE PROCURADOR DE JUSTIÇA - SALA 911 1.100,00 0,00 3.539,12 0,00 0,00 0,00 0,00 0,00 0,00 30/11/2020
954 83200 CARLOS AUGUSTO ESTEVES DE CARVALHO PROMOT.ENTRANC.ESPECIAL JUIZ DE FORA - COMARCA; JUIZ DE FORA-PJ-16PJ 1.100,00 0,00 1.172,60 0,00 5.614,85 0,00 0,00 0,00 1.235,26 30/11/2020
955 143500 CARLOS AUGUSTO GOMES BRAGA PROMOT.ENTRANC.ESPECIAL BELO HORIZONTE - COMARCA; BH-03PJ EMPRESARIAL-GAB 036PJ 1.100,00 0,00 2.558,44 0,00 5.614,85 0,00 0,00 0,00 1.235,26 30/11/2020
956 110800 CARLOS CESAR MARQUES LUZ PROMOTOR 1A ENTRANCIA JACUTINGA - COMARCA; JACUTINGA-PJ-UNPJ 1.100,00 0,00 0,00 0,00 0,00 0,00 0,00 0,00 0,00 30/11/2020
957 505100 CARLOS CEZAR CARVALHO ANALISTA DO MP RIBEIRÃO DAS NEVES - COMARCA; RIBEIRAO DAS NEVES-PJ-04PJ 1.100,00 0,00 450,00 0,00 0,00 0,00 0,00 0,00 1.340,65 30/11/2020
958 195900 CARLOS DE SOUZA FERREIRA OFICIAL DO MP COROMANDEL - COMARCA; COROMANDEL-PJ-01PJ 1.100,00 0,00 450,00 0,00 0,00 0,00 0,00 0,00 1.591,83 30/11/2020
959 344300 CARLOS EDUARDO AVANZI DE ALMEIDA PROMOTOR 2A ENTRANCIA CAMPO BELO - COMARCA; CAMPO BELO-PJ-03PJ 1.100,00 0,00 3.200,47 0,00 3.200,47 0,00 0,00 0,00 977,92 30/11/2020
960 196800 CARLOS EDUARDO DE OLIVEIRA MARINHO OFICIAL DO MP ALPINÓPOLIS - COMARCA; ALPINOPOLIS-PJ-UNPJ 1.100,00 0,00 450,00 0,00 0,00 0,00 0,00 0,00 3.264,65 30/11/2020
961 157500 CARLOS EDUARDO DUTRA PIRES PROMOT.ENTRANC.ESPECIAL SETE LAGOAS - COMARCA; SETE LAGOAS-PJ-02PJ 1.100,00 0,00 2.025,40 0,00 5.614,85 0,00 0,00 0,00 1.235,26 30/11/2020
962 483200 CARLOS EDUARDO FERNANDES NEVES RIBEIRO PROMOT.ENTRANC.ESPECIAL BARBACENA - COMARCA; BARBACENA-PJ-08PJ 1.100,00 0,00 1.492,40 0,00 3.368,91 0,00 0,00 0,00 1.029,39 30/11/2020
963 315400 CARLOS EDUARDO FERREIRA PINTO PROMOT.ENTRANC.ESPECIAL RIBEIRÃO DAS NEVES - COMARCA; RIBEIRAO DAS NEVES-PJ-01PJ 1.100,00 0,00 1.790,88 0,00 3.368,91 0,00 0,00 0,00 1.029,39 30/11/2020
964 55300 CARLOS EDUARDO MAFRA CAVALCANTI PROCURADOR DE JUSTICA BELO HORIZONTE - COMARCA; GABINETE DE PROCURADOR DE JUSTIÇA - SALA 503 1.100,00 0,00 2.558,40 0,00 3.546,22 0,00 0,00 0,00 1.083,57 30/11/2020
965 650800 CARLOS EDUARDO NIZA DA SILVA OFICIAL DO MP IGARAPÉ - COMARCA; IGARAPE-PJ-01PJ 1.100,00 0,00 450,00 0,00 0,00 0,00 0,00 0,00 411,13 30/11/2020
966 491800 CARLOS EDUARDO ROMAN OFICIAL DO MP BARBACENA - COMARCA; BARBACENA-PJ-09PJ 1.100,00 0,00 450,00 0,00 0,00 0,00 0,00 0,00 806,58 30/11/2020
967 157600 CARLOS EUGENIO SOUTO MAIOR FILIZOLA JUNIOR PROMOTOR 2A ENTRANCIA ENTRE-RIOS DE MINAS - COMARCA; ENTRE RIOS DE MINAS-PJ-UNPJ 1.100,00 0,00 0,00 0,00 0,00 0,00 0,00 0,00 0,00 30/11/2020
968 1122900 CARLOS GUILHERME COLLENGHI DIAS ESTAGIARIO UBERABA; UBERABA-PJ-04PJ 0,00 0,00 0,00 81,00 0,00 0,00 0,00 0,00 0,00 30/11/2020
969 1061800 CARLOS HENRIQUE ALVES MOURAO ESTAGIARIO MONTES CLAROS; COORD REG PATRI PUB ORD TRIB-NORTE MINAS 0,00 0,00 0,00 189,00 0,00 0,00 0,00 0,00 0,00 30/11/2020
970 299300 CARLOS HENRIQUE BICALHO ANALISTA DO MP BELO HORIZONTE - COMARCA; BH-17PJ PATRIMONIO PUBLICO-SECRETARIA 1.100,00 769,39 450,00 0,00 0,00 0,00 0,00 0,00 2.028,11 30/11/2020
971 205100 CARLOS HENRIQUE ESTEVES OFICIAL DO MP ITAMBACURI - COMARCA; ITAMBACURI-PJ-01PJ 1.100,00 0,00 450,00 0,00 0,00 0,00 0,00 0,00 1.983,19 30/11/2020
972 351600 CARLOS HENRIQUE FELICIO DA FONSECA OFICIAL DO MP JUIZ DE FORA - COMARCA; JUIZ DE FORA-PJ-21PJ 1.100,00 0,00 450,00 0,00 0,00 0,00 0,00 0,00 1.170,16 30/11/2020
973 657100 CARLOS HENRIQUE SOUSA DA SILVA MAJOR BELO HORIZONTE - COMARCA; NUCLEO DE COMBATE AOS CRIMES AMBIENTAIS 1.100,00 0,00 0,00 0,00 0,00 0,00 0,00 0,00 0,00 30/11/2020
974 210900 CARLOS HENRIQUE TORRES DE SOUZA PROMOT.ENTRANC.ESPECIAL BELO HORIZONTE - COMARCA; CHEFIA DE GABINETE 1.100,00 0,00 3.368,91 0,00 16.844,55 0,00 0,00 0,00 1.235,26 30/11/2020
975 104600 CARLOS JOSE E SILVA FORTES PROMOT.ENTRANC.ESPECIAL DIVINÓPOLIS - COMARCA; DIVINOPOLIS-PJ-06PJ 1.100,00 0,00 2.302,56 0,00 5.614,85 0,00 0,00 0,00 1.235,26 30/11/2020
976 656200 CARLOS JOSE GOMES ALVES 2O.TENENTE BELO HORIZONTE - COMARCA; NUCLEO DE OPERACOES DE SEGURANCA ORGANICA 1.100,00 0,00 0,00 0,00 0,00 0,00 0,00 0,00 0,00 30/11/2020
977 85400 CARLOS JOSE VIEIRA OFICIAL DO MP BELO HORIZONTE - COMARCA; DIRETORIA DO COLEGIO E DA CAMARA DE PJ 1.100,00 0,00 450,00 0,00 0,00 0,00 0,00 0,00 0,00 30/11/2020
978 685800 CARLOS LEONARDO MARTINS DA SILVA PROMOTOR SUBSTITUTO GRAO MOGOL - COMARCA; GRAO MOGOL-PJ-UNPJ 1.100,00 0,00 2.025,40 0,00 0,00 0,00 0,00 0,00 0,00 30/11/2020
979 1142200 CARLOS MARTINS DE OLIVEIRA JUNIOR ESTAGIARIO 0,00 0,00 0,00 27,00 0,00 0,00 0,00 0,00 0,00 30/11/2020
980 229100 CARLOS MERCES DE OLIVEIRA ANALISTA DO MP BELO HORIZONTE - COMARCA; CENTRAL DE APOIO TECN-SETOR DE MEIO AMBIENTE 1.100,00 0,00 450,00 0,00 25,33 0,00 0,00 0,00 2.109,49 30/11/2020
981 538300 CARLOS RANGEL SILVA DE MELO ANALISTA DO MP BELO HORIZONTE - COMARCA; DIVISAO DE CONTROLE IMOBILIARIO 1.100,00 769,39 450,00 0,00 0,00 0,00 0,00 0,00 986,98 30/11/2020
982 265100 CARLOS REIFF MIRANDA ANALISTA DO MP BELO HORIZONTE - COMARCA; BH-19PJ SAUDE-SECRETARIA 150PJ 1.100,00 0,00 450,00 0,00 0,00 0,00 0,00 0,00 1.738,49 30/11/2020
983 305400 CARLOS ROCHA DE SOUZA OFICIAL DO MP MONTALVÂNIA - COMARCA; MONTALVANIA-PJ-SECRETARIA 1.100,00 0,00 450,00 0,00 0,00 464,97 0,00 0,00 737,93 30/11/2020
984 371600 CARLOS SAMUEL BORGES CUNHA PROMOT.ENTRANC.ESPECIAL MANHUAÇU - COMARCA; MANHUACU-PJ-05PJ 1.100,00 0,00 852,80 0,00 5.614,85 0,00 0,00 0,00 1.235,26 30/11/2020
985 365100 CARLOS WAGNER SANDER MORAIS COORDENADOR/OFICIAL BELO HORIZONTE - COMARCA; DIRETORIA DE ADMINISTRACAO FINANCEIRA 1.100,00 0,00 450,00 0,00 0,00 0,00 0,00 0,00 1.355,00 30/11/2020
986 293400 CARLOS WILDE RIBEIRO DE MELLO PROMOT.ENTRANC.ESPECIAL BARBACENA - COMARCA; BARBACENA-PJ-07PJ 1.100,00 0,00 2.558,40 0,00 3.368,91 0,00 0,00 0,00 1.029,39 30/11/2020
987 399900 CARMELITA EVANGELISTA DE SOUZA OFICIAL DO MP JOÃO PINHEIRO - COMARCA; JOAO PINHEIRO-PJ-01PJ 1.100,00 0,00 450,00 0,00 0,00 0,00 0,00 0,00 881,49 30/11/2020
988 202000 CARMEN LUCIA MARIZ DE MACEDO OFICIAL DO MP BELO HORIZONTE - COMARCA; DIRETORIA GESTAO COMPRAS LICITACOES 1.100,00 0,00 450,00 0,00 190,71 0,00 0,00 0,00 2.277,09 30/11/2020
989 987800 CAROLAINE GOMES DE SOUZA ESTAGIARIO PARACATU; COORD REG PP NOROESTE MINAS GERAIS PARACATU 0,00 0,00 0,00 144,00 0,00 0,00 0,00 0,00 0,00 30/11/2020
990 1094400 CAROLAINY APARECIDA SOUZA CASTRO ESTAGIARIO VICOSA; VICOSA-PJ-01PJ 0,00 0,00 0,00 72,00 0,00 0,00 0,00 0,00 0,00 30/11/2020
991 1181900 CAROLINA ALVES GOMES ESTAGIARIO UBERABA; COORD REG SAUDE MACROR SANIT TRIANGULO SUL 0,00 0,00 0,00 99,00 0,00 0,00 0,00 0,00 0,00 30/11/2020
992 359700 CAROLINA ANDRADE BORGES DE MATTOS PROMOTOR SUBSTITUTO BICAS - COMARCA; BICAS-PJ-UNPJ 1.100,00 0,00 2.174,64 0,00 3.040,44 0,00 0,00 0,00 929,03 30/11/2020
993 1149100 CAROLINA AUGUSTA MILO FERREIRA ESTAGIARIO UNAI; UNAI-PJ-03PJ 0,00 0,00 0,00 171,00 0,00 0,00 0,00 0,00 0,00 30/11/2020
994 1103100 CAROLINA BONATO GONCALVES COSTA ESTAGIARIO BARBACENA; BARBACENA-PJ-08PJ 0,00 0,00 0,00 54,00 0,00 0,00 0,00 0,00 0,00 30/11/2020
995 1164100 CAROLINA CARDOSO DE OLIVEIRA ESTAGIARIO IPATINGA; IPATINGA-PJ-06PJ 0,00 0,00 0,00 54,00 0,00 0,00 0,00 0,00 0,00 30/11/2020
996 611000 CAROLINA CERIGATTO PROMOT.ENTRANC.ESPECIAL GOVERNADOR VALADARES - COMARCA; GOVERNADOR VALADARES-PJ-11PJ 1.100,00 0,00 0,00 0,00 0,00 0,00 0,00 0,00 0,00 30/11/2020
997 1101000 CAROLINA CHARBEL LEITAO DE ALMEIDA ESTAGIARIO BELO HORIZONTE; BH-18PJ VIOLENCIA DOMESTICA-GAB 178PJ 0,00 0,00 0,00 63,00 0,00 0,00 0,00 0,00 0,00 30/11/2020
998 228500 CAROLINA CHIARELLA DOS SANTOS RIBEIRO ASSESSOR/OFICIAL BELO HORIZONTE - COMARCA; PROCURADORIA-GERAL ADJUNTA INSTITUCIONAL 1.100,00 0,00 450,00 0,00 0,00 0,00 0,00 0,00 1.086,98 30/11/2020
999 446500 CAROLINA COSTA VAL RODRIGUES ANALISTA DO MP CONTAGEM - COMARCA; CONTAGEM-PJ-05PJ 1.100,00 0,00 450,00 0,00 0,00 0,00 0,00 0,00 1.389,78 30/11/2020
1000 1198800 CAROLINA DINIZ MENDES ESTAGIARIO BELO HORIZONTE; BH-18PJ VIOLENCIA DOMESTICA-GAB 053PJ 0,00 0,00 0,00 36,00 0,00 0,00 0,00 0,00 0,00 30/11/2020
1001 603501 CAROLINA DOMINGOS BRANDAO RABELLO ANALISTA DO MP BARROSO - COMARCA; BARROSO-PJ-01PJ 1.100,00 0,00 450,00 0,00 0,00 0,00 0,00 0,00 806,91 30/11/2020
1002 404300 CAROLINA DOS SANTOS VIEIRA ANALISTA DO MP BELO HORIZONTE - COMARCA; BH-08PJ JUIZADO ESPECIAL-SECRETARIA 1.100,00 0,00 450,00 0,00 0,00 0,00 0,00 0,00 1.365,29 30/11/2020
1003 1039000 CAROLINA EVANGELISTA ALVES ESTAGIARIO BELO HORIZONTE; BH-18PJ VIOLENCIA DOMESTICA-GAB 185PJ 0,00 0,00 0,00 90,00 0,00 0,00 0,00 0,00 0,00 30/11/2020
1004 634600 CAROLINA FRARE LAMEIRINHA PROMOTOR 2A ENTRANCIA CARMO DO PARANAÍBA - COMARCA; CARMO DO PARANAIBA-PJ-02PJ 1.100,00 0,00 1.833,52 0,00 0,00 0,00 0,00 0,00 0,00 30/11/2020
1005 405401 CAROLINA GENTIL MEDEIROS MARQUEZ PROMOTOR SUBSTITUTO BETIM - COMARCA; BETIM-PJ-08PJ 1.100,00 0,00 2.605,20 0,00 0,00 0,00 0,00 0,00 0,00 30/11/2020
1006 551200 CAROLINA LOPES ARANTES MASCARENHAS ANALISTA DO MP BELO HORIZONTE - COMARCA; EXTINTA-COORD EST DEF DIR FAM PES DEFIC IDOSO 1.100,00 769,39 450,00 0,00 0,00 0,00 0,00 0,00 832,27 30/11/2020
1007 994100 CAROLINA LOPES DE AGUIAR ESTAGIARIO BELO HORIZONTE; BH-07PJ 01 TRIBUNAL DO JURI-GAB 060PJ 0,00 0,00 0,00 18,00 0,00 0,00 0,00 0,00 0,00 30/11/2020
1008 622600 CAROLINA LOREDO LOPES CATIZANI OFICIAL DO MP RIBEIRÃO DAS NEVES - COMARCA; RIBEIRAO DAS NEVES-PJ-12PJ 1.100,00 0,00 450,00 0,00 0,00 0,00 0,00 0,00 446,13 30/11/2020
1009 1139100 CAROLINA MARIA DE ANDRADE RAMOS ESTAGIARIO 0,00 0,00 0,00 108,00 0,00 0,00 0,00 0,00 0,00 30/11/2020
1010 362900 CAROLINA MARQUES ANDRADE PROMOTOR 2A ENTRANCIA FRUTAL - COMARCA; FRUTAL-PJ-01PJ 1.100,00 0,00 2.601,04 0,00 3.200,47 0,00 0,00 0,00 977,92 30/11/2020
1011 1192000 CAROLINA MARTINS AGUIAR ESTAGIARIO RIBEIRAO DAS NEVES; RIBEIRAO NEVES-SEC PJ EXECUCAO PENAL 0,00 0,00 0,00 162,00 0,00 0,00 0,00 0,00 0,00 30/11/2020
1012 929500 CAROLINA MARTINS DRIGO ESTAGIARIO UBERLANDIA; UBERLANDIA-PJ-02PJ
1013 457400 CAROLINA MELO CAMPOS PROMOTOR SUBSTITUTO CONTAGEM - COMARCA; CONTAGEM-PJ-21PJ 1.100,00 0,00 746,20 0,00 1.013,48 0,00 0,00 0,00 743,22 30/11/2020
1014 382200 CAROLINA MENDES CHAVES LIN ANALISTA DO MP BELO HORIZONTE - COMARCA; BH-12PJ JUIZO CRIMINAL-GAB 088PJ 1.100,00 769,39 450,00 0,00 0,00 0,00 0,00 0,00 1.057,16 30/11/2020
1015 313600 CAROLINA MENDONCA DE SIQUEIRA PROMOT.ENTRANC.ESPECIAL BELO HORIZONTE - COMARCA; ASSESSORIA ESPECIAL DO PGJ 1.100,00 0,00 1.279,20 0,00 5.614,85 0,00 0,00 0,00 1.235,26 30/11/2020
1016 461900 CAROLINA MURTA TEIXEIRA DIAS ASSESSOR/ANALISTA BELO HORIZONTE - COMARCA; PROCURADOR-GERAL DE JUSTIÇA 1.100,00 0,00 450,00 0,00 0,00 0,00 0,00 0,00 1.348,90 30/11/2020
1017 1193900 CAROLINA PEREIRA VIEIRA ESTAGIARIO BELO HORIZONTE; PROC. JUSTICA CRIMINAL 0,00 0,00 0,00 108,00 0,00 0,00 0,00 0,00 0,00 30/11/2020
1018 509600 CAROLINA PINTO DE OLIVEIRA SOUZA ANALISTA DO MP MURIAÉ - COMARCA; MURIAE-PJ-01PJ 1.100,00 769,39 450,00 0,00 0,00 0,00 0,00 0,00 1.104,30 30/11/2020
1019 526400 CAROLINA QUEIROZ DE CARVALHO PROMOT.ENTRANC.ESPECIAL CONSELHEIRO LAFAIETE - COMARCA; CONSELHEIRO LAFAIETE-PJ-02PJ 1.100,00 0,00 0,00 0,00 20.213,47 0,00 0,00 0,00 1.029,39 30/11/2020
1020 1200500 CAROLINA RIBEIRO DOS SANTOS ESTAGIARIO BELO HORIZONTE; BH-08PJ JUIZADO ESPECIAL-GAB 067PJ 0,00 0,00 0,00 36,00 0,00 0,00 0,00 0,00 0,00 30/11/2020
1021 667000 CAROLINA RITA TORRES GRUBER PROMOTOR 2A ENTRANCIA SÃO FRANCISCO - COMARCA; SAO FRANCISCO-PJ-01PJ 1.100,00 0,00 1.407,12 0,00 3.200,47 0,00 0,00 0,00 977,92 30/11/2020
1022 629100 CAROLINA RODRIGUES AMARAL ANALISTA DO MP BELO HORIZONTE - COMARCA; PROC. JUSTICA DIR. DIFUSOS E COLETIVOS-SEC 1.100,00 0,00 450,00 0,00 0,00 0,00 0,00 0,00 740,55 30/11/2020
1023 502600 CAROLINA RODRIGUES RUBEN ANALISTA DO MP BELO HORIZONTE - COMARCA; BH-18PJ VIOLENCIA DOMESTICA-SECRETARIA 1.100,00 1.538,78 450,00 0,00 0,00 0,00 0,00 0,00 2.791,52 30/11/2020
1024 1045600 CAROLINA SANTOS FERREIRA DE LEMOS ESTAGIARIO BELO HORIZONTE; BH-02PJ FAMILIA-SECRETARIA
1025 1176700 CAROLINA SOUZA ALVES ESTAGIARIO SABARA; SABARA-PJ-03PJ 0,00 0,00 0,00 189,00 0,00 0,00 0,00 0,00 0,00 30/11/2020
1026 1032800 CAROLINA STEFANE SILVA MOREIRA ESTAGIARIO VESPASIANO; VESPASIANO-PJ-06PJ 0,00 0,00 0,00 54,00 0,00 0,00 0,00 0,00 0,00 30/11/2020
1027 1144200 CAROLINA TEIXEIRA SILVA ESTAGIARIO ARINOS; ARINOS-PJ-UNPJ 0,00 0,00 0,00 144,00 0,00 0,00 0,00 0,00 0,00 30/11/2020
1028 529600 CAROLINA VAZ DE MELO MAMBRINI ANALISTA DO MP BELO HORIZONTE - COMARCA; DIVISAO DE MATERIAIS 1.100,00 0,00 450,00 0,00 0,00 0,00 0,00 0,00 2.978,15 30/11/2020
1029 619100 CAROLINA ZAKHIA NARDELLI RODRIGUES ANALISTA DO MP NEPOMUCENO - COMARCA; NEPOMUCENO-PJ-UNPJ 1.100,00 769,39 450,00 0,00 0,00 0,00 0,00 0,00 1.187,27 30/11/2020
1030 517600 CAROLINE ALVES DE OLIVEIRA MULLER ANALISTA DO MP VISCONDE DO RIO BRANCO - COMARCA; VISCONDE DO RIO BRANCO-PJ-01PJ 1.100,00 769,39 450,00 0,00 0,00 0,00 0,00 0,00 1.142,62 30/11/2020
1031 957800 CAROLINE ALVES GARCIA RODRIGUES ESTAGIARIO BELO HORIZONTE; ASSESSORIA ESPECIAL DO PGJ 0,00 0,00 0,00 99,00 0,00 0,00 0,00 0,00 0,00 30/11/2020
1032 373200 CAROLINE ANTUNES RIBEIRO OFICIAL DO MP JACUI - COMARCA; JACUI-PJ-UNPJ 1.100,00 0,00 450,00 0,00 0,00 0,00 0,00 0,00 1.030,40 30/11/2020
1033 1084100 CAROLINE APARECIDA MENDES ESTAGIARIO UBERLANDIA; UBERLANDIA-PJ-04PJ 0,00 0,00 0,00 180,00 0,00 0,00 0,00 0,00 0,00 30/11/2020
1034 556800 CAROLINE DE SOUZA CARDOSO DOMINGUES OFICIAL DO MP BRASÍLIA DE MINAS - COMARCA; BRASILIA DE MINAS-PJ-02PJ 1.100,00 0,00 450,00 0,00 0,00 0,00 0,00 0,00 525,77 30/11/2020
1035 1143700 CAROLINE ESTEVES DE CARVALHO ESTAGIARIO 0,00 0,00 0,00 81,00 0,00 0,00 0,00 0,00 0,00 30/11/2020
1036 1081300 CAROLINE FERREIRA DE ALMEIDA ESTAGIARIO BELO HORIZONTE; BH-02PJ FAMILIA-GAB 016PJ
1037 499400 CAROLINE MARQUES DE LOURDES MARZULLO OFICIAL DO MP JUIZ DE FORA - COMARCA; JUIZ DE FORA-PJ-08PJ 1.100,00 1.153,54 450,00 0,00 0,00 0,00 0,00 0,00 681,63 30/11/2020
1038 616800 CAROLINE MONTEIRO DE BARROS ANALISTA DO MP CONTAGEM - COMARCA; CONTAGEM-PJ-11PJ 1.100,00 0,00 450,00 0,00 0,00 0,00 0,00 0,00 775,36 30/11/2020
1039 342500 CAROLINE PESTANA GOMES PROMOT.ENTRANC.ESPECIAL VESPASIANO - COMARCA; VESPASIANO-PJ-06PJ 1.100,00 0,00 2.687,20 0,00 3.368,91 0,00 0,00 0,00 1.029,39 30/11/2020
1040 1079200 CAROLINE REVERT OLIVEIRA SOARES ESTAGIARIO JANUARIA; JANUARIA-PJ-02PJ 0,00 0,00 0,00 189,00 0,00 0,00 0,00 0,00 0,00 30/11/2020
1041 972000 CAROLINE SARMENTO RODRIGUES ESTAGIARIO SALINAS; SALINAS-PJ-02PJ 0,00 0,00 0,00 171,00 0,00 0,00 0,00 0,00 0,00 30/11/2020
1042 1093400 CAROLINE SILVA ARAUJO ESTAGIARIO BELO HORIZONTE; DIVISAO DE MANUTENCAO PREDIAL 0,00 0,00 0,00 18,00 0,00 0,00 0,00 0,00 0,00 30/11/2020
1043 618100 CAROLINE VASCONCELOS COSTA LANZA ANALISTA DO MP PARAOPEBA - COMARCA; PARAOPEBA-PJ-UNPJ 1.100,00 3.077,56 450,00 0,00 0,00 0,00 0,00 0,00 1.200,19 30/11/2020
1044 210600 CASSANDRA DA CONCEICAO DANTAS SERRAO PROMOT.ENTRANC.ESPECIAL BELO HORIZONTE - COMARCA; BH-02PJ FAMILIA-GAB 026PJ 1.100,00 0,00 1.748,24 0,00 0,00 0,00 0,00 0,00 0,00 30/11/2020
1045 604000 CASSIA APARECIDA DA SILVA OFICIAL DO MP PARACATU - COMARCA; PARACATU-PJ-01PJ 1.100,00 0,00 450,00 0,00 0,00 0,00 0,00 0,00 713,98 30/11/2020
1046 268800 CASSIA BEATRIZ TEIXEIRA OFICIAL DO MP BELO HORIZONTE - COMARCA; PROC JUST ESP ACOES COMP ORIG CRIMINAL-SEC 1.100,00 0,00 450,00 0,00 0,00 0,00 0,00 0,00 1.482,49 30/11/2020
1047 500000 CASSIA DE OLIVEIRA COSTA VIANA ANALISTA DO MP SETE LAGOAS - COMARCA; SETE LAGOAS-PJ-09PJ 1.100,00 0,00 450,00 0,00 0,00 0,00 0,00 0,00 1.405,74 30/11/2020
1048 1026900 CASSIA DOS REIS SILVA ESTAGIARIO NOVA LIMA; NOVA LIMA-PJ-02PJ 0,00 0,00 0,00 45,00 0,00 0,00 0,00 0,00 0,00 30/11/2020
1049 368800 CASSIA LUISA BATISTA MENDONCA WEBER OFICIAL DO MP BELO HORIZONTE - COMARCA; DIVISÃO DE EDUCAÇÃO PARA O CONSUMO 1.100,00 0,00 450,00 0,00 0,00 0,00 0,00 0,00 822,81 30/11/2020
1050 622200 CASSIA VAZ DE AZEVEDO LISBOA MARZANO ASSESSOR BELO HORIZONTE - COMARCA; CGMP-SECRETARIA DA CORREGEDORIA-GERAL DO MP 1.100,00 769,39 450,00 0,00 0,00 0,00 0,00 0,00 291,67 30/11/2020
1051 156100 CASSIA VIRGINIA SERRA TEIXEIRA GONTIJO PROCURADOR DE JUSTICA BELO HORIZONTE - COMARCA; GABINETE DE PROCURADOR DE JUSTIÇA - SALA 610 1.100,00 0,00 2.451,80 0,00 3.546,22 0,00 0,00 0,00 1.083,57 30/11/2020
1052 971100 CASSIANO QUEIROZ AVELAR SILVEIRA ESTAGIARIO PASSOS; PASSOS-PJ-05PJ 0,00 0,00 0,00 189,00 0,00 0,00 0,00 0,00 0,00 30/11/2020
1053 121000 CASSIO HENRIQUE AFONSO DA SILVA OFICIAL DO MP BELO HORIZONTE - COMARCA; CGMP-ASSESSORIA JURIDICA 1.100,00 0,00 450,00 0,00 0,00 0,00 0,00 0,00 2.768,82 30/11/2020
1054 121100 CASSIO MOREIRA DE MIRANDA AGENTE DO MP BELO HORIZONTE - COMARCA; DIVISÃO DE FISCALIZAÇÃO DAS RELAÇÕES DE CONSU 1.100,00 0,00 450,00 0,00 0,00 0,00 0,00 0,00 815,81 30/11/2020
1055 512001 CATARINA NATALINO CALIXTO COORDENADOR/ANALISTA BELO HORIZONTE - COMARCA; DIRETORIA GESTAO TRANSPORTES 1.100,00 0,00 450,00 0,00 0,00 0,00 0,00 0,00 2.764,81 30/11/2020
1056 606200 CATARINE DE SIQUEIRA DE QUADROS ANALISTA DO MP RIBEIRÃO DAS NEVES - COMARCA; RIBEIRAO DAS NEVES-PJ-02PJ 1.100,00 0,00 450,00 0,00 0,00 0,00 0,00 0,00 751,55 30/11/2020
1057 622300 CECILIA APARECIDA PEREIRA ASSUNCAO OFICIAL DO MP TRÊS PONTAS - COMARCA; TRES PONTAS-PJ-SECRETARIA 1.100,00 1.769,60 450,00 0,00 0,00 0,00 0,00 0,00 538,43 30/11/2020
1058 538000 CECILIA FONTES DE MATOS PIMENTEL ANALISTA DO MP PALMA - COMARCA; PALMA-PJ-UNPJ 1.100,00 769,39 450,00 0,00 0,00 0,00 0,00 0,00 928,34 30/11/2020
1059 261300 CECILIO ANTONIO CAMPOS DOS REIS ANALISTA DO MP BELO HORIZONTE - COMARCA; AUDITORIA INTERNA 1.100,00 0,00 450,00 0,00 0,00 0,00 0,00 0,00 2.324,91 30/11/2020
1060 386400 CEFAS AMORELI DE FIGUEIREDO OFICIAL DO MP CABO VERDE - COMARCA; CABO VERDE-PJ-SECRETARIA 1.100,00 0,00 450,00 0,00 0,00 0,00 0,00 0,00 643,68 30/11/2020
1061 105600 CELIA BEATRIZ GOMES DOS SANTOS PROCURADOR DE JUSTICA BELO HORIZONTE - COMARCA; PROC JUSTICA DIR DIFUSOS E COLETIVOS-GAB006 1.100,00 0,00 1.599,00 0,00 5.910,37 0,00 0,00 0,00 1.300,28 30/11/2020
1062 149000 CELIA MAGALHAES CLAROS SOSSI OFICIAL DO MP GOVERNADOR VALADARES - COMARCA; GAECO REGIONAL DE GOVERNADOR VALADARES 1.100,00 0,00 450,00 0,00 0,00 0,00 0,00 0,00 2.320,90 30/11/2020
1063 421000 CELINA BENEDITA DE SOUZA ALMEIDA OFICIAL DO MP CAMBUÍ - COMARCA; CAMBUI-PJ-01PJ 1.100,00 0,00 450,00 0,00 0,00 0,00 0,00 0,00 1.891,05 30/11/2020
1064 252900 CELIO DE MELO CASTOR ANALISTA DO MP BELO HORIZONTE - COMARCA; BH-02PJ FAMILIA-SECRETARIA 1.100,00 0,00 450,00 0,00 0,00 0,00 0,00 0,00 2.008,18 30/11/2020
1065 486300 CELIO DIMAS ESTEVES RUAS PROMOT.ENTRANC.ESPECIAL CORONEL FABRICIANO - COMARCA; CORONEL FABRICIANO-PJ-02PJ 1.100,00 0,00 1.992,76 0,00 5.614,85 0,00 0,00 0,00 1.235,26 30/11/2020
1066 395700 CELIO FERREIRA LIMA OFICIAL DO MP CONTAGEM - COMARCA; CONTAGEM-PJ-SECRETARIA 1.100,00 769,39 450,00 0,00 0,00 0,00 0,00 0,00 1.032,08 30/11/2020
1067 281300 CELMA REGINA PEREIRA SANTOS ANALISTA DO MP BELO HORIZONTE - COMARCA; SUPERINTENDENCIA GESTÃO DE PESSOAS 1.100,00 0,00 450,00 0,00 0,00 0,00 0,00 0,00 1.880,35 30/11/2020
1068 535600 CELSO MEDEIROS DE PAIVA OFICIAL DO MP RIO PRETO - COMARCA; RIO PRETO-PJ-SECRETARIA 1.100,00 0,00 450,00 0,00 0,00 0,00 0,00 0,00 548,98 30/11/2020
1069 157700 CELSO PENNA FERNANDES JUNIOR PROMOT.ENTRANC.ESPECIAL BELO HORIZONTE - COMARCA; BH-23PJ CIVEL-GAB 162PJ 1.100,00 0,00 2.345,20 0,00 5.614,85 0,00 0,00 0,00 1.235,26 30/11/2020
1070 93700 CESAR ANTONIO COSSI PROCURADOR DE JUSTICA BELO HORIZONTE - COMARCA; GABINETE DE PROCURADOR DE JUSTIÇA - SALA 805 1.100,00 0,00 2.558,40 0,00 5.910,37 0,00 0,00 0,00 1.300,28 30/11/2020
1071 293100 CESAR ANTONIO DE LIMA PROMOT.ENTRANC.ESPECIAL VARGINHA - COMARCA; VARGINHA-PJ-04PJ 1.100,00 0,00 2.558,40 0,00 3.368,91 0,00 0,00 0,00 1.029,39 30/11/2020
1072 293800 CESAR AUGUSTO DOS SANTOS PROMOT.ENTRANC.ESPECIAL BELO HORIZONTE - COMARCA; BH-12PJ JUIZO CRIMINAL-GAB 091PJ 1.100,00 0,00 852,80 0,00 5.614,85 0,00 0,00 0,00 0,00 30/11/2020
1073 367000 CESAR NARVAES DE AVELAR COORDENADOR/OFICIAL BELO HORIZONTE - COMARCA; DIVISAO DE MEMORIA INSTITUCIONAL 1.100,00 0,00 450,00 0,00 0,00 0,00 0,00 0,00 1.239,72 30/11/2020
1074 226500 CESAR SILVEIRA BARROUIN OFICIAL DO MP BELO HORIZONTE - COMARCA; DIRETORIA DE ADMINISTRACAO FINANCEIRA 1.100,00 0,00 450,00 0,00 0,00 0,00 0,00 0,00 1.661,28 30/11/2020
1075 293500 CESAR YOSHIKAWA PROMOT.ENTRANC.ESPECIAL BELO HORIZONTE - COMARCA; BH-12PJ JUIZO CRIMINAL-GAB 083PJ 1.100,00 0,00 2.302,56 0,00 5.614,85 0,00 0,00 0,00 1.235,26 30/11/2020
1076 1125600 CEZAR AUGUSTO RANGEL MARQUES ESTAGIARIO JUIZ DE FORA; JUIZ DE FORA-PJ-22PJ 0,00 0,00 0,00 99,00 0,00 0,00 0,00 0,00 0,00 30/11/2020
1077 121400 CEZAR MORENO CONCEICAO TAVARES OFICIAL DO MP BELO HORIZONTE - COMARCA; EXTINTA-COORD EST DEF DIR FAM PES DEFIC IDOSO 1.100,00 769,39 450,00 0,00 0,00 0,00 0,00 0,00 2.486,84 30/11/2020
1078 1175900 CHARLENE MARISE DA SILVA ESTAGIARIO ESMERALDAS; ESMERALDAS-PJ-02PJ 0,00 0,00 0,00 171,00 0,00 0,00 0,00 0,00 0,00 30/11/2020
1079 664100 CHARLES BARBOSA DA SILVA 3O.SARGENTO BELO HORIZONTE - COMARCA; NUCLEO DE OPERACOES DE SEGURANCA DE PESSOAL 1.100,00 0,00 0,00 0,00 0,00 0,00 0,00 0,00 0,00 30/11/2020
1080 210400 CHARLES DANIEL FRANCA SALOMAO PROMOT.ENTRANC.ESPECIAL PARÁ DE MINAS - COMARCA; PARA DE MINAS-PJ-02PJ 1.100,00 0,00 1.748,24 0,00 5.614,85 0,00 0,00 0,00 1.235,26 30/11/2020
1081 669200 CHARLES HENRIQUE SQUARCIO CABO BELO HORIZONTE - COMARCA; GAECO - SECRETARIA 1.100,00 0,00 0,00 0,00 0,00 0,00 0,00 0,00 0,00 30/11/2020
1082 243800 CHARLES MARTINS MUNIZ OFICIAL DO MP BELO HORIZONTE - COMARCA; LAB TECNOLOGIA CONTRA LAVAGEM DINHEIRO 1.100,00 0,00 0,00 0,00 0,00 0,00 0,00 0,00 1.594,69 30/11/2020
1083 193500 CHARLIN CESAR KOURLY OFICIAL DO MP ARAGUARI - COMARCA; ARAGUARI-PJ-07PJ 1.100,00 0,00 450,00 0,00 0,00 0,00 0,00 0,00 1.896,93 30/11/2020
1084 385500 CHILLEN PEIXOTO DE MOURA OFICIAL DO MP BELO HORIZONTE - COMARCA; DIVISÃO DE FISCALIZAÇÃO DAS RELAÇÕES DE CONSU 1.100,00 1.384,90 450,00 0,00 0,00 0,00 0,00 0,00 1.166,04 30/11/2020
1085 1094300 CHRISLAYNE DE FATIMA DA SILVA ESTAGIARIO VICOSA; VICOSA-PJ-01PJ 0,00 0,00 0,00 54,00 0,00 0,00 0,00 0,00 0,00 30/11/2020
1086 1003500 CHRISTIAN ALEXANDRE DA SILVA PEREIRA ESTAGIARIO SANTA LUZIA; SANTA LUZIA-PJ-03PJ 0,00 0,00 0,00 54,00 0,00 0,00 0,00 0,00 0,00 30/11/2020
1087 534500 CHRISTIAN DOUGLAS BRITO RUAS OFICIAL DO MP SÃO JOÃO DA PONTE - COMARCA; SAO JOAO DA PONTE-PJ-SECRETARIA 1.100,00 0,00 450,00 0,00 0,00 0,00 0,00 0,00 773,81 30/11/2020
1088 370600 CHRISTIAN KARINE FELIX PRATES ASSESSOR BELO HORIZONTE - COMARCA; SUPRIN DE PLANEJAMENTO E COORDENACAO 1.100,00 0,00 450,00 0,00 0,00 0,00 0,00 0,00 945,77 30/11/2020
1089 1073800 CHRISTIAN RODRIGUES FRAGA DA SILVA ESTAGIARIO BELO HORIZONTE; SUPERINTENDÊNCIA DE ENGENHARIA E ARQUITETURA 0,00 0,00 0,00 144,00 0,00 0,00 0,00 0,00 30,17 30/11/2020
1090 435800 CHRISTIANA BAHIA ANDRADE PINA ANALISTA DO MP BELO HORIZONTE - COMARCA; LABORATORIO TECNOLOGIA INTELIGENCIA 1.100,00 769,39 450,00 0,00 0,00 0,00 0,00 0,00 1.374,14 30/11/2020
1091 516800 CHRISTIANE FERREIRA DO NASCIMENTO ANALISTA DO MP POUSO ALEGRE - COMARCA; POUSO ALEGRE-PJ-08PJ 1.100,00 0,00 450,00 0,00 0,00 0,00 0,00 0,00 1.013,46 30/11/2020
1092 176000 CHRISTIANE JUNQUEIRA PULITI ANDRADE DE BARROS ASSESSOR BELO HORIZONTE - COMARCA; CAO-VIOLENCIA DOMESTICA E FAMILIAR 1.100,00 0,00 450,00 0,00 0,00 0,00 0,00 0,00 2.004,67 30/11/2020
1093 319200 CHRISTIANE MARIA DE ASSIS RUSSO OFICIAL DO MP BELO HORIZONTE - COMARCA; CAO-ORDEM ECONOMICA E TRIBUTARIA-SECRETARIA 1.100,00 769,39 450,00 0,00 0,00 0,00 0,00 0,00 1.239,93 30/11/2020
1094 510300 CHRISTIANE MARY DE CARVALHO FERREIRA ANALISTA DO MP BELO HORIZONTE - COMARCA; DIRETORIA DE SISTEMAS DE INFORMACAO 1.100,00 0,00 450,00 0,00 0,00 0,00 0,00 0,00 1.081,48 30/11/2020
1095 424900 CHRISTIANE PEREIRA TURNER DE ARAUJO OFICIAL DO MP BELO HORIZONTE - COMARCA; CAO-PATRIMONIO PUBLICO 1.100,00 769,39 450,00 0,00 0,00 0,00 0,00 0,00 922,50 30/11/2020
1096 513700 CHRISTIANE VIEIRA SOARES PEDERSOLI ASSESSOR/ANALISTA BELO HORIZONTE - COMARCA; ASSESSORIA JURIDICA DO PROCON-MG 1.100,00 769,39 450,00 0,00 0,00 0,00 0,00 0,00 1.231,35 30/11/2020
1097 163300 CHRISTIANNE COTRIM ASSAD BENSOUSSAN PROMOT.ENTRANC.ESPECIAL BELO HORIZONTE - COMARCA; COORD ESTADUAL COMBATE CRIMES CIBERNETICOS 1.100,00 0,00 2.643,68 0,00 0,00 0,00 0,00 0,00 0,00 30/11/2020
1098 371400 CHRISTIANO LEONARDO GONZAGA GOMES PROMOTOR 1A ENTRANCIA JABOTICATUBAS - COMARCA; JABOTICATUBAS-PJ-UNPJ 1.100,00 0,00 1.279,20 0,00 0,00 0,00 0,00 0,00 0,00 30/11/2020
1099 412300 CHRYSTIAN MACHADO RIBEIRO ANALISTA DO MP VARGINHA - COMARCA; VARGINHA-PJ-04PJ 1.100,00 0,00 450,00 0,00 0,00 0,00 0,00 0,00 1.490,50 30/11/2020
1100 513800 CHRYSTIANE DO NASCIMENTO DE MAGALHAES OFICIAL DO MP UBERLÂNDIA - COMARCA; UBERLANDIA-PJ-10PJ 1.100,00 769,39 450,00 0,00 0,00 0,00 0,00 0,00 745,34 30/11/2020
1101 497900 CIBELE DE FREITAS SANCHES DIAS ANALISTA DO MP SABARÁ - COMARCA; SABARA-PJ-03PJ 1.100,00 0,00 450,00 0,00 0,00 0,00 0,00 0,00 1.304,92 30/11/2020
1102 500900 CIBELLE SILVA PRADO ALVARENGA ANALISTA DO MP ITANHANDU - COMARCA; ITANHANDU-PJ-UNPJ 1.100,00 1.538,78 450,00 0,00 0,00 0,00 0,00 0,00 1.111,13 30/11/2020
1103 1135700 CIBELLY OLIVEIRA SOARES ESTAGIARIO TEOFILO OTONI; TEOFILO OTONI-PJ-07PJ
1104 1131800 CINDY KEILA VILELA ESTAGIARIO LAVRAS; LAVRAS-PJ-06PJ 0,00 0,00 0,00 180,00 0,00 0,00 0,00 0,00 0,00 30/11/2020
1105 1163000 CINTHIA GONCALVES CAVALINI ESTAGIARIO UBERABA; UBERABA-PJ-11PJ 0,00 0,00 0,00 189,00 0,00 0,00 0,00 0,00 0,00 30/11/2020
1106 296400 CINTIA APARECIDA MOREIRA NAVES E RODRIGUES ANALISTA DO MP CAMPO BELO - COMARCA; CAMPO BELO-PJ-02PJ 1.100,00 0,00 450,00 0,00 0,00 0,00 0,00 0,00 3.054,79 30/11/2020
1107 928900 CINTIA CRISTINA DE SOUZA GONCALVES ESTAGIARIO BELO HORIZONTE; PROC. JUSTICA CRIMINAL
1108 171200 CINTIA MARIA OLIVEIRA DE LUCENA PROMOT.ENTRANC.ESPECIAL BELO HORIZONTE - COMARCA; BH-23PJ INFRACIONAL-GAB 144PJ 1.100,00 0,00 1.833,52 0,00 5.614,85 0,00 0,00 0,00 1.235,26 30/11/2020
1109 407900 CINTIA NETO COMELLI ANALISTA DO MP BELO HORIZONTE - COMARCA; CENTRAL DE APOIO TECNICO-SETOR CONTABIL 1.100,00 769,39 450,00 0,00 0,00 0,00 0,00 0,00 1.313,96 30/11/2020
1110 304700 CINTIA QUEIROZ OFICIAL DO MP BELO HORIZONTE - COMARCA; OUVIDORIA DO MPMG 1.100,00 0,00 450,00 0,00 0,00 0,00 0,00 0,00 1.199,17 30/11/2020
1111 163000 CINTIA ROBERTA GOMES DE LIMA PROMOTOR 2A ENTRANCIA VARGINHA - COMARCA; COORD REG PJ DEF EDUC DIR CRIANCA ADOL SUL 1.100,00 0,00 1.748,24 0,00 3.200,47 0,00 0,00 0,00 977,92 30/11/2020
1112 286100 CIRO CANGUSSU CORDEIRO OFICIAL DO MP IPATINGA - COMARCA; IPATINGA-PJ-09PJ 1.100,00 769,39 450,00 0,00 0,00 0,00 0,00 0,00 1.830,26 30/11/2020
1113 689900 CISSA NOGUEIRA NUNES ASSESSOR PROCURADOR JUSTICA BELO HORIZONTE - COMARCA; GABINETE DE PROCURADOR DE JUSTIÇA - SALA 608 1.100,00 0,00 450,00 0,00 0,00 0,00 0,00 0,00 0,00 30/11/2020
1114 1086300 CLARA ALEXANDRINA DOS SANTOS ESTAGIARIO BETIM; BETIM-PJ-13PJ 0,00 0,00 0,00 81,00 0,00 0,00 0,00 0,00 0,00 30/11/2020
1115 1052200 CLARA CAETANO TROPIA ESTAGIARIO BELO HORIZONTE; DIR CONTEUDO JORNALISTICO
1116 1185600 CLARA DE SALES DUARTE ESTAGIARIO BELO HORIZONTE; PROC. JUSTICA CRIMINAL 0,00 0,00 0,00 72,00 0,00 0,00 0,00 0,00 0,00 30/11/2020
1117 681700 CLARA FERREIRA ALKIMIM ASSESSOR PROMOTOR JUSTICA ARAÇUAÍ - COMARCA; ARACUAI-PJ-01PJ 1.100,00 0,00 450,00 0,00 0,00 0,00 0,00 0,00 0,00 30/11/2020
1118 1163800 CLARA GABRIELA GOUVEIA MONTEIRO ESTAGIARIO BELO HORIZONTE; PROC. JUSTICA CRIMINAL 0,00 0,00 0,00 36,00 0,00 0,00 0,00 0,00 0,00 30/11/2020
1119 1157100 CLARA ISABELLE SOUSA FARIA ESTAGIARIO BELO HORIZONTE; PROC. JUSTICA DE HABEAS CORPUS
1120 1095900 CLARA LAENDER GAZZINELLI ESTAGIARIO BELO HORIZONTE; PROC. JUSTICA DE HABEAS CORPUS
1121 996300 CLARA LIMA LIPOVETSKY ESTAGIARIO BELO HORIZONTE; CAO-FUNDACOES 0,00 0,00 0,00 117,00 0,00 0,00 0,00 0,00 0,00 30/11/2020
1122 1037300 CLARA MACIEL ANTUNES BARBOSA ESTAGIARIO BELO HORIZONTE; BH-19PJ SAUDE-GAB 047PJ 0,00 0,00 0,00 45,00 281,17 0,00 0,00 0,00 0,00 30/11/2020
1123 484900 CLARA MARIA HOEHNE SEPULVEDA PROMOTOR 2A ENTRANCIA PIRAPORA - COMARCA; PIRAPORA-PJ-01PJ 1.100,00 0,00 2.771,60 0,00 3.200,47 0,00 0,00 0,00 977,92 30/11/2020
1124 1157800 CLARA MARIA RODRIGUES DA SILVA ESTAGIARIO BELO HORIZONTE; BH-08PJ JUIZADO ESPECIAL-GAB 071PJ 0,00 0,00 0,00 72,00 0,00 0,00 0,00 0,00 0,00 30/11/2020
1125 894700 CLARA RODRIGUES BLACH ESTAGIARIO BELO HORIZONTE; BH-19PJ SAUDE-GAB 129PJ
1126 1086700 CLARICE CARDOSO VALENTIM ESTAGIARIO BELO HORIZONTE; DIRET DE FORMACAO, APERFEIC. E POS-GRADUACAO
1127 412500 CLARICE GOMES MAROTTA ANALISTA DO MP BELO HORIZONTE - COMARCA; PROMOT ESTADUAL DE DEF PATRI CULT E TUR DE MG 1.100,00 0,00 450,00 0,00 0,00 0,00 0,00 0,00 1.621,89 30/11/2020
1128 1005900 CLARICE GUIMARAES RABELLO ESTAGIARIO BELO HORIZONTE; DIVISAO DE MEMORIA INSTITUCIONAL
1129 1134500 CLARISSA ALVES DA SILVA ESTAGIARIO TEOFILO OTONI; TEOFILO OTONI-PJ-05PJ 0,00 0,00 0,00 198,00 0,00 0,00 0,00 0,00 30,17 30/11/2020
1130 605300 CLARISSA AZEVEDO ROCHA OFICIAL DO MP BELO HORIZONTE - COMARCA; DIRET DE DESENV DE RECURSOS HUMANOS-DDRH 1.100,00 0,00 450,00 0,00 0,00 0,00 0,00 0,00 511,91 30/11/2020
1131 1059700 CLARISSA BRANDAO FREITAS ESTAGIARIO BELO HORIZONTE; BH-07PJ 01 TRIBUNAL JURI-SECRETARIA 0,00 0,00 0,00 45,00 0,00 0,00 0,00 0,00 0,00 30/11/2020
1132 308100 CLARISSA DUARTE BELLONI DIRETOR/ANALISTA BELO HORIZONTE - COMARCA; DIRETORIA-GERAL 1.100,00 2.307,08 450,00 0,00 0,00 0,00 0,00 0,00 2.990,00 30/11/2020
1133 402100 CLARISSA GOBBO DOS SANTOS PROMOT.ENTRANC.ESPECIAL RIBEIRÃO DAS NEVES - COMARCA; RIBEIRAO DAS NEVES-PJ-04PJ 1.100,00 0,00 2.601,04 0,00 3.368,91 0,00 0,00 0,00 1.029,39 30/11/2020
1134 1020500 CLARISSA MATEUS LAVARINI CALAZANS ESTAGIARIO SETE LAGOAS; SETE LAGOAS-PJ-01PJ 0,00 0,00 0,00 81,00 0,00 0,00 0,00 0,00 0,00 30/11/2020
1135 497100 CLARISSA ROCHA GUIDI ANALISTA DO MP BELO HORIZONTE - COMARCA; BH-02PJ FAMILIA-SECRETARIA 1.100,00 769,39 450,00 0,00 0,00 0,00 0,00 0,00 1.127,09 30/11/2020
1136 661600 CLARISSE PEREZ DO NASCIMENTO NASCIF MENDES PROMOTOR 1A ENTRANCIA BARÃO DE COCAIS - COMARCA; BARAO DE COCAIS-PJ-UNPJ 1.100,00 0,00 2.998,80 0,00 5.067,40 0,00 0,00 0,00 1.114,83 30/11/2020
1137 641800 CLARISSE TAVARES GONCALVES OFICIAL DO MP BELO HORIZONTE - COMARCA; BH-07PJ 01 TRIBUNAL JURI-SECRETARIA 1.100,00 0,00 450,00 0,00 0,00 0,00 0,00 0,00 457,27 30/11/2020
1138 463700 CLAUDIA ADRIANA FERRAO DIAS ANALISTA DO MP SETE LAGOAS - COMARCA; SETE LAGOAS-PJ-06PJ 1.100,00 0,00 450,00 0,00 0,00 0,00 0,00 0,00 1.063,82 30/11/2020
1139 415400 CLAUDIA ALMEIDA DE VASCONCELLOS BARROS ASSESSOR/OFICIAL BELO HORIZONTE - COMARCA; DIVISAO DE SERVICOS 1.100,00 0,00 450,00 0,00 0,00 0,00 0,00 0,00 1.236,75 30/11/2020
1140 207000 CLAUDIA APARECIDA VILELA MACHADO ANALISTA DO MP BELO HORIZONTE - COMARCA; CENTRAL DE APOIO TECNICO-SETOR CONTABIL 1.100,00 0,00 450,00 0,00 0,00 0,00 0,00 0,00 2.499,07 30/11/2020
1141 314400 CLAUDIA AUGUSTA LOPES DE MENDONCA PROMOT.ENTRANC.ESPECIAL BELO HORIZONTE - COMARCA; BH-09PJ AUDITORIA MILITAR-GAB 074PJ 1.100,00 0,00 2.125,60 0,00 30.320,20 0,00 0,00 0,00 1.235,26 30/11/2020
1142 365700 CLAUDIA BREGUEZ CUNHA ANALISTA DO MP VARGINHA - COMARCA; VARGINHA-PJ-07PJ 1.100,00 0,00 450,00 0,00 0,00 0,00 0,00 0,00 1.497,46 30/11/2020
1143 430500 CLAUDIA CECILIA SANTANA VENCESLAU OFICIAL DO MP BELO HORIZONTE - COMARCA; DIR ANALISES TECNOLOGIA INTELIGENCIA 1.100,00 0,00 450,00 0,00 0,00 0,00 0,00 0,00 943,77 30/11/2020
1144 112400 CLAUDIA CRISTINA FIUZA DE AVELAR AGENTE DO MP BELO HORIZONTE - COMARCA; SERVICO MEDICO-DEPTO PERIC MEDICA SAUDE OCUP 1.100,00 0,00 450,00 0,00 0,00 0,00 0,00 0,00 1.492,27 30/11/2020
1145 98300 CLAUDIA DE OLIVEIRA IGNEZ PROMOTOR 2A ENTRANCIA NOVA LIMA - COMARCA; NOVA LIMA-PJ-01PJ 1.100,00 0,00 1.172,60 0,00 0,00 0,00 0,00 0,00 0,00 30/11/2020
1146 167300 CLAUDIA DO AMARAL XAVIER PROMOT.ENTRANC.ESPECIAL BELO HORIZONTE - COMARCA; BH-CENTRAL DE RECEPÇÃO DE FLAGRANTES 1.100,00 0,00 2.143,52 0,00 5.614,85 0,00 0,00 0,00 1.235,26 30/11/2020
1147 890200 CLAUDIA DOS SANTOS ROBERTO NASCIMENTO ESTAGIARIO BELO HORIZONTE; DIVISAO DE MEMORIA INSTITUCIONAL
1148 163100 CLAUDIA FERREIRA DE SOUZA PROMOT.ENTRANC.ESPECIAL BELO HORIZONTE - COMARCA; CORREGEDORIA-GERAL-ASSESSORIA 1.100,00 0,00 3.368,91 0,00 3.368,91 0,00 0,00 0,00 1.029,39 30/11/2020
1149 174500 CLAUDIA FERREIRA PACHECO DE FREITAS PROMOT.ENTRANC.ESPECIAL BELO HORIZONTE - COMARCA; BH-18PJ DIREITOS HUMANOS-GAB 125PJ 1.100,00 0,00 3.070,08 0,00 3.368,91 0,00 0,00 0,00 1.029,39 30/11/2020
1150 167200 CLAUDIA FREDDO MARQUES CARVALHO PROMOT.ENTRANC.ESPECIAL UBERABA - COMARCA; UBERABA-PJ-14PJ 1.100,00 0,00 3.368,91 0,00 3.368,91 0,00 0,00 0,00 1.029,39 30/11/2020
1151 480400 CLAUDIA GOULART DE SOUZA OFICIAL DO MP PASSOS - COMARCA; PASSOS-PJ-06PJ 1.100,00 0,00 450,00 0,00 0,00 0,00 0,00 0,00 890,98 30/11/2020
1152 519800 CLAUDIA HELENA CORREA DE ALMEIDA ANALISTA DO MP BELO HORIZONTE - COMARCA; BH-12PJ JUIZO CRIMINAL-GAB 096PJ 1.100,00 0,00 450,00 0,00 0,00 0,00 0,00 0,00 1.056,42 30/11/2020
1153 422100 CLAUDIA IACOMINI CABRAL ANALISTA DO MP BELO HORIZONTE - COMARCA; CENT DE APOIO TEC-SETOR DEF,IDOSO E INFANC 1.100,00 0,00 450,00 0,00 0,00 0,00 0,00 0,00 1.918,06 30/11/2020
1154 258200 CLAUDIA LAGE MICHALAROS ANALISTA DO MP BELO HORIZONTE - COMARCA; CENTRAL DE APOIO TECN-SETOR DE MEIO AMBIENTE 1.100,00 0,00 450,00 0,00 0,00 0,00 0,00 0,00 2.862,18 30/11/2020
1155 284600 CLAUDIA LENI DE FREITAS OFICIAL DO MP CONTAGEM - COMARCA; CONTAGEM-PJ-SECRETARIA 1.100,00 0,00 450,00 0,00 0,00 0,00 0,00 0,00 850,89 30/11/2020
1156 175200 CLAUDIA LOPES SILVA SCIOLI PROMOT.ENTRANC.ESPECIAL POUSO ALEGRE - COMARCA; POUSO ALEGRE-PJ-07PJ 1.100,00 0,00 2.728,96 0,00 3.368,91 0,00 0,00 0,00 1.029,39 30/11/2020
1157 433600 CLAUDIA LUIZA SANTIAGO FELICIO ANALISTA DO MP BELO HORIZONTE - COMARCA; CENT DE APOIO TEC-SETOR DEF,IDOSO E INFANC 1.100,00 0,00 450,00 0,00 0,00 0,00 0,00 0,00 1.312,25 30/11/2020
1158 317000 CLAUDIA MACHADO ALVES ASSESSOR/OFICIAL BELO HORIZONTE - COMARCA; DIR GOVERNANCA TECNOLOGIA INFORMACAO 1.100,00 0,00 450,00 0,00 0,00 0,00 0,00 0,00 1.114,30 30/11/2020
1159 155300 CLAUDIA MACIEL MIRANDA OFICIAL DO MP CONGONHAS - COMARCA; CONGONHAS-PJ-02PJ 1.100,00 0,00 450,00 0,00 0,00 0,00 0,00 0,00 1.996,69 30/11/2020
1160 242200 CLAUDIA MICHELLE DIAS MUNIZ BALEEIRO OFICIAL DO MP MONTE AZUL - COMARCA; MONTE AZUL-PJ-SECRETARIA 1.100,00 0,00 450,00 0,00 0,00 0,00 0,00 0,00 2.236,81 30/11/2020
1161 236500 CLAUDIA NETO COMELLI PROMOT.ENTRANC.ESPECIAL CONTAGEM - COMARCA; CONTAGEM-PJ-20PJ 1.100,00 0,00 2.465,84 0,00 3.368,91 0,00 0,00 0,00 1.029,39 30/11/2020
1162 623000 CLAUDIA PATRICIA SILVA RODRIGUES RAPOSEIRAS OFICIAL DO MP PARÁ DE MINAS - COMARCA; PARA DE MINAS-PJ-02PJ 1.100,00 769,39 450,00 0,00 0,00 0,00 0,00 0,00 442,74 30/11/2020
1163 418400 CLAUDIA REGINA MARTINS BONIFACIO OFICIAL DO MP ITUIUTABA - COMARCA; ITUIUTABA-PJ-06PJ 1.100,00 0,00 450,00 0,00 0,00 0,00 0,00 0,00 940,57 30/11/2020
1164 498300 CLAUDIA SOUTO FARIAS BRAUN OFICIAL DO MP TEÓFILO OTONI - COMARCA; TEOFILO OTONI-PJ-SECRETARIA 1.100,00 0,00 450,00 0,00 0,00 0,00 0,00 0,00 699,52 30/11/2020
1165 79600 CLAUDIA SPRANGER E SILVA LUIZ MOTTA PROCURADOR DE JUSTICA BELO HORIZONTE - COMARCA; CAO-DH CONT EXT ATIV POLIC E AP COMUNIT 1.100,00 0,00 1.769,56 0,00 3.546,22 0,00 0,00 0,00 1.083,57 30/11/2020
1166 206500 CLAUDIA VALERIA FONSECA ANDRADE ANALISTA DO MP BELO HORIZONTE - COMARCA; BH-23PJ INF-FISC MED SOC FEC 1.100,00 0,00 450,00 0,00 0,00 0,00 0,00 0,00 2.718,31 30/11/2020
1167 277500 CLAUDIO ANTONIO BORGES BRUNSWICK ALVARES OFICIAL DO MP BELO HORIZONTE - COMARCA; BH-15PJ M AMB 16PJ HAB URB-SECRETARIA 1.100,00 0,00 450,00 0,00 0,00 0,00 0,00 0,00 1.173,60 30/11/2020
1168 444800 CLAUDIO ARESIO DO CARMO ANALISTA DO MP SETE LAGOAS - COMARCA; SETE LAGOAS-PJ-01PJ 1.100,00 0,00 450,00 0,00 0,00 0,00 0,00 0,00 1.364,36 30/11/2020
1169 532100 CLAUDIO DANIEL FONSECA DE ALMEIDA PROMOTOR 2A ENTRANCIA MARIANA - COMARCA; MARIANA-PJ-02PJ 1.100,00 0,00 2.025,40 0,00 3.200,47 0,00 0,00 0,00 977,92 30/11/2020
1170 76700 CLAUDIO EMANUEL DA CUNHA PROCURADOR DE JUSTICA BELO HORIZONTE - COMARCA; GABINETE DE PROCURADOR DE JUSTIÇA - SALA 305 1.100,00 0,00 2.451,80 0,00 3.546,22 0,00 0,00 0,00 1.083,57 30/11/2020
1171 100500 CLAUDIO FERREIRA DE OLIVEIRA FILHO PROMOTOR 2A ENTRANCIA LAMBARI - COMARCA; LAMBARI-PJ-UNPJ 1.100,00 0,00 2.345,20 0,00 5.334,11 0,00 0,00 0,00 1.173,50 30/11/2020
1172 1098600 CLAUDIO HENRIQUE AMARAL DOS SANTOS ESTAGIARIO SANTA RITA DO SAPUCAI; SANTA RITA DO SAPUCAI-PJ-01PJ 0,00 0,00 0,00 54,00 0,00 0,00 0,00 0,00 0,00 30/11/2020
1173 545100 CLAUDIO HENRIQUE MACEDO DE SOUZA FRANSOZO ANALISTA DO MP OURO PRETO - COMARCA; OURO PRETO-PJ-03PJ 1.100,00 769,39 450,00 0,00 0,00 0,00 0,00 0,00 817,79 30/11/2020
1174 353500 CLAUDIO HENRIQUE PEDRO DA ROCHA OFICIAL DO MP BELO HORIZONTE - COMARCA; DIVISAO TRANSPORTES 1.100,00 0,00 450,00 0,00 0,00 0,00 0,00 0,00 1.091,39 30/11/2020
1175 265800 CLAUDIO KUPIDLOWSKY FERNANDES OFICIAL DO MP BELO HORIZONTE - COMARCA; SECRETARIA DO PROCON-MG 1.100,00 0,00 450,00 0,00 0,00 0,00 0,00 0,00 1.277,78 30/11/2020
1176 193600 CLAUDIO LEITE FONTES OFICIAL DO MP ITUIUTABA - COMARCA; ITUIUTABA-PJ-02PJ 1.100,00 0,00 450,00 0,00 0,00 0,00 0,00 0,00 1.252,97 30/11/2020
1177 102000 CLAUDIO LUIZ GONCALVES MARINS PROMOTOR 2A ENTRANCIA GUAXUPÉ - COMARCA; GUAXUPE-PJ-03PJ 1.100,00 0,00 2.345,20 0,00 5.334,11 0,00 0,00 0,00 1.173,50 30/11/2020
1178 163200 CLAUDIO MAIA DE BARROS PROMOT.ENTRANC.ESPECIAL BELO HORIZONTE - COMARCA; BH-07PJ 01 TRIBUNAL DO JURI-GAB 059PJ 1.100,00 0,00 2.579,72 0,00 0,00 0,00 0,00 0,00 0,00 30/11/2020
1179 329400 CLAUDIO MARCIO BERNARDES OFICIAL DO MP ITAÚNA - COMARCA; ITAUNA-PJ-03PJ 1.100,00 769,39 450,00 0,00 0,00 0,00 0,00 0,00 1.481,09 30/11/2020
1180 270200 CLAUDIO RABELO ALVES OFICIAL DO MP FORMIGA - COMARCA; FORMIGA-PJ-03PJ 1.100,00 0,00 450,00 0,00 0,00 0,00 0,00 0,00 1.327,80 30/11/2020
1181 264700 CLAUDIO ROBERTO KFURI DE ARAUJO ANALISTA DO MP BELO HORIZONTE - COMARCA; CENTRAL DE APOIO TECNICO-SETOR DE INFORMATICA 1.100,00 0,00 450,00 0,00 0,00 0,00 0,00 0,00 1.984,93 30/11/2020
1182 188600 CLAUDIO SALES OFICIAL DO MP NEPOMUCENO - COMARCA; NEPOMUCENO-PJ-SECRETARIA 1.100,00 0,00 450,00 0,00 0,00 0,00 0,00 0,00 2.825,47 30/11/2020
1183 543300 CLAUDIO SILVA DE CARVALHO ANALISTA DO MP CAMPO BELO - COMARCA; CAMPO BELO-PJ-03PJ 1.100,00 0,00 450,00 0,00 0,00 0,00 0,00 0,00 810,71 30/11/2020
1184 144300 CLAUDIO VARELLA DE SOUZA PROCURADOR DE JUSTICA BELO HORIZONTE - COMARCA; GABINETE DE PROCURADOR DE JUSTIÇA - SALA 712 1.100,00 0,00 1.172,60 0,00 5.910,37 0,00 0,00 0,00 1.300,28 30/11/2020
1185 160700 CLAUDIO VICENTE HESS ASSESSOR BELO HORIZONTE - COMARCA; CENTRAL DE APOIO TECNICO-SETOR DE INFORMATICA 1.100,00 0,00 450,00 0,00 0,00 0,00 0,00 0,00 1.885,59 30/11/2020
1186 312900 CLAUDIO VIEIRA FIRPE OFICIAL DO MP BELO HORIZONTE - COMARCA; DIR RELACOES INSTITUCIONAIS 1.100,00 0,00 450,00 0,00 0,00 0,00 0,00 0,00 1.216,39 30/11/2020
1187 634100 CLEA CRISTINA GUERRA DE FREITAS COSTA OFICIAL DO MP BELO HORIZONTE - COMARCA; BH-18PJ VIOLENCIA DOMESTICA-SECRETARIA 1.100,00 769,39 450,00 0,00 0,00 0,00 0,00 0,00 526,02 30/11/2020
1188 244800 CLEBER AUGUSTO DO NASCIMENTO PROMOTOR 2A ENTRANCIA CAMPO BELO - COMARCA; CAMPO BELO-PJ-04PJ 1.100,00 0,00 2.755,94 0,00 3.200,47 0,00 0,00 0,00 977,92 30/11/2020
1189 439000 CLEBER COUTO PROMOT.ENTRANC.ESPECIAL PATOS DE MINAS - COMARCA; COORD REG PJ DEF EDU DIR CRI ADO AL PAR NOROE 1.100,00 0,00 2.302,56 0,00 3.368,91 0,00 0,00 0,00 1.029,39 30/11/2020
1190 653100 CLEBER SOUZA SCALIONI ASSESSOR BELO HORIZONTE - COMARCA; CENTRAL DE APOIO TECNICO-SETOR CONTABIL 1.100,00 0,00 450,00 0,00 0,00 0,00 0,00 0,00 732,71 30/11/2020
1191 1167700 CLEBERSON AUGUSTO ALVES ESTAGIARIO 0,00 0,00 0,00 189,00 0,00 0,00 0,00 0,00 0,00 30/11/2020
1192 459200 CLEIA ZILLE PEREIRA ANALISTA DO MP BELO HORIZONTE - COMARCA; BH-07PJ 01 TRIBUNAL JURI-SECRETARIA 1.100,00 0,00 450,00 0,00 0,00 0,00 0,00 0,00 1.109,20 30/11/2020
1193 481800 CLEIDE CARDOSO DA SILVA ANALISTA DO MP MANHUAÇU - COMARCA; MANHUACU-PJ-04PJ 1.100,00 0,00 450,00 0,00 0,00 0,00 0,00 0,00 973,76 30/11/2020
1194 225000 CLEIDE PEREIRA DA SILVA PROMOT.ENTRANC.ESPECIAL BELO HORIZONTE - COMARCA; BH-09PJ AUDITORIA MILITAR-GAB 161PJ 1.100,00 0,00 980,72 0,00 0,00 0,00 0,00 0,00 0,00 30/11/2020
1195 347600 CLEIDIMAR DE OLIVEIRA SILVA OFICIAL DO MP PATOS DE MINAS - COMARCA; PATOS DE MINAS-PJ-03PJ 1.100,00 0,00 450,00 0,00 0,00 0,00 0,00 0,00 981,84 30/11/2020
1196 396500 CLEIDISON BATISTA DE ANDRADE OFICIAL DO MP RESPLENDOR - COMARCA; RESPLENDOR-PJ-UNPJ 1.100,00 769,39 450,00 0,00 0,00 0,00 0,00 0,00 792,74 30/11/2020
1197 535100 CLEISON ALVES DA SILVA ANALISTA DO MP BOA ESPERANÇA - COMARCA; BOA ESPERANCA-PJ-01PJ 1.100,00 0,00 450,00 0,00 0,00 0,00 0,00 0,00 932,11 30/11/2020
1198 298100 CLEONICE AUGUSTA BARROS DE OLIVEIRA ANALISTA DO MP JUIZ DE FORA - COMARCA; JUIZ DE FORA-PJ-08PJ 1.100,00 0,00 450,00 0,00 0,00 0,00 0,00 0,00 1.829,67 30/11/2020
1199 114300 CLERES PEREIRA DA SILVA JUNIOR ASSESSOR BELO HORIZONTE - COMARCA; BH-22PJ PES COM DEF E IDOSOS-SECRETARIA 1.100,00 0,00 450,00 0,00 0,00 0,00 0,00 0,00 677,59 30/11/2020
1200 264100 CLETO HENRIQUE ANDRADE SILVA ANALISTA DO MP BELO HORIZONTE - COMARCA; DIRETORIA DE SISTEMAS DE INFORMACAO 1.100,00 0,00 450,00 0,00 21,20 0,00 0,00 0,00 2.153,62 30/11/2020
1201 334400 CLEUBA DE OLIVEIRA BARCELOS GONCALVES OFICIAL DO MP DIVINÓPOLIS - COMARCA; COORD REG SAUDE MACRORREGIAO SANITARIA OESTE 1.100,00 0,00 450,00 0,00 0,00 0,00 0,00 3.129,20 1.177,90 30/11/2020
1202 347500 CLEUSA CORDEIRO DA MATA PIMENTA OFICIAL DO MP CAMPO BELO - COMARCA; CAMPO BELO-PJ-02PJ 1.100,00 0,00 450,00 0,00 0,00 0,00 0,00 0,00 1.531,98 30/11/2020
1203 92400 CLEVERSON RAYMUNDO SBARZI GUEDES PROMOT.ENTRANC.ESPECIAL JUIZ DE FORA - COMARCA; JUIZ DE FORA-PJ-14PJ 1.100,00 0,00 3.091,40 0,00 5.614,85 0,00 0,00 0,00 1.235,26 30/11/2020
1204 675000 CLEVERTON FRANCISCO GONCALVES DA SILVA 1O.TENENTE 900,00 0,00 0,00 0,00 0,00 0,00 0,00 0,00 0,00 30/11/2020
1205 510200 CLEZIO SALES SILVA OFICIAL DO MP BRASÓPOLIS - COMARCA; BRASOPOLIS-PJ-UNPJ 1.100,00 1.974,77 450,00 0,00 0,00 514,60 0,00 0,00 632,00 30/11/2020
1206 323000 CLOTILDE DE PADUA VIEIRA OFICIAL DO MP BELO HORIZONTE - COMARCA; BH-19PJ SAUDE-SECRETARIA 129PJ 1.100,00 0,00 450,00 0,00 0,00 0,00 0,00 0,00 721,53 30/11/2020
1207 285200 CLOVIS ANDRE LUDTKE OFICIAL DO MP BELO HORIZONTE - COMARCA; DIVISAO DE MANUTENCAO PREDIAL 1.100,00 0,00 450,00 0,00 0,00 0,00 0,00 0,00 1.295,27 30/11/2020
1208 381100 CONCEICAO APARECIDA TEIXEIRA ARANTES ANALISTA DO MP BELO HORIZONTE - COMARCA; BH-23PJ INFRACIONAL-ASS JURIDICA 1.100,00 769,39 450,00 0,00 0,00 0,00 0,00 0,00 4.912,97 30/11/2020
1209 1031700 CONRADO FIGUEIREDO ALMEIDA ESTAGIARIO SAO FRANCISCO; SAO FRANCISCO-PJ-01PJ 0,00 0,00 0,00 180,00 0,00 0,00 0,00 0,00 0,00 30/11/2020
1210 249900 CONSTANTINO CEZAR GOMES MOTA OFICIAL DO MP MONTES CLAROS - COMARCA; COORD REG BACIA RIOS VERDE GRANDE E PARDO 1.100,00 769,39 450,00 0,00 0,00 0,00 0,00 0,00 1.209,36 30/11/2020
1211 594800 COSME COELHO TEIXEIRA 3O.SARGENTO BELO HORIZONTE - COMARCA; NUCLEO DE CONTRAINTELIGENCIA 1.100,00 0,00 0,00 0,00 0,00 0,00 0,00 0,00 0,00 30/11/2020
1212 481000 CRISHMA ANALIA LOMBELLO ANALISTA DO MP JUIZ DE FORA - COMARCA; JUIZ DE FORA-PJ-13PJ 1.100,00 0,00 450,00 0,00 0,00 0,00 0,00 0,00 1.082,43 30/11/2020
1213 977400 CRISLAINE MAGALHAES SOBRINHO ESTAGIARIO NOVA LIMA; NOVA LIMA-PJ-04PJ 0,00 0,00 0,00 63,00 0,00 0,00 0,00 0,00 0,00 30/11/2020
1214 523900 CRISTHYANE BAZOLI COSTA GUEDES COUTO OFICIAL DO MP BELO HORIZONTE - COMARCA; BH-04PJ JUIZO REG PÚBLICOS-SECRETARIA 1.100,00 0,00 450,00 0,00 0,00 0,00 0,00 0,00 1.159,13 30/11/2020
1215 187000 CRISTIAN DAYVSON EVANGELISTA OFICIAL DO MP JUIZ DE FORA - COMARCA; JUIZ DE FORA-PJ-13PJ 1.100,00 0,00 450,00 0,00 0,00 0,00 0,00 0,00 1.577,92 30/11/2020
1216 245000 CRISTIAN LUCIO DA SILVA PROMOT.ENTRANC.ESPECIAL BELO HORIZONTE - COMARCA; BH-07PJ 03 TRIBUNAL DO JURI-GAB 064PJ 1.100,00 0,00 2.939,68 0,00 3.368,91 0,00 0,00 0,00 1.029,39 30/11/2020
1217 682100 CRISTIAN TRISTAO DE ANDRADE ASSESSOR PROMOTOR JUSTICA TRÊS CORACOES - COMARCA; TRES CORACOES-PJ-04PJ 1.100,00 0,00 450,00 0,00 0,00 0,00 0,00 0,00 0,00 30/11/2020
1218 319800 CRISTIANA GONCALVES DOS SANTOS GUSMAO OFICIAL DO MP PARAOPEBA - COMARCA; PARAOPEBA-PJ-UNPJ 1.100,00 0,00 450,00 0,00 0,00 0,00 0,00 0,00 1.594,96 30/11/2020
1219 520600 CRISTIANA JANAINA BARBOZA JUVENCIO DOS SANTOS ANALISTA DO MP BELO HORIZONTE - COMARCA; BH-02PJ FAMILIA-SECRETARIA 1.100,00 0,00 450,00 0,00 0,00 0,00 0,00 0,00 1.117,83 30/11/2020
1220 195600 CRISTIANA SOARES HALABI OFICIAL DO MP UBERABA - COMARCA; UBERABA-PJ-01PJ 1.100,00 0,00 450,00 0,00 0,00 0,00 0,00 0,00 1.846,16 30/11/2020
1221 218900 CRISTIANE ALVES BELLES OFICIAL DO MP JUIZ DE FORA - COMARCA; JUIZ DE FORA-PJ-10PJ 1.100,00 1.153,54 450,00 0,00 0,00 0,00 0,00 0,00 785,68 30/11/2020
1222 291600 CRISTIANE CAMPOS AMORIM BARONY PROMOTOR 2A ENTRANCIA CARANGOLA - COMARCA; CARANGOLA-PJ-03PJ 1.100,00 0,00 3.200,47 0,00 3.200,47 0,00 0,00 0,00 977,92 30/11/2020
1223 263600 CRISTIANE CARVALHO COUTINHO OFICIAL DO MP BELO HORIZONTE - COMARCA; BH-23PJ INFRACIONAL-SEC EXP 1.100,00 0,00 450,00 0,00 0,00 0,00 0,00 0,00 1.155,51 30/11/2020
1224 541000 CRISTIANE COELHO ALVES OFICIAL DO MP ITABIRA - COMARCA; ITABIRA-PJ-03PJ 1.100,00 0,00 450,00 0,00 0,00 0,00 0,00 0,00 531,62 30/11/2020
1225 441700 CRISTIANE CORRADO DE ANDRADE ANALISTA DO MP BELO HORIZONTE - COMARCA; DIRETORIA DE SISTEMAS DE INFORMACAO 1.100,00 0,00 450,00 0,00 0,00 0,00 0,00 0,00 1.408,42 30/11/2020
1226 375100 CRISTIANE DAS DORES ERCIO DE LIMA OFICIAL DO MP GOVERNADOR VALADARES - COMARCA; COOR REG APOIO COM INC MOB VALE DO RIO DOCE 1.100,00 0,00 450,00 0,00 0,00 0,00 0,00 0,00 847,85 30/11/2020
1227 1163300 CRISTIANE DE FREITAS SOARES ESTAGIARIO MANHUACU; MANHUACU-PJ-02PJ 0,00 0,00 0,00 180,00 0,00 0,00 0,00 0,00 0,00 30/11/2020
1228 178800 CRISTIANE DE LIMA HOSKEN OFICIAL DO MP BELO HORIZONTE - COMARCA; BH-14PJ DEFESA CONSUMIDOR-GAB 110PJ 1.100,00 0,00 450,00 0,00 0,00 0,00 0,00 0,00 1.918,00 30/11/2020
1229 494000 CRISTIANE DE MELO MARQUEZ OLIVEIRA ANALISTA DO MP UBERLÂNDIA - COMARCA; UBERLANDIA-PJ-06PJ 1.100,00 1.538,78 450,00 0,00 0,00 0,00 0,00 0,00 1.223,84 30/11/2020
1230 266100 CRISTIANE DE OLIVEIRA CASTRO OFICIAL DO MP BELO HORIZONTE - COMARCA; BH-14PJ DEFESA CONSUMIDOR-SECRETARIA 1.100,00 0,00 450,00 0,00 0,00 0,00 1.445,27 0,00 1.456,98 30/11/2020
1231 329500 CRISTIANE DOS REIS SILVA OFICIAL DO MP ARAXÁ - COMARCA; ARAXA-PJ-04PJ 1.100,00 0,00 450,00 0,00 0,00 0,00 0,00 0,00 1.045,92 30/11/2020
1232 301600 CRISTIANE GODINHO PIRES ANALISTA DO MP BETIM - COMARCA; BETIM-PJ-07PJ 1.100,00 0,00 450,00 0,00 0,00 0,00 0,00 0,00 1.975,91 30/11/2020
1233 1187300 CRISTIANE GOMES CAROBA ESTAGIARIO MONTES CLAROS; MONTES CLAROS-PJ-02PJ 0,00 0,00 0,00 126,00 0,00 0,00 0,00 0,00 0,00 30/11/2020
1234 406100 CRISTIANE GONCALVES CHAVES ANALISTA DO MP BELO HORIZONTE - COMARCA; BH-14PJ DEFESA CONSUMIDOR-GAB 112PJ 1.100,00 0,00 450,00 0,00 0,00 0,00 0,00 0,00 1.574,52 30/11/2020
1235 487600 CRISTIANE LOPES DE OLIVEIRA OFICIAL DO MP DIVINÓPOLIS - COMARCA; DIVINOPOLIS-PJ-03PJ 1.100,00 0,00 450,00 0,00 0,00 0,00 0,00 0,00 697,91 30/11/2020
1236 502500 CRISTIANE MACIEL DE OLIVEIRA GOMES ANALISTA DO MP JUIZ DE FORA - COMARCA; JUIZ DE FORA-PJ-05PJ 1.100,00 769,39 450,00 0,00 0,00 0,00 0,00 0,00 1.146,86 30/11/2020
1237 285500 CRISTIANE MAGALHAES LOURENCO ANALISTA DO MP BELO HORIZONTE - COMARCA; CENTRAL DE APOIO TECNICO-SETOR CONTABIL 1.100,00 0,00 450,00 0,00 0,00 0,00 0,00 0,00 2.020,19 30/11/2020
1238 536500 CRISTIANE MICHELE DE SOUZA ANALISTA DO MP BARÃO DE COCAIS - COMARCA; BARAO DE COCAIS-PJ-UNPJ 1.100,00 769,39 450,00 0,00 0,00 0,00 0,00 0,00 820,32 30/11/2020
1239 346600 CRISTIANE NOGUEIRA ANDRADE ANALISTA DO MP BELO HORIZONTE - COMARCA; CENTRAL DE APOIO TECNICO-SETOR CONTABIL 1.100,00 0,00 450,00 0,00 0,00 0,00 0,00 0,00 1.628,21 30/11/2020
1240 234000 CRISTIANE OLIVEIRA TOSTES OFICIAL DO MP JUIZ DE FORA - COMARCA; JUIZ DE FORA-PJ-08PJ 1.100,00 769,39 450,00 0,00 5.958,88 0,00 0,00 0,00 2.034,89 30/11/2020
1241 445800 CRISTIANE ORZIL COSTA OFICIAL DO MP SANTA LUZIA - COMARCA; SANTA LUZIA-PJ-05PJ 1.100,00 769,39 450,00 0,00 0,00 0,00 0,00 0,00 627,83 30/11/2020
1242 616100 CRISTIANE PAES RODRIGUES MARCICANO ANALISTA DO MP CATAGUASES - COMARCA; CATAGUASES-PJ-05PJ 1.100,00 1.538,78 450,00 0,00 0,00 0,00 0,00 0,00 796,26 30/11/2020
1243 1110700 CRISTIANE PIRES DAMASCENO ESTAGIARIO ITURAMA; ITURAMA-PJ-02PJ 0,00 0,00 0,00 180,00 0,00 0,00 0,00 0,00 0,00 30/11/2020
1244 612300 CRISTIANE RIBEIRO DOS REIS ARCANJO OFICIAL DO MP BELO HORIZONTE - COMARCA; DIRETORIA DE PAGAMENTO DE PESSOAL-DPAG 0,00 0,00 0,00 0,00 0,00 0,00 0,00 0,00 641,19 30/11/2020
1245 257700 CRISTIANE RODRIGUES PAES NUNES ANALISTA DO MP BELO HORIZONTE - COMARCA; BH-22PJ PES COM DEF E IDOSOS-ORIENTACAO PSIC 1.100,00 769,39 450,00 0,00 0,00 0,00 0,00 0,00 2.088,48 30/11/2020
1246 510800 CRISTIANE SANTOS FERNANDES ORNELES ANALISTA DO MP BELO HORIZONTE - COMARCA; COORD ESTADUAL DAS PJS DE HAB. E URBANISMO 1.100,00 0,00 450,00 0,00 0,00 0,00 0,00 0,00 1.006,85 30/11/2020
1247 535701 CRISTIANE SANTOS MIRANDA ANALISTA DO MP BETIM - COMARCA; BETIM-PJ-12PJ 1.100,00 0,00 450,00 0,00 0,00 0,00 0,00 0,00 647,28 30/11/2020
1248 163400 CRISTIANO CASSIOLATO PROMOTOR 1A ENTRANCIA CARMO DO RIO CLARO - COMARCA; CARMO DO RIO CLARO-PJ-UNPJ 1.100,00 0,00 3.040,44 0,00 6.080,88 0,00 0,00 0,00 1.114,83 30/11/2020
1249 484000 CRISTIANO CESAR PIMENTA DAYRELL DA CUNHA PROMOT.ENTRANC.ESPECIAL SETE LAGOAS - COMARCA; SETE LAGOAS-PJ-01PJ 1.100,00 0,00 2.558,40 0,00 3.368,91 0,00 0,00 0,00 1.029,39 30/11/2020
1250 299901 CRISTIANO DA COSTA MATA PROMOT.ENTRANC.ESPECIAL IPATINGA - COMARCA; IPATINGA-PJ-11PJ 1.100,00 0,00 2.558,40 0,00 3.368,91 0,00 0,00 0,00 1.029,39 30/11/2020
1251 536200 CRISTIANO DE OLIVEIRA ANALISTA DO MP CONCEIÇÃO DO MATO DENTRO - COMARCA; CONCEICAO DO MATO DENTRO-PJ-UNPJ 1.100,00 769,39 450,00 0,00 0,00 0,00 0,00 0,00 909,99 30/11/2020
1252 675100 CRISTIANO GERALDO CUNHA CABO BELO HORIZONTE - COMARCA; GAECO - SECRETARIA 900,00 0,00 0,00 0,00 0,00 0,00 0,00 0,00 0,00 30/11/2020
1253 440000 CRISTIANO MOREIRA SILVA PROMOTOR 2A ENTRANCIA CAPELINHA - COMARCA; CAPELINHA-PJ-02PJ 1.100,00 0,00 2.235,40 0,00 3.200,47 0,00 0,00 0,00 977,92 30/11/2020
1254 167400 CRISTIANO ROCHA GAZAL PROMOTOR 1A ENTRANCIA CAMBUQUIRA - COMARCA; CAMBUQUIRA-PJ-UNPJ 1.100,00 0,00 1.492,40 0,00 5.067,40 0,00 0,00 0,00 1.114,83 30/11/2020
1255 477400 CRISTIANO SOARES ELEUTERIO ANALISTA DO MP BELO HORIZONTE - COMARCA; BH-17PJ PATRIMONIO PUBLICO-SECRETARIA 1.100,00 0,00 450,00 0,00 0,00 0,00 0,00 0,00 1.198,87 30/11/2020
1256 449400 CRISTIANO TEIXEIRA RODRIGUES LANA ANALISTA DO MP BELO HORIZONTE - COMARCA; ASSESS TECNICO-JUR JUNTO AS PROC. DE JUST 1.100,00 0,00 450,00 0,00 0,00 0,00 0,00 0,00 1.108,05 30/11/2020
1257 106600 CRISTINA BECHARA KALLAS PROMOTOR 2A ENTRANCIA PASSOS - COMARCA; PASSOS-PJ-03PJ 1.100,00 0,00 2.913,32 0,00 3.200,47 0,00 0,00 0,00 977,92 30/11/2020
1258 239400 CRISTINA DE FATIMA CRUZ E SILVA OFICIAL DO MP MONTE SANTO DE MINAS - COMARCA; MONTE SANTO DE MINAS-PJ-SECRETARIA 1.100,00 0,00 450,00 0,00 0,00 0,00 0,00 0,00 1.289,05 30/11/2020
1259 544000 CRISTINA DE OLIVEIRA TERRA ANALISTA DO MP RIBEIRÃO DAS NEVES - COMARCA; RIBEIRAO DAS NEVES-PJ-09PJ 1.100,00 0,00 450,00 0,00 0,00 0,00 0,00 0,00 1.964,34 30/11/2020
1260 356800 CRISTINA DE PINHO BARROSO OFICIAL DO MP SABINÓPOLIS - COMARCA; SABINOPOLIS-PJ-UNPJ 1.100,00 769,39 450,00 0,00 0,00 0,00 0,00 0,00 838,77 30/11/2020
1261 649500 CRISTINA DO DIVINO ESPIRITO SANTOS OFICIAL DO MP DIVINÓPOLIS - COMARCA; DIVINOPOLIS-PJ-12PJ 1.100,00 0,00 450,00 0,00 0,00 0,00 0,00 0,00 465,64 30/11/2020
1262 218500 CRISTINA FAGUNDES SIQUEIRA PROMOTOR 2A ENTRANCIA ARAGUARI - COMARCA; ARAGUARI-PJ-04PJ 1.100,00 0,00 2.643,68 0,00 3.200,47 0,00 0,00 0,00 977,92 30/11/2020
1263 484500 CRISTINA FERREIRA LABARRERE NASCIMENTO PROMOTOR SUBSTITUTO CONTAGEM - COMARCA; CONTAGEM-PJ-10PJ 1.100,00 0,00 1.748,24 0,00 3.040,44 0,00 0,00 0,00 929,03 30/11/2020
1264 348201 CRISTINA MARIA DA SILVA ANALISTA DO MP UBERLÂNDIA - COMARCA; UBERLANDIA-PJ-20PJ 1.100,00 769,39 450,00 0,00 0,00 0,00 896,19 0,00 957,80 30/11/2020
1265 434900 CRISTINA MELO DE MADUREIRA ANALISTA DO MP BELO HORIZONTE - COMARCA; BH-07PJ 01 TRIBUNAL JURI-SECRETARIA 1.100,00 0,00 450,00 0,00 0,00 0,00 0,00 0,00 1.288,84 30/11/2020
1266 307700 CRISTINA TEIXEIRA MARQUES OFICIAL DO MP BELO HORIZONTE - COMARCA; CENTRAL DE APOIO TECNICO-SETOR CONTABIL 1.100,00 0,00 450,00 0,00 0,00 0,00 0,00 0,00 1.070,21 30/11/2020
1267 58700 CRISTOVAM JOAQUIM FERNANDES RAMOS FILHO PROCURADOR DE JUSTICA BELO HORIZONTE - COMARCA; PROC JUST ESP ACOES COMP ORIG CRIMINAL 0,00 0,00 1.279,20 0,00 0,00 0,00 0,00 0,00 0,00 30/11/2020
1268 265300 CRISTOVAO SANCHES DE MEDEIROS ANALISTA DO MP BELO HORIZONTE - COMARCA; DIRETORIA DE CONTABILIDADE 1.100,00 0,00 450,00 0,00 0,00 0,00 0,00 0,00 1.931,55 30/11/2020
1269 349800 CROZEIR LUIZ DA SILVA OFICIAL DO MP UNAÍ - COMARCA; UNAI-PJ-SECRETARIA 1.100,00 0,00 450,00 0,00 0,00 2.108,20 0,00 0,00 1.035,06 30/11/2020
1270 490500 CYNTHIA CRISTINA DE SOUZA OLIVEIRA VALENTE ANALISTA DO MP BELO HORIZONTE - COMARCA; BH-09PJ AUDITORIA MILITAR-SECRETARIA 1.100,00 0,00 450,00 0,00 0,00 0,00 0,00 0,00 1.134,18 30/11/2020
1271 344200 CYNTHIA DUARTE VILELA PROMOTOR 2A ENTRANCIA SABARÁ - COMARCA; SABARA-PJ-03PJ 1.100,00 0,00 2.874,24 0,00 3.200,47 0,00 0,00 0,00 977,92 30/11/2020
1272 389800 CYNTHIA GARIGLIO DOS SANTOS OFICIAL DO MP PERDIZES - COMARCA; PERDIZES-PJ-SECRETARIA 1.100,00 769,39 450,00 0,00 0,00 0,00 0,00 0,00 835,95 30/11/2020
1273 335101 CYNTHIA GONTIJO D ASSUNCAO ANALISTA DO MP BELO HORIZONTE - COMARCA; PROC. JUSTICA DIR. DIFUSOS E COLETIVOS-SEC 1.100,00 769,39 450,00 0,00 0,00 0,00 0,00 0,00 983,12 30/11/2020
1274 154000 CYNTHIA LOPES DOS SANTOS LAGES ASSESSOR BELO HORIZONTE - COMARCA; PROCURADOR-GERAL DE JUSTICA- GABINETE 1.100,00 0,00 450,00 0,00 0,00 0,00 0,00 0,00 2.298,88 30/11/2020
1275 223600 CYNTHIA MARIA DOS SANTOS SILVA JORGE PROMOT.ENTRANC.ESPECIAL BELO HORIZONTE - COMARCA; BH-13PJ JUIZO DE TOXICOS-GAB 011PJ 1.100,00 0,00 2.494,44 0,00 5.614,85 0,00 0,00 0,00 1.235,26 30/11/2020
1276 1029100 CYNTHIA SOUZA RAMOS ESTAGIARIO BELO HORIZONTE; DIRET DE FORMACAO, APERFEIC. E POS-GRADUACAO 0,00 0,00 0,00 0,00 482,00 0,00 0,00 0,00 0,00 30/11/2020
1277 531200 CYNTIA CAMPOS GIRO PROMOTOR 2A ENTRANCIA PONTE NOVA - COMARCA; PONTE NOVA-PJ-05PJ 1.100,00 0,00 1.599,00 0,00 0,00 0,00 0,00 0,00 0,00 30/11/2020
1278 269700 CYNTIA ROCHA CAVALCANTI OFICIAL DO MP UBERLÂNDIA - COMARCA; UBERLANDIA-PJ-06PJ 1.100,00 769,39 450,00 0,00 0,00 0,00 0,00 0,00 1.490,21 30/11/2020
1279 850000 DAIANA MACHADO DA SILVA ESTAGIARIO RIBEIRAO DAS NEVES; RIBEIRAO DAS NEVES-PJ-01PJ 0,00 0,00 0,00 36,00 0,00 0,00 0,00 0,00 0,00 30/11/2020
1280 1025100 DAIANE GONCALVES BORGES ESTAGIARIO ITUIUTABA; ITUIUTABA-PJ-05PJ 0,00 0,00 0,00 117,00 0,00 0,00 0,00 0,00 0,00 30/11/2020
1281 278000 DAIRTON LOPES MARTINS FILHO COORDENADOR/ANALISTA BELO HORIZONTE - COMARCA; DIRETORIA DE SISTEMAS DE INFORMACAO 1.100,00 0,00 450,00 0,00 0,00 0,00 0,00 0,00 1.698,50 30/11/2020
1282 392700 DALIANA CHAVES IBRAIM MARINHO OFICIAL DO MP ITAÚNA - COMARCA; ITAUNA-PJ-04PJ 1.100,00 0,00 450,00 0,00 0,00 0,00 0,00 0,00 723,04 30/11/2020
1283 1107100 DALILA MAGALHAES CABRAL ESTAGIARIO CONTAGEM; CONTAGEM-PJ-06PJ 0,00 0,00 0,00 171,00 0,00 0,00 0,00 0,00 0,00 30/11/2020
1284 558101 DALLEY TASSIA SILVA ANALISTA DO MP MORADA NOVA DE MINAS - COMARCA; MORADA NOVA DE MINAS-PJ-UNPJ 1.100,00 1.538,78 450,00 0,00 0,00 0,00 0,00 0,00 780,53 30/11/2020
1285 476700 DALTON DAUD ANALISTA DO MP ARAGUARI - COMARCA; ARAGUARI-PJ-05PJ 1.100,00 0,00 450,00 0,00 0,00 0,00 0,00 0,00 1.111,02 30/11/2020
1286 1013200 DAMARIS DE ARAUJO NASCIMENTO ESTAGIARIO TRES CORACOES; TRES CORACOES-PJ-02PJ 0,00 0,00 0,00 171,00 0,00 0,00 0,00 0,00 0,00 30/11/2020
1287 426900 DANIEL ALVES DA SILVA OFICIAL DO MP BELO HORIZONTE - COMARCA; DIVISAO TRANSPORTES 1.100,00 0,00 450,00 0,00 0,00 0,00 0,00 0,00 719,97 30/11/2020
1288 343900 DANIEL ANGELO DE OLIVEIRA RANGEL PROMOTOR 1A ENTRANCIA RIO PRETO - COMARCA; RIO PRETO-PJ-UNPJ 1.100,00 0,00 2.174,64 0,00 3.040,44 0,00 0,00 0,00 929,03 30/11/2020
1289 122000 DANIEL ANTONIO VIEIRA OFICIAL DO MP ENTRE-RIOS DE MINAS - COMARCA; ENTRE RIOS DE MINAS-PJ-SECRETARIA 600,00 0,00 450,00 0,00 0,00 0,00 0,00 0,00 1.508,16 30/11/2020
1290 685900 DANIEL AUGUSTO DE CAMARGO LIMA CAMPOS PROMOTOR SUBSTITUTO ÁGUAS FORMOSAS - COMARCA; AGUAS FORMOSAS-PJ-UNPJ 1.100,00 0,00 703,56 0,00 0,00 0,00 0,00 0,00 0,00 30/11/2020
1291 311501 DANIEL BATISTA MENDES PROMOT.ENTRANC.ESPECIAL BELO HORIZONTE - COMARCA; BH-14PJ DEFESA CONSUMIDOR-GAB 110PJ 1.100,00 0,00 2.451,80 0,00 3.368,91 0,00 0,00 0,00 1.029,39 30/11/2020
1292 437801 DANIEL CASTRO E MELO PROMOTOR 2A ENTRANCIA JANAÚBA - COMARCA; JANAUBA-PJ-03PJ 1.100,00 0,00 0,00 0,00 0,00 0,00 0,00 0,00 0,00 30/11/2020
1293 313800 DANIEL DE OLIVEIRA MALARD PROMOT.ENTRANC.ESPECIAL BELO HORIZONTE - COMARCA; CAO-CRIMINAL 1.100,00 0,00 2.217,28 0,00 3.368,91 0,00 0,00 0,00 1.029,39 30/11/2020
1294 170200 DANIEL DE SA RODRIGUES PROMOT.ENTRANC.ESPECIAL BELO HORIZONTE - COMARCA; BH-11PJ COMB CRIME ORGANIZ-GAB 082PJ 1.100,00 0,00 3.368,91 0,00 5.614,85 0,00 0,00 0,00 1.235,26 30/11/2020
1295 456600 DANIEL DOS SANTOS RODRIGUES PROMOTOR 2A ENTRANCIA OURO PRETO - COMARCA; OURO PRETO-PJ-01PJ 1.100,00 0,00 2.451,80 0,00 0,00 0,00 0,00 0,00 0,00 30/11/2020
1296 996600 DANIEL FERREIRA CAMARA ESTAGIARIO BELO HORIZONTE; CAO-CRIMINAL-GABINETES 0,00 0,00 0,00 54,00 0,00 0,00 0,00 0,00 0,00 30/11/2020
1297 411000 DANIEL FERREIRA DA SILVA ANALISTA DO MP GOVERNADOR VALADARES - COMARCA; GOVERNADOR VALADARES-PJ-15PJ 1.100,00 1.538,78 450,00 0,00 0,00 0,00 0,00 0,00 2.257,16 30/11/2020
1298 309000 DANIEL GOMES DOS SANTOS ANALISTA DO MP POÇOS DE CALDAS - COMARCA; POCOS DE CALDAS-PJ-03PJ 1.100,00 0,00 450,00 0,00 0,00 0,00 0,00 0,00 3.062,03 30/11/2020
1299 554500 DANIEL GOMES PEREIRA OFICIAL DO MP NANUQUE - COMARCA; NANUQUE-PJ-02PJ 1.100,00 0,00 450,00 0,00 0,00 0,00 0,00 0,00 609,17 30/11/2020
1300 453000 DANIEL GONCALVES PEREIRA ANALISTA DO MP UNAÍ - COMARCA; UNAI-PJ-02PJ 1.100,00 1.922,93 450,00 0,00 0,00 0,00 0,00 0,00 1.110,51 30/11/2020
1301 495500 DANIEL GUIMARAES CABRAL OFICIAL DO MP BELO HORIZONTE - COMARCA; BH-17PJ PATRIMONIO PUBLICO-SECRETARIA 1.100,00 0,00 450,00 0,00 0,00 0,00 0,00 0,00 694,12 30/11/2020
1302 442900 DANIEL GUIMARAES GONCALVES ANALISTA DO MP UBERLÂNDIA - COMARCA; UBERLANDIA-PJ-03PJ 1.100,00 0,00 450,00 0,00 0,00 0,00 0,00 0,00 1.364,68 30/11/2020
1303 634800 DANIEL LESSA COSTA PROMOT.ENTRANC.ESPECIAL CARATINGA - COMARCA; CARATINGA-PJ-06PJ 1.100,00 0,00 1.918,80 0,00 3.368,91 0,00 0,00 0,00 1.029,39 30/11/2020
1304 655900 DANIEL LUIZ DA SILVA ASSESSOR BELO HORIZONTE - COMARCA; DIV FISCAL ADM CONT TERCEIRIZACAO 1.100,00 0,00 450,00 0,00 0,00 0,00 0,00 0,00 268,87 30/11/2020
1305 209600 DANIEL MAROTTA MARTINEZ PROMOT.ENTRANC.ESPECIAL UBERLÂNDIA - COMARCA; UBERLANDIA-PJ-17PJ 1.100,00 0,00 1.849,84 0,00 5.614,85 0,00 0,00 0,00 1.235,26 30/11/2020
1306 440300 DANIEL OLIVEIRA DE ORNELAS PROMOT.ENTRANC.ESPECIAL MONTES CLAROS - COMARCA; MONTES CLAROS-PJ-12PJ 1.100,00 0,00 2.558,40 0,00 3.368,91 0,00 0,00 0,00 1.029,39 30/11/2020
1307 464600 DANIEL PIACENTINI STIVANIN ANALISTA DO MP ANDRADAS - COMARCA; ANDRADAS-PJ-02PJ 1.100,00 0,00 450,00 0,00 0,00 0,00 0,00 0,00 963,52 30/11/2020
1308 533600 DANIEL PIOVANELLI ARDISSON PROMOTOR 2A ENTRANCIA MONTES CLAROS - COMARCA; COORD REG BACIA RIOS VERDE GRANDE E PARDO 1.100,00 0,00 1.492,40 0,00 3.200,47 0,00 0,00 0,00 977,92 30/11/2020
1309 417000 DANIEL QUEIROZ FERREIRA ANALISTA DO MP SÃO SEBASTIÃO DO PARAÍSO - COMARCA; SAO SEBASTIAO DO PARAISO-PJ-05PJ 1.100,00 0,00 450,00 0,00 0,00 0,00 0,00 0,00 1.243,89 30/11/2020
1310 483400 DANIEL RIBEIRO COSTA PROMOTOR 1A ENTRANCIA ELOI MENDES - COMARCA; ELOI MENDES-PJ-UNPJ 1.100,00 0,00 1.918,80 0,00 3.040,44 0,00 0,00 0,00 929,03 30/11/2020
1311 457600 DANIEL SALIBA DE FREITAS PROMOTOR 2A ENTRANCIA NOVA SERRANA - COMARCA; NOVA SERRANA-PJ-02PJ 1.100,00 0,00 2.558,40 0,00 0,00 0,00 0,00 0,00 0,00 30/11/2020
1312 396700 DANIEL SILVA CARNEVALLI DIRETOR/ANALISTA BELO HORIZONTE - COMARCA; SUPERINTENDENCIA DE TECNOLOGIA DA INFORMACAO 1.100,00 769,39 450,00 0,00 0,00 0,00 0,00 0,00 1.608,11 30/11/2020
1313 489300 DANIEL TABOZA ROCHA ANALISTA DO MP IPATINGA - COMARCA; IPATINGA-PJ-08PJ 1.100,00 769,39 450,00 0,00 0,00 0,00 0,00 0,00 1.013,16 30/11/2020
1314 414100 DANIEL TARDELI VALADAO ANALISTA DO MP TRÊS CORACOES - COMARCA; TRES CORACOES-PJ-02PJ 1.100,00 1.538,78 450,00 0,00 0,00 0,00 0,00 0,00 1.295,58 30/11/2020
1315 446601 DANIEL VIEIRA BUENO ANALISTA DO MP SÃO DOMINGOS DO PRATA - COMARCA; SAO DOMINGOS DO PRATA-PJ-UNPJ 1.100,00 769,39 450,00 0,00 0,00 0,00 0,00 0,00 774,07 30/11/2020
1316 1185700 DANIELA ANTUNES TELLES ESTAGIARIO NOVA LIMA; NOVA LIMA-PJ-03PJ 0,00 0,00 0,00 162,00 0,00 0,00 0,00 0,00 0,00 30/11/2020
1317 1118300 DANIELA BARROS GOMES ESTAGIARIO IBIRITE; IBIRITE-PJ-03PJ 0,00 0,00 0,00 108,00 0,00 0,00 0,00 0,00 0,00 30/11/2020